[[{"header":{"parameterUnit":"m.s-1","parameterCategory":1,"la1":30.6,"la2":29.2853,"lo1":-89.7004,"lo2":-87.6739,"dy":0.0162,"dx":0.0183,"nx":112,"ny":82,"refTime":"2023-05-04T00:00:00:Z","depth":0,"parameterNumber":2,"parameterNumberName":"U-component_of_WINDS"},"data":[0.0,0.0,0.0,0.0,0.0,0.0,0.0,0.0,0.0,0.0,0.0,0.0,0.0,0.0,0.0,0.0,0.0,0.0,0.0,0.0,0.0,0.0,0.0,0.0,0.0,0.0,0.0,0.0,0.0,0.0,0.0,0.0,0.0,0.0,0.0,0.0,0.0,0.0,0.0,0.0,0.0,0.0,0.0,0.0,0.0,0.0,0.0,0.0,0.0,0.0,0.0,0.0,0.0,0.0,0.0,0.0,0.0,0.0,0.0,0.0,0.0,0.0,0.0,0.0,0.0,0.0,0.0,0.0,0.0,0.0,0.0,0.0,0.0,0.0,0.0,0.0,0.0,0.0,0.0,0.0,0.0,0.0,0.0,0.0,0.0,0.0,0.0,0.0,0.0,0.0,-1.2882,-1.6582,-1.8527,-1.9175,-1.8236,-1.8755,-1.799,-1.5325,0.0,0.0,0.0,0.0,0.0,0.0,0.0,0.0,0.0,0.0,0.0,0.0,0.0,0.0,0.0,0.0,0.0,0.0,0.0,0.0,0.0,0.0,0.0,0.0,0.0,0.0,0.0,0.0,0.0,0.0,0.0,0.0,0.0,0.0,0.0,0.0,0.0,0.0,0.0,0.0,0.0,0.0,0.0,0.0,0.0,0.0,0.0,0.0,0.0,0.0,0.0,0.0,0.0,0.0,0.0,0.0,0.0,0.0,0.0,0.0,0.0,0.0,0.0,0.0,0.0,0.0,0.0,0.0,0.0,0.0,0.0,0.0,0.0,0.0,0.0,0.0,0.0,0.0,0.0,0.0,0.0,0.0,0.0,0.0,0.0,0.0,0.0,0.0,0.0,0.0,0.0,0.0,0.0,0.0,0.0,0.0,0.0,0.0,0.0,0.0,0.0,0.0,0.0,0.0,-1.5231,-1.8305,-1.9055,-1.9072,-1.8417,-1.8107,-1.7106,-1.5075,0.0,0.0,0.0,0.0,0.0,0.0,0.0,0.0,0.0,0.0,0.0,0.0,0.0,0.0,0.0,0.0,0.0,0.0,0.0,0.0,0.0,0.0,0.0,0.0,0.0,0.0,0.0,0.0,0.0,0.0,0.0,0.0,0.0,0.0,0.0,0.0,0.0,0.0,0.0,0.0,0.0,0.0,0.0,0.0,0.0,0.0,0.0,0.0,0.0,0.0,0.0,0.0,0.0,0.0,0.0,0.0,0.0,0.0,0.0,0.0,0.0,0.0,0.0,0.0,0.0,0.0,0.0,0.0,0.0,0.0,0.0,0.0,0.0,0.0,0.0,0.0,0.0,0.0,0.0,0.0,0.0,0.0,0.0,0.0,0.0,0.0,0.0,0.0,0.0,0.0,0.0,0.0,0.0,0.0,0.0,0.0,0.0,0.0,0.0,0.0,0.0,0.0,0.0,-1.5301,-1.6996,-1.7779,-1.8204,-1.8142,-1.7433,-1.7472,-1.6785,-1.5016,-1.4055,0.0,0.0,0.0,0.0,0.0,0.0,0.0,0.0,0.0,0.0,0.0,0.0,0.0,0.0,0.0,0.0,0.0,0.0,0.0,0.0,0.0,0.0,0.0,0.0,0.0,0.0,0.0,0.0,0.0,0.0,0.0,0.0,0.0,0.0,0.0,0.0,0.0,0.0,0.0,0.0,0.0,0.0,0.0,0.0,0.0,0.0,0.0,0.0,0.0,0.0,0.0,0.0,0.0,0.0,0.0,0.0,0.0,0.0,0.0,0.0,0.0,0.0,0.0,0.0,0.0,0.0,0.0,0.0,0.0,0.0,0.0,0.0,0.0,0.0,0.0,0.0,0.0,0.0,0.0,0.0,0.0,0.0,0.0,0.0,0.0,0.0,0.0,0.0,0.0,0.0,0.0,0.0,0.0,0.0,0.0,0.0,0.0,0.0,0.0,0.0,0.0,0.0,-1.6638,-1.7791,-1.7449,-1.7612,-1.7432,-1.6705,-1.6986,-1.6455,-1.4719,-1.3795,0.0,0.0,0.0,0.0,0.0,0.0,0.0,0.0,0.0,0.0,0.0,0.0,0.0,0.0,0.0,0.0,0.0,0.0,0.0,0.0,0.0,0.0,0.0,0.0,0.0,0.0,0.0,0.0,0.0,0.0,0.0,0.0,0.0,0.0,0.0,0.0,0.0,0.0,0.0,0.0,0.0,0.0,0.0,0.0,0.0,0.0,0.0,0.0,0.0,0.0,0.0,0.0,0.0,0.0,0.0,0.0,0.0,0.0,0.0,0.0,0.0,0.0,0.0,0.0,0.0,0.0,0.0,0.0,0.0,0.0,0.0,0.0,0.0,0.0,0.0,0.0,0.0,0.0,0.0,0.0,0.0,0.0,0.0,0.0,0.0,0.0,0.0,0.0,0.0,0.0,0.0,0.0,0.0,0.0,0.0,0.0,0.0,0.0,0.0,0.0,0.0,0.0,-1.602,-1.6895,-1.8764,-1.8248,-1.7591,-1.71,-1.6757,-1.5765,-1.3902,-1.3711,0.0,0.0,0.0,0.0,0.0,0.0,0.0,0.0,0.0,0.0,0.0,0.0,0.0,0.0,0.0,0.0,0.0,0.0,0.0,0.0,0.0,0.0,0.0,0.0,0.0,0.0,0.0,0.0,0.0,0.0,0.0,0.0,0.0,0.0,0.0,0.0,0.0,0.0,0.0,0.0,0.0,0.0,0.0,0.0,0.0,0.0,0.0,0.0,0.0,0.0,0.0,0.0,0.0,0.0,0.0,0.0,0.0,0.0,0.0,0.0,0.0,0.0,0.0,0.0,0.0,0.0,0.0,0.0,0.0,0.0,0.0,0.0,0.0,0.0,0.0,0.0,0.0,0.0,0.0,0.0,0.0,0.0,0.0,0.0,0.0,0.0,0.0,0.0,0.0,0.0,0.0,0.0,0.0,0.0,0.0,0.0,0.0,0.0,0.0,0.0,0.0,0.0,-1.6775,-1.7675,0.0,-1.7318,-1.6858,-1.6561,-1.625,-1.5383,-1.374,0.0,0.0,0.0,0.0,0.0,0.0,0.0,0.0,0.0,0.0,0.0,0.0,0.0,0.0,0.0,0.0,0.0,0.0,0.0,0.0,0.0,0.0,0.0,0.0,0.0,0.0,0.0,0.0,0.0,0.0,0.0,0.0,0.0,0.0,0.0,0.0,0.0,0.0,0.0,0.0,0.0,0.0,0.0,0.0,0.0,0.0,0.0,0.0,0.0,0.0,0.0,0.0,0.0,0.0,0.0,0.0,0.0,0.0,0.0,0.0,0.0,0.0,0.0,0.0,0.0,0.0,0.0,0.0,0.0,0.0,0.0,0.0,0.0,0.0,0.0,0.0,0.0,0.0,0.0,0.0,0.0,0.0,0.0,0.0,0.0,0.0,0.0,0.0,0.0,0.0,0.0,0.0,0.0,0.0,0.0,0.0,0.0,0.0,0.0,0.0,0.0,0.0,-1.5868,-1.7344,-1.8187,0.0,-1.7206,-1.6786,-1.634,-1.6144,-1.5341,-1.374,0.0,0.0,0.0,0.0,0.0,0.0,0.0,0.0,0.0,0.0,0.0,0.0,0.0,0.0,0.0,0.0,0.0,0.0,0.0,0.0,0.0,0.0,0.0,0.0,0.0,0.0,0.0,0.0,0.0,0.0,0.0,0.0,0.0,0.0,0.0,0.0,0.0,0.0,0.0,0.0,0.0,0.0,0.0,0.0,0.0,0.0,0.0,0.0,0.0,0.0,0.0,0.0,0.0,0.0,0.0,0.0,0.0,0.0,0.0,0.0,0.0,0.0,0.0,0.0,0.0,0.0,0.0,0.0,0.0,0.0,0.0,0.0,0.0,0.0,0.0,0.0,0.0,0.0,0.0,0.0,0.0,0.0,0.0,0.0,0.0,0.0,0.0,0.0,0.0,0.0,0.0,0.0,0.0,0.0,0.0,0.0,0.0,0.0,0.0,0.0,0.0,0.0,-1.6613,-1.7449,-1.8147,-1.8553,-1.8226,-1.7585,-1.6586,-1.65,-1.5703,0.0,0.0,0.0,0.0,0.0,0.0,0.0,0.0,0.0,0.0,0.0,0.0,0.0,0.0,0.0,0.0,0.0,0.0,0.0,0.0,0.0,0.0,0.0,0.0,0.0,0.0,0.0,0.0,0.0,0.0,0.0,0.0,0.0,0.0,0.0,0.0,0.0,0.0,0.0,0.0,0.0,0.0,0.0,0.0,0.0,0.0,0.0,0.0,0.0,0.0,0.0,0.0,0.0,0.0,0.0,0.0,0.0,0.0,0.0,0.0,0.0,0.0,0.0,0.0,0.0,0.0,0.0,0.0,0.0,0.0,0.0,0.0,0.0,0.0,0.0,0.0,0.0,0.0,0.0,0.0,0.0,0.0,0.0,0.0,0.0,0.0,0.0,0.0,0.0,0.0,0.0,0.0,0.0,0.0,0.0,0.0,0.0,0.0,0.0,0.0,0.0,0.0,0.0,-1.5313,-1.6862,-1.7942,-1.7767,-1.7427,-1.7086,-1.6663,-1.6513,-1.548,-1.3281,0.0,0.0,0.0,0.0,0.0,0.0,0.0,0.0,0.0,0.0,0.0,0.0,0.0,0.0,0.0,0.0,0.0,0.0,0.0,0.0,0.0,0.0,0.0,0.0,0.0,0.0,0.0,0.0,0.0,0.0,0.0,0.0,0.0,0.0,0.0,0.0,0.0,0.0,0.0,0.0,0.0,0.0,0.0,0.0,0.0,0.0,0.0,0.0,0.0,0.0,0.0,0.0,0.0,0.0,0.0,0.0,0.0,0.0,0.0,0.0,0.0,0.0,0.0,0.0,0.0,0.0,0.0,0.0,0.0,0.0,0.0,0.0,0.0,0.0,0.0,0.0,0.0,0.0,0.0,0.0,0.0,0.0,0.0,0.0,0.0,0.0,0.0,0.0,0.0,0.0,0.0,0.0,0.0,0.0,0.0,0.0,0.0,0.0,0.0,0.0,0.0,0.0,-1.5622,-1.7302,-1.8369,-1.7922,-1.7646,-1.7256,-1.662,-1.6426,-1.5587,-1.3924,0.0,0.0,0.0,0.0,0.0,0.0,0.0,0.0,0.0,0.0,0.0,0.0,0.0,0.0,0.0,0.0,0.0,0.0,0.0,0.0,0.0,0.0,0.0,0.0,0.0,0.0,0.0,0.0,0.0,0.0,0.0,0.0,0.0,0.0,0.0,0.0,0.0,0.0,0.0,0.0,0.0,0.0,0.0,0.0,0.0,0.0,0.0,0.0,0.0,0.0,0.0,0.0,0.0,0.0,0.0,0.0,0.0,0.0,0.0,0.0,0.0,0.0,0.0,0.0,0.0,0.0,0.0,0.0,0.0,0.0,0.0,0.0,0.0,0.0,0.0,0.0,0.0,0.0,0.0,0.0,0.0,0.0,0.0,0.0,0.0,0.0,0.0,0.0,0.0,0.0,0.0,0.0,0.0,0.0,0.0,0.0,0.0,0.0,0.0,0.0,0.0,0.0,-1.6747,-1.8176,-1.902,-1.8516,-1.8361,-1.7787,-1.6522,-1.6318,-1.5942,-1.5182,0.0,0.0,0.0,0.0,0.0,0.0,0.0,0.0,0.0,0.0,0.0,0.0,0.0,0.0,0.0,0.0,0.0,0.0,0.0,0.0,0.0,0.0,0.0,0.0,0.0,0.0,0.0,0.0,0.0,0.0,0.0,0.0,0.0,0.0,0.0,0.0,0.0,0.0,0.0,0.0,0.0,0.0,0.0,0.0,0.0,0.0,0.0,0.0,0.0,0.0,0.0,0.0,0.0,0.0,0.0,0.0,0.0,0.0,0.0,0.0,-2.0273,-1.9079,0.0,0.0,0.0,0.0,0.0,0.0,0.0,0.0,0.0,0.0,0.0,0.0,0.0,0.0,0.0,0.0,0.0,0.0,0.0,0.0,0.0,0.0,0.0,0.0,0.0,0.0,0.0,0.0,0.0,0.0,0.0,0.0,0.0,0.0,0.0,0.0,0.0,0.0,0.0,0.0,-1.5391,-1.6715,-1.7625,-1.7503,-1.7462,-1.7227,-1.6675,-1.6611,-1.6036,-1.4727,-1.4789,0.0,0.0,0.0,0.0,0.0,0.0,0.0,0.0,0.0,0.0,0.0,0.0,0.0,0.0,0.0,0.0,0.0,0.0,0.0,0.0,0.0,0.0,0.0,0.0,0.0,0.0,0.0,0.0,0.0,0.0,0.0,0.0,0.0,0.0,0.0,0.0,0.0,0.0,0.0,0.0,0.0,0.0,0.0,0.0,0.0,0.0,0.0,0.0,0.0,0.0,0.0,0.0,0.0,0.0,0.0,0.0,0.0,0.0,0.0,-2.0295,-1.978,0.0,0.0,0.0,0.0,0.0,0.0,0.0,0.0,0.0,0.0,0.0,0.0,0.0,0.0,0.0,0.0,0.0,0.0,0.0,0.0,0.0,0.0,0.0,0.0,0.0,0.0,0.0,0.0,0.0,0.0,0.0,0.0,0.0,0.0,0.0,0.0,0.0,0.0,0.0,0.0,-1.5611,-1.7218,-1.8291,-1.7834,-1.7754,-1.7407,-1.662,-1.6504,-1.6083,-1.5177,-1.4934,0.0,0.0,0.0,0.0,0.0,0.0,0.0,0.0,0.0,0.0,0.0,0.0,0.0,0.0,0.0,0.0,0.0,0.0,0.0,0.0,0.0,0.0,0.0,0.0,0.0,0.0,0.0,0.0,0.0,0.0,0.0,0.0,0.0,0.0,0.0,0.0,0.0,0.0,0.0,0.0,0.0,0.0,0.0,0.0,0.0,0.0,0.0,0.0,0.0,0.0,0.0,0.0,0.0,-2.1221,-2.129,-2.1226,-2.1952,-2.192,-2.1255,-2.0842,-2.0984,-2.1411,-2.004,0.0,0.0,0.0,0.0,0.0,0.0,0.0,0.0,0.0,0.0,0.0,0.0,0.0,0.0,0.0,0.0,0.0,0.0,0.0,0.0,0.0,0.0,-1.5601,-1.7992,-1.744,-1.6799,-1.8284,0.0,0.0,0.0,0.0,0.0,0.0,0.0,0.0,0.0,0.0,0.0,-1.6191,-1.8054,-1.9151,-1.838,-1.8185,-1.768,-1.6586,-1.634,-1.6144,-1.5881,-1.5094,-1.4719,0.0,0.0,0.0,0.0,0.0,0.0,0.0,0.0,0.0,0.0,0.0,0.0,0.0,0.0,0.0,0.0,0.0,0.0,0.0,0.0,0.0,0.0,0.0,0.0,0.0,0.0,0.0,0.0,0.0,0.0,0.0,0.0,-1.9257,-2.0653,0.0,0.0,0.0,0.0,0.0,0.0,0.0,0.0,0.0,0.0,0.0,0.0,0.0,-2.0772,-2.1229,-2.2146,-2.2911,-2.3528,-2.4236,-2.4556,-2.4486,-2.4604,-2.4559,-2.4315,-2.3018,0.0,-2.1552,-2.1105,0.0,0.0,0.0,0.0,0.0,0.0,0.0,0.0,0.0,0.0,0.0,0.0,0.0,0.0,0.0,0.0,0.0,0.0,0.0,0.0,0.0,0.0,-1.9071,-1.9504,-1.8519,-1.7916,-1.9429,-1.7899,-1.6631,-1.8035,-1.7205,-1.6427,0.0,0.0,0.0,0.0,0.0,0.0,-1.587,-1.714,-1.8028,-1.7888,-1.7557,-1.722,-1.6854,-1.6607,-1.6383,-1.6156,-1.5826,-1.5302,-1.4598,-1.5251,0.0,0.0,0.0,0.0,0.0,0.0,0.0,0.0,0.0,0.0,0.0,0.0,0.0,0.0,0.0,0.0,0.0,0.0,0.0,0.0,0.0,0.0,0.0,0.0,0.0,0.0,0.0,0.0,0.0,-1.9659,-2.0582,-2.1508,-2.1119,-2.0633,0.0,0.0,0.0,0.0,0.0,0.0,0.0,0.0,0.0,-2.065,-2.1894,-2.2484,-2.2317,-2.3894,-2.4867,-2.5196,-2.6009,-2.6357,-2.6344,-2.6776,-2.6951,-2.6868,-2.6228,-2.5518,-2.464,-2.2361,-2.1245,-2.0908,0.0,0.0,0.0,0.0,-1.8781,-1.9517,-1.889,-1.9822,-2.1218,-2.069,0.0,0.0,0.0,0.0,0.0,0.0,0.0,-1.7792,-1.8523,-1.895,-1.9401,-2.0173,-1.9885,-1.9542,-1.9925,-1.8505,-1.7486,-1.8559,-1.8188,-1.7441,-1.6705,-1.6772,0.0,0.0,0.0,-1.7338,-1.682,-1.7989,-1.8789,-1.8539,-1.8167,-1.774,-1.7282,-1.6926,-1.6577,-1.6222,-1.6166,-1.5859,-1.526,-1.5671,-1.5462,0.0,0.0,0.0,0.0,0.0,0.0,0.0,0.0,0.0,0.0,0.0,0.0,0.0,0.0,0.0,0.0,0.0,0.0,0.0,0.0,0.0,0.0,0.0,0.0,0.0,0.0,0.0,0.0,-2.0634,-2.1372,-2.2041,-2.1882,-2.155,0.0,0.0,0.0,0.0,0.0,0.0,-2.154,-2.2182,-2.2298,-2.1788,-2.3619,-2.441,-2.3973,-2.5789,-2.6797,-2.6988,-2.7575,-2.7851,-2.7885,-2.8437,-2.8678,-2.8678,-2.8678,-2.8161,-2.7057,-2.4002,-2.2476,-2.2024,-2.1905,-2.1312,-2.0478,-2.0201,-2.0608,-2.1223,-2.0791,-2.1734,-2.3057,-2.26,-2.2035,-2.1472,-2.1374,0.0,0.0,0.0,0.0,-1.8433,-1.9606,-1.9728,-1.9792,-2.0802,-2.1027,-2.0945,-2.054,-1.963,-1.8963,-1.9214,-1.8923,-1.8239,-1.697,-1.7364,0.0,-1.5459,0.0,-1.8317,-1.764,-1.8623,-1.9273,-1.8988,-1.8481,-1.7968,-1.7475,-1.7094,-1.6727,-1.6352,-1.6362,-1.6253,-1.5925,-1.5979,-1.5763,-1.5268,0.0,0.0,0.0,0.0,0.0,0.0,0.0,0.0,0.0,0.0,0.0,0.0,0.0,0.0,0.0,0.0,0.0,0.0,0.0,0.0,0.0,0.0,0.0,0.0,0.0,0.0,0.0,0.0,0.0,-2.2034,-2.323,0.0,0.0,0.0,0.0,-2.1761,-2.1731,-2.2394,-2.3846,-2.3968,-2.4286,-2.4952,-2.5822,-2.6561,-2.7149,-2.7962,-2.8692,-2.9334,-2.9368,-2.9403,-2.9403,-2.9437,-2.9455,-2.9455,-2.9455,-2.8627,-2.723,-2.6264,-2.5272,-2.4296,-2.3844,-2.3482,-2.3078,-2.1923,-2.2449,-2.3736,-2.3759,-2.4341,-2.5052,-2.5106,-2.3736,-2.1918,-2.1164,-2.091,0.0,0.0,-2.029,-2.0916,-2.0117,-2.0719,-2.156,-2.1635,-2.1635,-2.1674,-2.1712,-2.1637,-2.1284,-2.017,-1.8877,-1.8134,-1.8744,0.0,-1.7729,-1.691,-1.7453,-1.7872,-1.7713,-1.8198,-1.8539,-1.8519,-1.7767,-1.7261,-1.722,-1.7023,-1.6846,-1.6675,-1.6491,-1.6328,-1.62,-1.6066,-1.5976,-1.5952,-1.5338,0.0,0.0,0.0,0.0,0.0,0.0,0.0,0.0,0.0,0.0,0.0,0.0,0.0,0.0,0.0,0.0,0.0,0.0,0.0,0.0,0.0,0.0,0.0,0.0,0.0,0.0,0.0,0.0,-2.4139,-2.4502,0.0,-2.4249,-2.4313,-2.4326,-2.419,-2.5022,-2.5729,-2.6204,-2.6854,-2.7267,-2.7459,-2.8219,-2.8776,-2.9023,-2.9706,-3.016,-3.0404,-3.0924,-3.1167,-3.1167,-3.1167,-3.1167,-3.1167,-3.1167,-3.0577,-2.9588,-2.9262,-2.742,-2.4775,-2.4351,-2.434,-2.4475,-2.3636,-2.4197,-2.5357,-2.5214,-2.5944,-2.6852,-2.6421,-2.5665,-2.4695,-2.3309,-2.2553,-2.2172,-2.2167,-2.1889,-2.1775,-2.2695,-2.2933,-2.3026,-2.3454,-2.3251,-2.2823,-2.2459,-2.2064,-2.1672,-2.1243,-2.0442,-1.966,-1.9095,-1.904,-1.8714,-1.7567,-1.8348,-1.9204,-1.9567,-1.9808,-2.0064,-2.0509,-2.0044,-1.9558,-1.9223,-1.8544,-1.7842,-1.7182,-1.6874,-1.6534,-1.6088,-1.6197,-1.6219,-1.6144,-1.6159,-1.5508,0.0,0.0,0.0,0.0,0.0,0.0,0.0,0.0,0.0,0.0,0.0,0.0,0.0,0.0,0.0,0.0,0.0,0.0,0.0,0.0,0.0,0.0,0.0,0.0,0.0,0.0,-2.4375,-2.5466,-2.5883,-2.6149,-2.633,-2.6335,-2.642,-2.6686,-2.7467,-2.8001,-2.8136,-2.8765,-2.9109,-2.9013,-2.9775,-3.0209,-3.0242,-3.0941,-3.129,-3.1307,-3.1847,-3.209,-3.209,-3.209,-3.1812,-3.1359,-3.1864,-3.1342,-3.0158,-3.0647,-2.9173,-2.6599,-2.6237,-2.6334,-2.6607,-2.6193,-2.6589,-2.7295,-2.7104,-2.764,-2.8322,-2.7718,-2.7136,-2.6445,-2.5479,-2.4659,-2.41,-2.4429,-2.3835,-2.3417,-2.468,-2.4635,-2.4388,-2.4829,-2.4425,-2.3834,-2.343,-2.256,-2.1998,-2.2395,-2.1831,-2.0782,-1.9229,-1.9413,-1.9253,-1.7737,-1.838,-1.9251,-1.9788,-2.0042,-2.0362,-2.0807,-2.0721,-2.055,-2.0344,-1.9084,-1.8249,-1.8118,-1.7329,-1.6849,-1.6816,-1.6374,-1.6184,-1.6328,-1.6207,-1.5839,-1.5146,0.0,0.0,0.0,0.0,0.0,0.0,0.0,0.0,0.0,0.0,0.0,0.0,0.0,0.0,0.0,0.0,0.0,0.0,0.0,0.0,0.0,0.0,0.0,-2.2087,-2.4216,-2.5864,-2.5991,-2.7507,-2.8421,-2.8177,-2.8456,-2.8798,-2.916,-2.8907,-2.9016,-2.9643,-2.9626,-2.9608,-2.9608,-3.0387,-3.0838,-3.0907,-3.1725,-3.2143,-3.2143,-3.2126,-3.2108,-3.2108,-3.2108,-3.129,-2.995,-3.1446,-3.0819,-2.8836,-3.0332,-3.054,-2.9879,-2.9592,-2.9524,-2.9558,-2.9541,-2.9541,-2.9541,-2.9524,-2.947,-2.9403,-2.9139,-2.8125,-2.7083,-2.7456,-2.7079,-2.655,-2.6416,-2.6176,-2.5948,-2.5886,-2.5785,-2.5668,-2.5659,-2.5166,-2.4664,-2.4634,-2.3299,-2.2444,-2.3583,-2.2874,-2.1432,-1.9373,-1.9554,-1.9332,-1.7517,-1.7637,0.0,-1.8313,-1.8904,-1.9328,-1.9342,-1.9593,-1.9954,-2.0422,-1.8547,-1.7972,-1.9418,-1.7857,-1.7339,-1.8376,-1.6656,-1.599,-1.667,-1.5565,-1.5784,-1.743,0.0,0.0,0.0,0.0,0.0,0.0,0.0,0.0,0.0,0.0,0.0,0.0,0.0,0.0,0.0,0.0,0.0,0.0,0.0,0.0,0.0,0.0,-2.673,-2.6356,-2.7666,-2.917,-3.0493,-3.1047,-3.1313,-3.1329,-3.1637,-3.1635,-3.1185,-3.1584,-3.1668,-3.1215,-3.0283,-2.9742,-2.9743,-3.0575,-3.106,-3.1111,-3.2442,-3.3124,-3.3107,-3.2582,-3.2319,-3.2319,-3.2319,-3.2091,-3.1723,-3.2126,-3.1951,-3.1374,-3.1707,-3.2074,-3.2196,-3.0092,-2.9914,-3.0759,-3.0367,-3.0393,-3.0514,-2.9856,-2.9953,-3.0336,-3.0269,-2.9883,-2.9372,-2.9059,-2.8469,-2.7987,-2.8144,-2.762,-2.707,-2.744,-2.723,-2.6986,-2.7264,-2.6831,-2.622,-2.5712,-2.4937,-2.4261,-2.4118,-2.3845,-2.3284,-2.2089,-2.1534,-2.1103,-2.0597,-2.0709,-2.1015,-2.1481,-2.1782,-2.2149,-2.2631,-2.1893,-2.1532,-2.189,-2.0112,-1.9194,-1.9704,-1.8972,-1.8575,-1.8704,-1.8106,-1.7913,-1.8185,-1.7272,-1.7197,0.0,0.0,0.0,0.0,0.0,0.0,0.0,0.0,0.0,0.0,0.0,0.0,0.0,0.0,0.0,0.0,0.0,0.0,0.0,0.0,0.0,0.0,-2.7023,-2.9859,-3.1063,-3.1427,-3.199,-3.32,-3.3348,-3.3491,-3.3858,-3.3829,-3.3684,-3.351,-3.3669,-3.3555,-3.3085,-3.2159,-3.1411,-3.092,-3.1934,-3.2249,-3.1751,-3.3195,-3.3949,-3.3985,-3.3511,-3.3265,-3.3265,-3.3246,-3.2861,-3.2267,-3.2948,-3.2896,-3.2354,-3.2931,-3.3473,-3.3736,0.0,0.0,0.0,0.0,-3.2158,-3.2269,-3.1825,-3.1788,-3.1938,-3.1876,-3.145,-3.082,-3.0125,-2.9024,-2.802,-2.796,-2.7099,-2.6372,-2.7234,-2.718,-2.7072,-2.7826,-2.7473,-2.6875,-2.6495,-2.5551,-2.483,-2.4933,-2.4591,0.0,-2.4316,-2.3016,-2.1705,-2.0911,-2.1051,-2.1389,-2.1793,-2.2304,-2.2767,-2.3148,-2.2777,-2.2667,-2.3084,-2.1302,0.0,0.0,0.0,-1.9132,-1.841,-1.861,0.0,0.0,0.0,-1.7658,-1.8461,-1.8014,0.0,0.0,-1.7385,-1.7048,0.0,0.0,0.0,0.0,0.0,0.0,0.0,0.0,0.0,0.0,0.0,0.0,0.0,0.0,0.0,0.0,-2.9374,-3.2763,-3.5742,-3.5328,-3.4779,-3.4883,-3.4973,-3.5279,-3.5897,-3.5401,-3.5226,-3.569,-3.519,-3.4832,-3.4763,-3.4254,0.0,0.0,0.0,-3.3736,-3.2628,-3.3967,-3.4719,-3.4811,-3.4612,-3.4523,-3.4523,-3.4443,-3.362,-3.2351,-3.3794,-3.3658,-3.2546,-3.3926,-3.4611,-3.4702,-3.3742,-3.3786,-3.4359,-3.4233,-3.4211,-3.4244,-3.426,0.0,0.0,-3.3526,-3.2751,-3.1737,-3.0962,-2.9444,-2.7898,-2.7319,-2.6242,-2.5461,-2.6499,-2.6611,-2.6742,-2.7789,-2.7583,-2.7135,-2.7059,-2.5749,-2.4875,-2.5849,-2.5184,-2.482,-2.6015,-2.4218,-2.2087,-2.0416,-2.0514,-2.0852,-2.1,-2.1793,-2.2347,-2.2347,-2.2798,0.0,-2.3925,-2.212,-2.1411,-2.2426,-2.0901,-1.9409,-1.8122,-1.8708,-1.8302,-1.6736,-1.705,-1.7756,-1.8855,-1.8712,-1.9113,-1.9952,-1.8366,-1.8084,0.0,0.0,0.0,0.0,0.0,0.0,0.0,0.0,0.0,0.0,0.0,0.0,0.0,0.0,0.0,-3.1744,-3.4728,-3.7257,-3.8857,-3.9179,-3.8792,-3.7558,-3.7147,-3.7131,-3.7597,-3.7271,-3.672,-3.5918,-3.5846,-3.5433,-3.4519,-3.3223,-3.2404,-3.2232,-3.3106,-3.351,-3.3301,-3.4792,-3.5545,-3.5564,-3.495,0.0,-3.4669,-3.454,-3.4309,-3.403,-3.4302,-3.4246,-3.4004,-3.43,-3.4789,-3.5333,-3.5118,-3.519,-3.5318,-3.4497,-3.4341,-3.4404,-3.3615,-3.3368,-3.3363,-3.3359,-3.3174,-3.2866,-3.2298,-3.1911,0.0,-3.0899,-3.0241,-2.964,-2.9106,-2.8597,-2.8217,-2.831,-2.8231,-2.797,-2.7433,-2.7042,-2.6696,-2.6381,-2.612,-2.605,-2.6243,-2.5807,-2.5288,-2.4949,-2.4562,-2.4307,-2.4301,-2.404,-2.3861,-2.3861,-2.3024,-2.2803,-2.3606,-2.2321,-2.1762,-2.2449,-2.1605,-2.0681,-1.9758,-1.9873,-1.9696,-1.9131,-1.9207,-1.9409,-1.975,-1.9598,-1.9712,-1.9978,-1.9749,-1.9636,0.0,0.0,0.0,0.0,0.0,0.0,0.0,0.0,0.0,0.0,0.0,-2.5799,0.0,0.0,-3.1379,-3.4536,-3.6455,-3.8251,-4.0219,-4.0323,-3.9913,-3.9094,-3.8647,-3.8398,-3.8405,-3.7878,-3.7399,-3.7041,-3.688,-3.6502,-3.583,-3.5075,-3.432,-3.3618,-3.4653,-3.49,-3.427,-3.5675,-3.6391,-3.6391,-3.5964,-3.5752,-3.575,-3.5654,-3.5597,-3.5614,-3.5573,-3.5551,-3.5551,-3.5551,-3.5799,-3.6153,-3.6113,-3.613,-3.6135,-3.5633,-3.5541,-3.5587,-3.5124,-3.497,-3.4957,-3.4691,-3.4524,-3.4184,-3.3008,-3.2302,-3.1702,-3.0769,-2.9945,-2.927,-2.898,-2.899,-2.9013,-2.8724,-2.8981,-2.9067,-2.824,-2.8038,-2.7922,-2.7481,-2.7396,-2.7396,-2.7365,-2.7333,-2.7057,-2.6404,-2.605,-2.5834,-2.5806,-2.5235,-2.4948,-2.5302,-2.4117,-2.3621,-2.4398,-2.3318,-2.2681,-2.2891,-2.2086,-2.1313,-2.0635,-2.0346,-2.0067,-1.9811,-1.9798,-1.9824,-1.9901,-1.9824,-1.9987,-2.0355,-2.0434,-2.0217,0.0,0.0,0.0,0.0,0.0,0.0,0.0,0.0,-2.6711,-2.7584,-2.8322,-2.9416,-3.1391,-3.2188,-3.3622,-3.6938,-3.7901,-3.9041,-4.1262,-4.0873,-4.032,-4.0171,-3.9582,-3.9061,-3.8731,-3.8135,-3.7861,-3.8119,-3.7861,-3.7542,-3.7226,-3.7226,-3.6658,-3.5384,-3.6416,-3.6469,-3.5402,-3.6592,-3.7218,-3.7218,-3.7099,-3.7058,-3.7041,-3.6835,-3.6705,-3.6705,-3.6702,-3.6702,-3.6702,-3.6705,-3.6745,-3.6768,-3.6745,-3.6722,-3.6702,-3.6702,-3.6602,-3.6502,-3.6687,-3.6626,-3.6419,-3.5989,-3.5627,-3.5069,-3.351,-3.2329,-3.1343,-3.0481,-2.9418,-2.8645,-2.9014,-2.9457,-2.9726,-2.9383,-2.9753,-2.9974,-2.9107,-2.8802,-2.8684,-2.8614,-2.8596,-2.8642,-2.8781,-2.8796,-2.8334,-2.698,-2.6695,-2.658,-2.658,-2.5964,-2.5749,-2.6318,-2.5379,-2.4835,-2.5266,-2.4409,-2.3657,-2.3187,-2.2296,-2.1503,-2.087,-2.05,-2.0194,-1.9974,-2.0075,-2.0125,-2.0125,-2.0125,-2.0376,-2.0855,-2.0882,-2.0567,-1.7816,-1.7485,-1.8555,-2.0164,-2.275,-2.5626,0.0,0.0,-3.2268,-3.3204,-3.3849,-3.4851,-3.6933,-3.7925,-3.9154,-4.1282,-4.2269,-4.2876,-4.3185,-4.2543,-4.1787,-4.1117,-3.9696,-3.8753,-3.8692,-3.867,-3.8559,-3.8289,-3.8303,-3.7982,-3.7245,-3.73,-3.7133,-3.6626,-3.6862,-3.6919,-3.6782,-3.7569,-3.7988,-3.7988,-3.795,-3.795,-3.7933,-3.7146,-3.6788,-3.6788,-3.6725,-3.6702,-3.6702,-3.6748,-3.6766,-3.6722,-3.6768,-3.6748,-3.6702,-3.6702,-3.6276,-3.581,-3.636,-3.6174,-3.5705,-3.5661,-3.5283,-3.4752,-3.4137,-3.3546,-3.3134,-3.3471,-3.261,-3.1728,-3.2233,-3.1595,-3.0831,-3.0782,-3.0486,-3.0101,-2.9741,-2.9169,-2.8839,-2.9206,-2.9279,-2.9464,-3.0063,-3.0171,-2.971,-2.8381,-2.7673,-2.7288,-2.7288,-2.6688,-2.6287,-2.6311,-2.6173,-2.5865,-2.5342,-2.5018,-2.4216,-2.2678,-2.203,-2.1269,-2.0321,-2.0511,-2.063,-2.0591,-2.1081,-2.1305,-2.1305,-2.1305,-2.133,-2.1393,-2.1531,-2.1228,-2.1201,-2.1144,-2.1937,0.0,-2.7331,-2.9966,-3.1846,-3.3766,-3.5365,-3.6223,-3.7408,-3.8773,-4.0294,-4.0489,-4.0961,0.0,-4.2488,-4.2433,-4.3369,-4.2396,-4.1311,-4.0535,-3.8591,-3.7309,-3.7353,-3.8053,-3.8042,-3.6926,-3.7525,-3.7721,-3.7226,-3.7687,-3.7837,-3.7513,-3.8032,-3.8339,-3.8339,-3.8655,-3.8813,-3.8813,-3.8813,-3.8547,-3.8093,-3.7673,-3.7493,-3.7493,-3.739,-3.7411,-3.7513,-3.7414,-3.7149,-3.6766,-3.6745,-3.6986,-3.7276,-3.6779,-3.6657,-3.6788,-3.7059,-3.7228,-3.7278,-3.6899,-3.659,-3.6209,-3.5248,-3.4938,-3.4901,-3.4816,-3.4223,-3.3514,-3.3112,-3.2683,-3.2075,-3.108,-3.1046,-3.108,-3.0514,-3.0136,-2.9928,-2.9961,-2.9971,-3.0063,-3.034,-3.0402,-3.0202,-2.9648,-2.8996,-2.8427,-2.8042,-2.7396,-2.6811,-2.6395,-2.6718,-2.648,-2.5389,-2.5615,-2.516,-2.3599,-2.3359,-2.2788,-2.1694,-2.1518,-2.1361,-2.1169,-2.1408,-2.1493,-2.1493,-2.1493,-2.1656,-2.197,-2.2015,-2.1901,-2.317,0.0,0.0,-2.844,-3.1329,-3.3746,-3.5144,-3.6658,-3.8074,-3.9154,-4.0271,-4.1317,-4.2161,-4.1644,-4.1535,-4.2928,-4.2194,-4.1919,-4.3313,-4.1919,-4.0469,-3.9693,-3.7467,-3.5754,-3.511,-3.6699,-3.7457,-3.6687,-3.7364,-3.7793,-3.7679,-3.817,-3.84,-3.83,-3.8944,-3.9284,-3.9284,-3.9533,-3.9638,-3.9638,-3.9638,-3.934,-3.876,-3.8467,-3.8359,-3.8359,-3.8217,-3.8241,-3.8365,-3.822,-3.7864,-3.7396,-3.7373,-3.7683,-3.8063,-3.7419,-3.7494,-3.794,-3.794,-3.8217,-3.8513,-3.8027,-3.7727,-3.7403,-3.6486,-3.6178,-3.6083,-3.5847,-3.5284,-3.4576,-3.3814,-3.352,-3.3091,-3.1701,-3.1716,-3.1887,-3.1207,-3.0931,-3.0777,-3.0695,-3.0689,-3.0786,-3.1155,-3.1063,-3.094,-3.094,-3.0397,-2.9643,-2.8796,-2.8088,-2.7488,-2.6995,-2.738,-2.7196,-2.5995,-2.6364,-2.6077,-2.4667,-2.4481,-2.3929,-2.2883,-2.245,-2.2056,-2.1719,-2.187,-2.1945,-2.1945,-2.1945,-2.2146,-2.2506,-2.2577,-2.2577,0.0,0.0,-2.6807,-3.0044,-3.3086,-3.5979,-3.8542,-3.984,-4.0962,-4.2686,-4.2626,-4.2251,-4.2286,-4.1644,-4.137,-4.2194,-4.2304,-4.2543,-4.3386,-4.1423,-3.9656,-3.8921,-3.6707,-3.4294,0.0,-3.4576,-3.7084,-3.8608,-3.8507,-3.8511,-3.8816,-3.8701,-3.8744,-3.907,-3.9224,-3.9284,-3.9284,-4.0059,-4.0467,-4.0467,-4.0467,-4.045,-4.0397,-3.9621,-3.9249,-3.9249,-3.9126,-3.9066,-3.9066,-3.9066,-3.9002,-3.8938,-3.9006,-3.9002,-3.8951,-3.8933,-3.8864,-3.8755,-3.8755,-3.8706,-3.8594,-3.8582,-3.8214,-3.7773,-3.7733,-3.7028,-3.6307,-3.6814,-3.5959,-3.4891,-3.4847,-3.4304,-3.3661,-3.3152,-3.261,-3.2106,-3.1815,-3.1259,-3.0902,-3.1308,-3.1378,-3.1767,-3.3075,-3.2767,-3.2336,-3.2336,-3.1767,-3.0859,-2.955,-2.8796,-2.8365,-2.835,-2.8365,-2.8088,-2.7396,-2.7349,-2.6856,-2.5616,-2.4835,-2.4044,-2.3211,-2.2939,-2.2614,-2.2284,-2.2782,-2.3058,-2.3058,-2.3058,-2.3058,-2.3083,-2.3275,-2.3245,-2.4147,0.0,-3.0851,-3.4551,-3.7036,-3.9122,-4.1216,-4.2032,-4.2341,-4.2376,-4.0648,-3.894,-3.8422,-3.7257,-3.6996,-3.8811,-3.8691,-3.9406,-4.2303,-3.9252,-3.7224,-3.8569,-3.6089,0.0,0.0,0.0,0.0,-3.562,-3.7299,-3.8492,-3.887,-3.9682,-4.0053,-3.9909,-4.0504,-4.0832,-4.0832,-4.1095,-4.1218,-4.1218,-4.0731,-4.0459,-4.0337,-3.9532,-3.9441,-3.9948,-3.9927,-3.9948,-4.0034,-4.0034,-3.9655,-3.9054,-3.9033,-3.9364,-3.984,-3.9646,-3.9998,-4.0431,-3.9753,-3.9886,-4.0221,-3.9645,-3.9341,-3.9038,-3.8142,-3.7636,-3.7383,-3.7297,-3.6666,-3.5932,-3.5373,-3.4892,-3.4226,-3.3061,-3.2831,-3.2752,-3.2288,-3.201,-3.189,-3.204,-3.2044,-3.2198,-3.2659,-3.2552,-3.2398,-3.2398,-3.1459,-3.0582,-3.0109,-2.9464,-2.9048,-2.9048,-2.8673,-2.8134,-2.7457,-2.7811,-2.7535,-2.6267,-2.6034,-2.5533,-2.4695,-2.4025,-2.3496,-2.3157,-2.3127,-2.3108,-2.3108,-2.3108,-2.3108,-2.3108,-2.3168,-2.3168,-2.7798,-3.1224,-3.4659,-3.829,-4.0185,-4.1504,-4.274,-4.2869,-4.2485,-4.1476,-3.9266,-3.7081,-3.5722,-3.4171,-3.3784,-3.5864,-3.5575,-3.6568,-4.0834,-3.8021,-3.6328,-3.845,-3.634,-3.5,0.0,0.0,0.0,-3.4921,-3.675,-3.8219,-3.8924,-3.9646,-4.0247,-4.074,-4.1314,-4.1604,-4.1604,-4.1604,-4.1604,-4.1604,-4.1113,-4.0863,-4.0758,-4.0232,-3.9966,-3.9944,-4.0464,-4.0416,-4.0009,-4.0591,-4.0478,-3.9922,-3.9936,-4.0233,-4.0669,-4.0513,-4.0849,-4.1311,-4.0624,-4.0608,-4.0827,-4.025,-3.9954,-3.9638,-3.8773,-3.8387,-3.8212,-3.7834,-3.7295,-3.6624,-3.583,-3.537,-3.4814,-3.3637,-3.3517,-3.3499,-3.2877,-3.2752,-3.269,-3.2444,-3.2398,-3.2475,-3.2721,-3.2967,-3.2967,-3.2475,-3.1874,-3.1201,-3.0494,-2.9802,-2.9294,-2.9073,-2.8673,-2.8227,-2.7796,-2.815,-2.8051,-2.724,-2.7049,-2.6584,-2.5714,-2.4951,-2.4263,-2.3628,-2.3378,-2.3228,-2.3108,-2.3108,-2.3108,-2.3108,-2.3108,-2.3108,-3.2268,-3.5516,-3.8132,-4.107,-4.2358,-4.2957,-4.3124,-4.2503,-4.1495,-4.0042,-3.829,-3.6287,-3.3928,-3.2158,-3.1648,-3.3427,-3.3114,-3.432,-3.9108,-3.7768,-3.6872,0.0,0.0,0.0,0.0,0.0,0.0,-3.6587,0.0,-3.7909,-3.9139,-3.8879,-3.9575,-4.1534,-4.1604,-4.1604,-4.1604,-4.1604,-4.1604,-4.1604,-4.1604,-4.1604,-4.1604,-4.1604,-4.0771,-3.941,-4.0796,-4.0542,-3.9234,-4.0787,-4.1403,-4.1426,-4.1538,-4.1515,-4.1403,-4.138,-4.138,-4.1318,-4.1169,-4.0825,-4.0424,-4.0375,-4.0028,-3.961,-3.9584,-3.9206,-3.8733,-3.8379,-3.7767,-3.7037,-3.6246,-3.5823,-3.5443,-3.4864,-3.4637,-3.4351,-3.3567,-3.3398,-3.3198,-3.2521,-3.2398,-3.2598,-3.3244,-3.3921,-3.395,-3.2644,-3.2982,-3.2705,-3.074,-2.991,-2.9258,-2.8581,-2.8473,-2.8442,-2.8411,-2.8411,-2.8411,-2.8411,-2.782,-2.7119,-2.624,-2.5659,-2.4782,-2.3628,-2.3573,-2.3412,-2.3108,-2.3108,-2.3108,-2.3108,-2.3108,-2.3108,-3.4073,-3.7546,-4.0942,-4.261,-4.3068,-4.3032,-4.2625,-4.1482,-3.9732,-3.693,-3.3189,-2.9684,-2.7221,-2.5975,-2.6613,-3.0574,-3.1635,0.0,-3.7526,-3.7063,0.0,-3.7694,0.0,-3.8287,-3.8631,-3.9632,0.0,0.0,-3.9124,-4.0003,-4.0627,-4.0942,-4.1199,-4.1453,-4.156,-4.1604,-4.1604,-4.1604,-4.1604,-4.1604,-4.1604,-4.1604,-4.1604,-4.1604,-4.1372,-4.1021,-4.1402,-4.131,-4.0955,-4.138,-4.1493,-4.1403,-4.1448,-4.1426,-4.138,-4.1238,-4.0913,-4.0525,-4.0209,-4.0366,-4.0611,-4.012,-3.9868,-3.9662,-3.9269,-3.899,-3.8694,-3.816,-3.786,-3.7526,-3.6653,-3.6625,-3.6451,-3.5161,-3.5052,-3.4921,-3.366,-3.3398,-3.3198,-3.2521,-3.2398,-3.2444,-3.2628,-3.2798,-3.2967,-3.3121,-3.329,-3.3029,-3.2028,-3.1305,-3.0628,-2.9956,-2.9433,-2.895,-2.8442,-2.8411,-2.8411,-2.8411,-2.782,-2.7119,-2.624,-2.5253,-2.4364,-2.3616,-2.3164,-2.2976,-2.3108,-2.3108,-2.3108,-2.3108,-2.3108,-2.3108,-3.8108,-4.0835,-4.3196,-4.3849,-4.3684,-4.2863,-4.113,-3.9231,-3.683,-3.3257,-2.9802,0.0,-2.4264,-2.3476,-2.4524,0.0,0.0,0.0,-3.5882,-3.636,-3.6746,0.0,-3.8814,0.0,-4.0852,-4.1744,-4.1836,0.0,-4.03,-4.0185,-4.0639,-4.0768,-4.0983,-4.1386,-4.1471,-4.1538,-4.1604,-4.1604,-4.1604,-4.1604,-4.1604,-4.1604,-4.1604,-4.1604,-4.1214,-4.0595,-4.1284,-4.1196,-4.0613,-4.1301,-4.156,-4.1493,-4.1363,-4.1272,-4.1238,-4.1006,-4.0717,-4.0383,-3.9647,-3.9672,-3.9944,-3.9229,-3.8897,-3.8712,-3.8562,-3.8355,-3.8144,-3.7889,-3.7714,-3.7472,-3.6916,-3.6882,-3.675,-3.5896,-3.5811,-3.563,-3.4552,-3.4306,-3.4029,-3.3029,-3.2598,-3.2398,-3.2398,-3.2644,-3.2859,-3.2952,-3.3475,-3.3506,-3.2521,-3.2059,-3.1351,-3.0094,-2.9617,-2.9135,-2.8473,-2.8411,-2.8411,-2.8411,-2.8073,-2.7504,-2.6625,-2.5726,-2.4847,-2.4002,-2.3412,-2.309,-2.3108,-2.3108,-2.3108,-2.3108,-2.3108,-2.3108,-4.256,-4.4176,-4.4837,-4.4728,-4.4011,-4.254,-3.9415,-3.6613,-3.3545,-2.9669,0.0,-2.5439,-2.34,-2.3124,-2.4265,-2.7532,0.0,-3.0641,-3.4152,-3.5882,-3.7224,-3.8354,-3.9503,-4.0796,-4.2355,-4.2993,-4.3361,-4.3513,-4.1087,-3.9806,-4.028,-3.9802,-4.0118,-4.1351,-4.1426,-4.1493,-4.1604,-4.1604,-4.1604,-4.1604,-4.1604,-4.1604,-4.1604,-4.1604,-4.0841,-3.9606,-4.1003,-4.0806,-3.9641,-4.1021,-4.1604,-4.1582,-4.1346,-4.1198,-4.1093,-4.0864,-4.0697,-4.0395,-3.9279,-3.8914,-3.8772,-3.8117,-3.7677,-3.7431,-3.774,-3.7623,-3.7417,-3.7596,-3.7403,-3.7164,-3.6984,-3.6831,-3.6693,-3.6693,-3.6569,-3.6307,-3.563,-3.5444,-3.5028,-3.3783,-3.2998,-3.2521,-3.2521,-3.2936,-3.3106,-3.2613,-3.3552,-3.3919,-3.269,-3.2521,-3.1797,-2.9874,-2.9597,-2.9248,-2.8596,-2.8458,-2.8411,-2.8411,-2.8323,-2.786,-2.6979,-2.6328,-2.5452,-2.4337,-2.3761,-2.3361,-2.3108,-2.3108,-2.3108,-2.3108,-2.3108,-2.3108,-4.3313,-4.4562,-4.5535,-4.4856,-4.3642,-4.191,-3.9292,-3.5381,0.0,0.0,-2.482,-2.2669,-2.22,-2.2718,-2.4478,-2.8355,0.0,0.0,0.0,0.0,-3.8815,0.0,0.0,0.0,0.0,0.0,0.0,0.0,-4.2391,-4.1705,-4.1808,-4.1143,-4.0983,-4.1403,-4.1515,-4.1582,-4.1604,-4.1604,-4.1604,-4.1604,-4.1604,-4.1604,-4.1604,-4.1604,-4.1464,-4.1196,-4.1481,-4.1424,-4.1214,-4.1477,-4.1604,-4.1604,-4.156,-4.1386,-4.118,-4.1117,-4.0538,-3.9671,-3.8794,-3.8161,-3.7679,-3.7533,-3.746,-3.7417,-3.7476,-3.7447,-3.7387,-3.7314,-3.7254,-3.7134,-3.6816,-3.6723,-3.6662,-3.6554,-3.6523,-3.6307,-3.563,-3.5075,-3.4597,-3.4366,-3.3706,-3.3229,-3.3229,-3.2859,-3.2721,-3.3167,-3.3429,-3.3506,-3.326,-3.3229,-3.2675,-3.1197,-3.0566,-2.9956,-2.9279,-2.8719,-2.8411,-2.8411,-2.7934,-2.717,-2.6065,-2.5224,-2.4338,-2.3352,-2.3025,-2.2925,-2.3108,-2.3108,-2.3108,-2.3108,-2.3108,-2.3108,-4.3608,-4.4672,-4.581,-4.5424,-4.3549,-4.0693,-3.6558,0.0,0.0,0.0,-2.2094,-2.0745,-2.0704,0.0,0.0,0.0,0.0,0.0,0.0,0.0,0.0,0.0,0.0,0.0,0.0,0.0,-4.1549,-4.231,-4.1486,-4.1321,-4.2162,-4.1498,-4.1146,-4.1295,-4.1426,-4.1538,-4.1604,-4.1604,-4.1604,-4.1604,-4.1604,-4.1604,-4.1604,-4.1604,-4.1604,-4.1604,-4.1604,-4.1126,-4.0416,-4.1249,-4.1108,-4.0416,-4.1116,-4.13,-4.1186,-4.1088,-4.0621,-3.9919,-3.8918,-3.8246,-3.7767,-3.7148,-3.6922,-3.6952,-3.715,-3.7089,-3.6952,-3.7059,-3.6968,-3.6816,-3.6631,-3.6616,-3.6569,-3.6523,-3.6492,-3.6399,-3.6076,-3.5506,-3.4921,-3.4566,-3.3891,-3.329,-3.2936,-3.2613,-3.2505,-3.2829,-3.3183,-3.3275,-3.2921,-3.3183,-3.289,-3.1547,-3.0812,-3.0125,-2.9448,-2.8796,-2.8259,-2.7959,-2.7655,-2.7067,-2.6094,-2.5176,-2.4428,-2.3842,-2.3216,-2.298,-2.3108,-2.3108,-2.3108,-2.3108,-2.3108,-2.3108,-4.3993,-4.4929,-4.5865,-4.5681,-4.329,-3.9565,-3.4239,-3.0305,0.0,0.0,-2.027,-1.9694,-2.004,0.0,0.0,0.0,0.0,0.0,0.0,0.0,0.0,0.0,0.0,0.0,0.0,0.0,0.0,-4.1603,-4.0705,-4.0692,-4.1853,-4.1386,-4.1123,-4.118,-4.1318,-4.1448,-4.156,-4.1582,-4.1604,-4.1604,-4.1604,-4.1604,-4.1604,-4.1604,-4.1604,-4.1604,-4.1604,-4.0683,-3.9343,-4.0885,-4.0583,-3.9272,-4.0595,-4.1094,-4.1024,-4.0806,-4.0517,-4.0062,-3.8924,-3.8318,-3.7924,-3.6861,-3.6492,-3.6554,-3.6816,-3.6724,-3.6554,-3.6816,-3.6693,-3.6492,-3.6492,-3.6492,-3.6492,-3.6492,-3.6492,-3.6492,-3.6492,-3.6076,-3.5568,-3.5044,-3.4214,-3.346,-3.2936,-3.2598,-3.2398,-3.2398,-3.2844,-3.2998,-3.2459,-3.2859,-3.2782,-3.1747,-3.1012,-3.0325,-2.9664,-2.9012,-2.8314,-2.7555,-2.7373,-2.6964,-2.6149,-2.5259,-2.4654,-2.4321,-2.3573,-2.3168,-2.3108,-2.3108,-2.3108,-2.3108,-2.3108,-2.3108,-4.4911,-4.5792,-4.5718,-4.5002,-4.2496,-3.9073,-3.4765,0.0,0.0,-2.2523,-2.063,-2.004,-2.1422,-2.1803,-2.3229,0.0,0.0,-2.8444,0.0,0.0,0.0,0.0,0.0,0.0,0.0,0.0,0.0,-4.2848,-4.193,-4.1261,-4.1041,-4.1053,-4.1093,-4.1117,-4.1307,-4.1403,-4.1426,-4.1538,-4.1604,-4.1604,-4.1604,-4.1604,-4.1604,-4.1604,-4.1604,-4.1604,-4.1604,-4.0705,-3.9385,-4.0695,-4.0326,-3.9064,-4.0406,-4.0776,-4.0517,-4.0195,-3.9765,-3.9189,-3.8222,-3.7722,-3.7371,-3.6723,-3.6492,-3.6523,-3.6523,-3.6523,-3.6523,-3.6523,-3.6523,-3.6492,-3.6492,-3.6492,-3.6492,-3.6492,-3.6492,-3.6492,-3.6492,-3.6445,-3.6384,-3.6322,-3.529,-3.4382,-3.432,-3.3244,-3.2398,-3.2398,-3.2444,-3.2459,-3.2398,-3.2444,-3.2444,-3.2321,-3.1705,-3.1028,-3.0371,-2.9679,-2.8778,-2.7585,-2.7041,-2.6388,-2.5508,-2.4866,-2.4263,-2.3675,-2.3599,-2.3407,-2.3108,-2.3108,-2.3108,-2.3108,-2.3108,-2.3108,-4.1222,-4.3332,-4.4984,-4.4176,-4.1282,-3.7446,-3.2803,0.0,-2.5095,-2.1294,-2.004,-1.9936,-2.1045,-2.1249,-2.2409,0.0,0.0,0.0,0.0,0.0,0.0,0.0,0.0,0.0,0.0,0.0,-4.1246,-4.1288,-4.0812,-4.068,-4.1001,-4.0982,-4.1023,-4.1093,-4.1186,-4.1284,-4.1403,-4.1448,-4.1515,-4.1604,-4.1604,-4.1604,-4.1604,-4.1604,-4.1498,-4.1363,-4.1363,-3.9922,-3.7784,-4.0082,-3.9604,-3.7667,-3.959,-4.0286,-4.012,-3.9604,-3.9186,-3.8789,-3.8064,-3.7605,-3.7298,-3.6693,-3.6492,-3.6492,-3.6492,-3.6492,-3.6492,-3.6492,-3.6492,-3.6492,-3.6492,-3.6492,-3.6492,-3.6492,-3.6492,-3.6492,-3.6492,-3.6492,-3.6368,-3.5968,-3.5475,-3.4844,-3.3967,-3.3367,-3.2859,-3.2459,-3.2398,-3.2398,-3.2398,-3.2398,-3.2398,-3.2398,-3.1782,-3.1274,-3.1028,-3.0027,-2.888,-2.7697,-2.7053,-2.6228,-2.5203,-2.4723,-2.4321,-2.3897,-2.3704,-2.3437,-2.3108,-2.3108,-2.3108,-2.3108,-2.3108,-2.3108,-3.8083,-4.1111,-4.3864,-4.3277,-4.0197,-3.6067,0.0,0.0,-2.4249,-2.0388,-1.9794,-2.0128,-2.0697,-2.0994,-2.2145,0.0,0.0,-2.6729,0.0,0.0,0.0,0.0,0.0,0.0,0.0,-4.164,-4.1341,-4.0693,-4.0397,-4.0496,-4.1065,-4.0959,-4.0935,-4.1047,-4.107,-4.1169,-4.134,-4.138,-4.1471,-4.1604,-4.1604,-4.1358,-4.0937,-4.1327,-4.1141,-4.0525,-4.0949,-3.9574,-3.7266,-3.9755,-3.9284,-3.7201,-3.9046,-3.9749,-3.9655,-3.8831,-3.8437,-3.8234,-3.7618,-3.7312,-3.7074,-3.6631,-3.6492,-3.6492,-3.6492,-3.6492,-3.6492,-3.6492,-3.6492,-3.6492,-3.6492,-3.6492,-3.6492,-3.6492,-3.6492,-3.6492,-3.6492,-3.6492,-3.6353,-3.5876,-3.566,-3.5106,-3.3921,-3.3537,-3.3167,-3.249,-3.2398,-3.2398,-3.2398,-3.2398,-3.2398,-3.2398,-3.1967,-3.1624,-3.1424,-3.0535,-2.9397,-2.8027,-2.7348,-2.6496,-2.5314,-2.4878,-2.4465,-2.4102,-2.3868,-2.3526,-2.3108,-2.3108,-2.3108,-2.3108,-2.3108,-2.3108,-3.6629,-3.9863,-4.2323,-4.2304,-3.935,-3.5348,0.0,0.0,-2.3589,-2.0277,-2.0233,-2.079,-2.079,-2.1458,-2.2778,-2.5208,-2.6215,0.0,0.0,0.0,0.0,0.0,0.0,0.0,-4.2345,-4.2595,-4.2388,-4.1927,-4.1391,-4.1076,-4.1093,-4.0959,-4.0912,-4.0912,-4.1047,-4.1123,-4.1209,-4.134,-4.1471,-4.1604,-4.1604,-4.0814,-3.9371,-4.0642,-4.0351,-3.9008,-4.0331,-3.9991,-3.8579,-3.9932,-3.9597,-3.825,-3.8955,-3.9206,-3.9055,-3.7854,-3.7417,-3.7328,-3.6723,-3.6523,-3.6523,-3.6492,-3.6492,-3.6492,-3.6492,-3.6492,-3.6492,-3.6492,-3.6492,-3.6492,-3.6492,-3.6492,-3.6492,-3.6492,-3.6492,-3.6492,-3.6492,-3.6492,-3.6492,-3.6476,-3.5938,-3.529,-3.4613,-3.3875,-3.3167,-3.249,-3.2398,-3.2398,-3.2398,-3.2398,-3.2398,-3.2398,-3.2382,-3.2105,-3.147,-3.1393,-3.0555,-2.8603,-2.7998,-2.7144,-2.5949,-2.5314,-2.4708,-2.4102,-2.4102,-2.378,-2.3108,-2.3108,-2.3108,-2.3108,-2.3108,-2.3108,-3.0295,-3.286,-3.4784,-3.4246,-3.2778,-3.0556,-2.7007,0.0,-2.3007,-2.0871,-2.0622,-2.1142,-2.2237,-2.22,-2.2963,-2.5949,-2.6122,0.0,0.0,0.0,0.0,0.0,0.0,0.0,0.0,0.0,-4.1633,-4.1943,-4.0782,-4.0398,-4.1128,-4.1134,-4.1041,-4.0894,-4.1047,-4.1123,-4.1209,-4.134,-4.1471,-4.1604,-4.1408,-4.0604,-3.9336,-4.048,-4.0141,-3.8691,-4.0057,-3.975,-3.8396,-3.9683,-3.9174,-3.7649,-3.8327,-3.8322,-3.7854,-3.7074,-3.6785,-3.6754,-3.6585,-3.6492,-3.6492,-3.6492,-3.6492,-3.6492,-3.6492,-3.6492,-3.6492,-3.6492,-3.6492,-3.6492,-3.6492,-3.6492,-3.6492,-3.6492,-3.6492,-3.6492,-3.6492,-3.6492,-3.6492,-3.6492,-3.6322,-3.5953,-3.5306,-3.4613,-3.3919,-3.3183,-3.269,-3.2398,-3.2398,-3.2398,-3.2398,-3.2398,-3.2247,-3.2099,-3.209,-3.1094,-2.984,-2.8455,-2.7134,-2.5882,-2.4736,-2.4666,-2.4465,-2.4102,-2.4102,-2.3868,-2.3437,-2.3198,-2.3108,-2.3108,-2.3108,-2.3108,0.0,-2.8911,-3.0889,-3.0392,-2.9248,0.0,0.0,0.0,-2.1988,-2.0994,-2.1272,-2.2015,-2.3017,-2.3304,-2.3945,-2.5662,-2.6475,0.0,0.0,0.0,0.0,0.0,0.0,0.0,0.0,-4.1869,-4.1517,-4.1686,-4.0807,-4.0551,-4.118,-4.118,-4.1129,-4.1035,-4.1082,-4.1175,-4.1255,-4.1363,-4.1471,-4.1604,-4.134,-4.0476,-3.9188,-4.0274,-3.9886,-3.846,-3.9771,-3.9793,0.0,-3.9531,-3.9066,-3.8017,-3.7966,-3.7738,-3.7328,-3.6723,-3.6492,-3.6492,-3.6492,-3.6492,-3.6492,-3.6492,-3.6492,-3.6492,-3.6492,-3.6492,-3.6492,-3.6492,-3.6492,-3.6492,-3.6492,-3.6492,-3.6492,-3.6492,-3.6492,-3.6492,-3.6492,-3.6492,-3.6492,-3.6492,-3.6492,-3.6276,-3.5629,-3.4951,-3.4258,-3.3506,-3.2829,-3.2398,-3.2398,-3.2398,-3.2398,-3.2398,-3.2163,-3.2066,-3.2247,-3.1007,-2.9719,-2.8495,-2.7002,-2.5647,-2.4452,-2.4366,-2.4205,-2.3927,-2.3897,-2.3763,-2.3407,-2.3198,-2.3108,-2.3108,-2.3108,-2.3108,0.0,0.0,0.0,0.0,0.0,0.0,0.0,0.0,0.0,0.0,-2.2293,-2.3388,-2.3454,-2.4835,-2.5699,-2.4872,0.0,0.0,0.0,0.0,0.0,0.0,0.0,0.0,-4.1136,-4.1799,-4.1945,-4.126,-4.134,-4.1363,-4.1232,-4.1169,-4.1169,-4.1232,-4.1232,-4.1277,-4.1403,-4.1403,-4.1418,-4.1446,-4.1248,-4.0334,-3.8782,-3.9948,-3.9641,-3.8263,-3.9544,-4.0096,-4.0045,-3.9444,-3.9179,-3.9001,-3.7854,-3.7387,-3.7268,-3.6723,-3.6492,-3.6492,-3.6492,-3.6492,-3.6492,-3.6492,-3.6492,-3.6492,-3.6492,-3.6492,-3.6492,-3.6492,-3.6492,-3.6492,-3.6492,-3.6492,-3.6492,-3.6492,-3.6492,-3.6492,-3.6492,-3.6492,-3.6492,-3.6492,-3.6492,-3.6276,-3.5629,-3.4998,-3.4305,-3.3521,-3.2875,-3.2444,-3.2398,-3.2398,-3.2398,-3.2398,-3.2135,-3.1968,-3.1968,-3.1095,-2.9987,-2.858,-2.7399,-2.6161,-2.4824,-2.4337,-2.3927,-2.3628,-2.3599,-2.3437,-2.3108,-2.3108,-2.3108,-2.3108,-2.3108,-2.3108,-2.149,0.0,-2.3768,-2.3768,-2.3851,0.0,0.0,0.0,0.0,0.0,0.0,0.0,0.0,0.0,0.0,0.0,0.0,0.0,0.0,0.0,0.0,0.0,-4.0714,-4.1886,-4.0524,-4.1477,-4.1966,-4.1386,-4.1493,-4.1475,-4.1363,-4.1426,-4.1493,-4.1515,-4.1498,-4.1453,-4.1403,-4.1493,-4.0981,-3.9845,-4.0619,-3.9616,-3.721,-3.9255,-3.9472,-3.8263,-3.9544,-4.0096,-4.0045,-3.9444,-3.8947,-3.8435,-3.7679,-3.7134,-3.6693,-3.6554,-3.6492,-3.6492,-3.6492,-3.6492,-3.6492,-3.6492,-3.6492,-3.6492,-3.6492,-3.6492,-3.6492,-3.6492,-3.6492,-3.6492,-3.6492,-3.6492,-3.6492,-3.6492,-3.6492,-3.6492,-3.6492,-3.6492,-3.6492,-3.6492,-3.6492,-3.6276,-3.5629,-3.5383,-3.4829,-3.3583,-3.3275,-3.2982,-3.2459,-3.2398,-3.2398,-3.2398,-3.1923,-3.161,-3.161,-3.0754,-2.9477,-2.7722,-2.6671,-2.5329,-2.3603,-2.3632,-2.3675,-2.3599,-2.3599,-2.3437,-2.3108,-2.3108,-2.3108,-2.3108,-2.3108,-2.3108,-2.1581,-2.1762,-2.1975,-2.2729,-2.271,-2.2589,0.0,0.0,0.0,0.0,0.0,0.0,0.0,0.0,0.0,0.0,0.0,0.0,0.0,0.0,0.0,0.0,-3.954,-4.0636,0.0,-4.1248,-4.1792,-4.1498,-4.156,-4.156,-4.1493,-4.1493,-4.1538,-4.1604,-4.1538,-4.1515,-4.1493,-4.156,-4.0832,-3.9301,-4.0377,-3.9715,-3.753,-3.9289,-3.9705,-3.9057,-3.9071,-3.932,-3.9594,-3.8319,-3.7822,-3.7825,-3.7238,-3.6785,-3.6492,-3.6492,-3.6492,-3.6492,-3.6492,-3.6492,-3.6492,-3.6492,-3.6492,-3.6492,-3.6492,-3.6492,-3.6492,-3.6492,-3.6492,-3.6492,-3.6492,-3.6492,-3.6492,-3.6492,-3.6492,-3.6492,-3.6492,-3.6492,-3.6492,-3.6492,-3.6245,-3.5953,-3.5568,-3.526,-3.4797,-3.3998,-3.3614,-3.3383,-3.338,-3.2782,-3.2505,-3.2829,-3.2033,-3.1508,-3.1508,-3.0762,-2.9405,-2.7248,-2.6335,-2.505,-2.3193,-2.3258,-2.3378,-2.3378,-2.3378,-2.3288,-2.3108,-2.3108,-2.3108,-2.3108,-2.3108,-2.3108,-2.2821,-2.2746,-2.2684,-2.4052,-2.3263,-2.2573,0.0,0.0,0.0,0.0,0.0,0.0,0.0,0.0,0.0,0.0,0.0,0.0,0.0,0.0,0.0,0.0,-3.7849,0.0,-4.0185,-4.11,-4.1604,-4.1604,-4.1604,-4.1604,-4.1604,-4.1493,-4.1493,-4.1604,-4.1493,-4.1493,-4.1604,-4.1604,-4.0832,-3.9301,-4.0422,-4.0083,-3.8544,-3.9647,-4.0121,-4.0045,-3.867,-3.8522,-3.9053,-3.7107,-3.6725,-3.7328,-3.6723,-3.6492,-3.6492,-3.6492,-3.6492,-3.6492,-3.6492,-3.6492,-3.6492,-3.6492,-3.6492,-3.6492,-3.6492,-3.6492,-3.6492,-3.6492,-3.6492,-3.6492,-3.6492,-3.6492,-3.6492,-3.6492,-3.6492,-3.6492,-3.6492,-3.6492,-3.6492,-3.6492,-3.603,-3.5599,-3.5537,-3.5121,-3.4751,-3.4536,-3.4073,-3.386,-3.4289,-3.3275,-3.2721,-3.3198,-3.2256,-3.1508,-3.1349,-3.0837,-2.9435,-2.6897,-2.6296,-2.5143,-2.3193,-2.3108,-2.3108,-2.3108,-2.3108,-2.3108,-2.3108,-2.3108,-2.3108,-2.3138,-2.3108,-2.3108,-2.2968,-2.3999,-2.4974,-2.5164,-2.453,-2.409,0.0,0.0,0.0,0.0,0.0,0.0,0.0,0.0,0.0,0.0,0.0,0.0,0.0,0.0,-3.8895,-3.819,0.0,-4.1446,-3.9963,-4.0888,-4.1604,-4.1604,-4.1604,-4.1604,-4.1604,-4.1582,-4.1582,-4.1604,-4.1582,-4.1582,-4.1604,-4.1604,-4.0832,-3.9301,-4.0563,-4.021,-3.8527,-3.9857,-4.0296,-4.007,-3.9332,-3.9086,-3.9109,-3.7757,-3.727,-3.7328,-3.6723,-3.6492,-3.6492,-3.6492,-3.6492,-3.6492,-3.6492,-3.6492,-3.6492,-3.6492,-3.6492,-3.6492,-3.6492,-3.6492,-3.6492,-3.6492,-3.6492,-3.6492,-3.6492,-3.6492,-3.6492,-3.6492,-3.6492,-3.6492,-3.6492,-3.6492,-3.6492,-3.6492,-3.6415,-3.6153,-3.5614,-3.5876,-3.5799,-3.4674,-3.4905,-3.4783,-3.3706,-3.3383,-3.3059,-3.2598,-3.2168,-3.1581,-3.0719,-3.0315,-2.8923,-2.6149,-2.6462,-2.5641,-2.3206,-2.3108,-2.3108,-2.3108,-2.3108,-2.3108,-2.3108,-2.3108,-2.3198,-2.336,-2.3168,-2.3198,-2.3445,-2.4182,-2.5083,-2.6237,-2.601,-2.6074,0.0,0.0,0.0,0.0,0.0,0.0,0.0,0.0,0.0,0.0,0.0,-3.6342,-3.7491,-3.8484,-3.8912,0.0,0.0,-4.076,-3.9848,-4.0867,-4.1604,-4.1604,-4.1604,-4.1604,-4.1604,-4.1604,-4.1604,-4.1604,-4.12,-4.12,-4.1604,-4.1051,-4.0281,-3.9301,-4.0473,-4.0135,-3.8544,-3.9744,-4.0238,-4.0037,-3.8611,-3.8276,-3.8564,-3.6896,-3.6489,-3.6892,-3.66,-3.6492,-3.6492,-3.6492,-3.6492,-3.6492,-3.6492,-3.6492,-3.6492,-3.6492,-3.6492,-3.6492,-3.6492,-3.6492,-3.6492,-3.6492,-3.6492,-3.6492,-3.6492,-3.6492,-3.6492,-3.6492,-3.6492,-3.6492,-3.6492,-3.6492,-3.6492,-3.6492,-3.6199,-3.5845,-3.5568,-3.5768,-3.5737,-3.5136,-3.5306,-3.5275,-3.4614,-3.3875,-3.329,-3.2967,-3.1876,-3.0999,-3.0526,-2.9676,-2.821,-2.5931,-2.5197,-2.4309,-2.315,-2.3198,-2.3271,-2.3271,-2.3318,-2.3378,-2.3378,-2.3378,-2.342,-2.3509,-2.342,-2.339,-2.3735,-2.4115,-2.4797,-2.6727,0.0,0.0,0.0,0.0,0.0,0.0,0.0,0.0,0.0,0.0,0.0,0.0,-3.6868,-3.8648,-3.8888,-3.9114,-3.9258,-3.929,-3.9872,-4.0268,-4.0228,-4.1075,-4.1604,-4.1604,-4.1446,-4.1411,-4.1587,-4.1271,-4.1148,-4.1341,-4.0604,-4.0459,-4.0994,-4.0241,-3.98,-3.9742,-4.0337,-4.0054,-3.8992,-3.963,-3.9918,-3.9783,-3.8055,-3.759,-3.7958,-3.6235,-3.5898,-3.6492,-3.6492,-3.6492,-3.6492,-3.6492,-3.6492,-3.6492,-3.6492,-3.6492,-3.6492,-3.6492,-3.6492,-3.6492,-3.6492,-3.6492,-3.6492,-3.6492,-3.6492,-3.6492,-3.6492,-3.6492,-3.6492,-3.6492,-3.6492,-3.6492,-3.6492,-3.6492,-3.6492,-3.6492,-3.6076,-3.5722,-3.5722,-3.5722,-3.5722,-3.5722,-3.5722,-3.5691,-3.5537,-3.4414,-3.3569,-3.3343,-3.1678,-3.0392,-2.9924,-2.8629,-2.7186,-2.5712,-2.4035,-2.3108,-2.3168,-2.333,-2.3403,-2.3463,-2.3539,-2.3599,-2.3599,-2.3599,-2.3628,-2.3658,-2.3628,-2.3569,-2.3577,-2.419,-2.4998,-2.6034,-2.5333,0.0,0.0,0.0,0.0,0.0,0.0,0.0,0.0,0.0,0.0,0.0,-3.7794,-3.9287,-4.2357,0.0,-4.2254,-4.196,-4.1986,-4.1869,-4.1495,-4.1556,-4.1604,-4.1604,-4.0976,-4.0889,-4.1569,-4.0253,-3.9814,-4.0555,-3.9796,-3.9322,-3.9203,-3.9129,-3.9752,-4.1058,-4.0216,-3.9995,-4.0346,-3.9717,-3.9386,-3.9216,-3.8515,-3.7914,-3.7401,-3.6707,-3.643,-3.6492,-3.6492,-3.6492,-3.6492,-3.6492,-3.6492,-3.6492,-3.6492,-3.6492,-3.6492,-3.6492,-3.6492,-3.6492,-3.6492,-3.6492,-3.6492,-3.6492,-3.6492,-3.6492,-3.6492,-3.6492,-3.6492,-3.6492,-3.6492,-3.6492,-3.6492,-3.6492,-3.6492,-3.6492,-3.6445,-3.6415,-3.6415,-3.6415,-3.6415,-3.6415,-3.6415,-3.6184,-3.5598,-3.4874,-3.4065,-3.3146,-3.1736,-3.0122,-2.8258,-2.6699,-2.5582,-2.5084,-2.3833,-2.3168,-2.3373,-2.3403,-2.3463,-2.3569,-2.3599,-2.3599,-2.3599,-2.3599,-2.37,-2.3861,-2.3688,-2.3688,-2.3445,-2.3851,-2.4672,-2.6248,0.0,0.0,0.0,0.0,-2.9332,-3.3427,-3.2821,0.0,0.0,0.0,0.0,-3.7355,-3.9153,-4.0781,-4.2517,-4.2498,-4.2295,-4.2216,-4.1984,-4.1766,-4.1626,-4.1183,-4.0924,-4.0924,-4.0182,-3.9884,-4.0143,-3.9638,-3.9445,-3.9743,-3.8846,-3.8566,-3.8986,-3.8195,-3.8315,-3.933,-3.8946,-3.887,-3.9067,-3.8646,-3.8487,-3.8484,-3.7894,-3.7539,-3.7358,-3.6754,-3.6492,-3.6492,-3.6492,-3.6492,-3.6492,-3.6492,-3.6492,-3.6492,-3.6492,-3.6492,-3.6492,-3.6492,-3.6492,-3.6492,-3.6492,-3.6492,-3.6492,-3.6492,-3.6492,-3.6492,-3.6492,-3.6492,-3.6492,-3.6492,-3.6492,-3.6492,-3.6492,-3.6492,-3.6492,-3.6492,-3.6492,-3.6492,-3.6492,-3.6492,-3.6492,-3.6492,-3.6492,-3.6183,-3.5309,-3.4606,-3.3637,-3.2167,-3.0218,-2.8534,-2.7271,-2.6314,-2.5788,-2.5748,-2.45,-2.3728,-2.3522,-2.3641,-2.373,-2.3802,-2.3878,-2.3907,-2.3907,-2.3907,-2.3936,-2.4037,-2.3936,-2.3907,-2.323,-2.3417,-2.4112,0.0,0.0,0.0,0.0,0.0,0.0,-3.4775,-3.4521,0.0,0.0,0.0,0.0,0.0,-3.9552,-4.1196,-4.2179,-4.211,-4.1977,-4.2005,-4.1766,-4.1604,-4.1604,-4.092,-4.0502,-4.0502,-3.9515,-3.902,-3.9284,-3.8848,-3.8649,-3.8814,-3.7917,-3.7652,-3.8062,-3.7195,-3.6956,-3.7382,-3.7382,-3.7637,-3.8091,-3.7563,-3.7378,-3.7462,-3.6875,-3.6596,-3.6446,-3.6028,-3.5984,-3.6168,-3.6168,-3.6307,-3.6492,-3.6492,-3.6492,-3.6492,-3.6492,-3.6492,-3.6461,-3.6245,-3.6168,-3.6168,-3.6168,-3.6168,-3.6215,-3.643,-3.6492,-3.6492,-3.6492,-3.6492,-3.6492,-3.6492,-3.6492,-3.6492,-3.6492,-3.6492,-3.6492,-3.6492,-3.6492,-3.6492,-3.6492,-3.6492,-3.6492,-3.6492,-3.6398,-3.6105,-3.5413,-3.447,-3.3019,-3.0867,-2.916,-2.7789,-2.6782,-2.6405,-2.6258,-2.6257,-2.5403,-2.4617,-2.397,-2.4077,-2.4179,-2.4252,-2.4327,-2.4478,-2.4631,-2.4478,-2.4387,-2.4387,-2.4204,-2.4158,-2.2924,-2.2906,-2.3349,0.0,0.0,0.0,0.0,0.0,0.0,-3.6016,0.0,-3.6373,-3.565,0.0,0.0,-3.7417,-3.8784,-4.0208,-4.169,-4.1723,-4.1604,-4.1604,-4.1604,-4.1587,-4.1587,-4.0902,-4.0467,-4.0467,-3.8989,-3.8424,-3.9196,-3.7812,-3.7241,-3.777,-3.705,-3.6461,-3.5997,-3.598,-3.5849,-3.5583,-3.5583,-3.6377,-3.7831,-3.656,-3.6049,-3.6163,-3.5621,-3.5036,-3.4505,-3.4505,-3.489,-3.5506,-3.5506,-3.5922,-3.6476,-3.6492,-3.6492,-3.6492,-3.6492,-3.6492,-3.6384,-3.5737,-3.5506,-3.5506,-3.5506,-3.5476,-3.566,-3.6292,-3.6492,-3.6492,-3.6492,-3.6492,-3.6492,-3.6492,-3.6492,-3.6492,-3.6492,-3.6492,-3.6492,-3.6492,-3.6492,-3.6492,-3.6492,-3.6492,-3.6492,-3.6492,-3.6195,-3.6005,-3.5958,-3.4526,-3.2335,-2.9317,-2.8871,-2.8222,-2.6816,-2.6909,-2.6848,-2.6446,-2.6407,-2.589,-2.4745,-2.4706,-2.4797,-2.5005,-2.5005,-2.5262,-2.5793,-2.5249,-2.4992,-2.4992,-2.4387,-2.4426,-2.416,-2.3855,0.0,0.0,0.0,0.0,0.0,0.0,0.0,0.0,0.0,-3.5903,-3.616,0.0,0.0,-3.7956,-3.8843,-3.9916,-4.1336,-4.1582,-4.1604,-4.1604,-4.113,-4.0836,-4.0836,-3.9603,-3.8585,-3.8078,-3.7604,-3.6972,-3.611,-3.5994,-3.6035,-3.618,-3.5186,-3.508,-3.598,-3.4785,-3.4384,-3.4827,-3.4827,-3.5351,-3.6276,-3.5502,-3.5227,-3.5334,-3.4802,-3.4538,-3.4505,-3.4505,-3.4628,-3.4844,-3.5321,-3.5599,-3.583,-3.6322,-3.6492,-3.6492,-3.6492,-3.6492,-3.6384,-3.5737,-3.5506,-3.5429,-3.4951,-3.5136,-3.5552,-3.5752,-3.6122,-3.6492,-3.6492,-3.6492,-3.6492,-3.6492,-3.6492,-3.6492,-3.6492,-3.6492,-3.6492,-3.6492,-3.6492,-3.6492,-3.6492,-3.6492,-3.6429,-3.6163,-3.6068,-3.5498,-3.4064,-3.24,-3.062,-2.8839,-2.7868,-2.7209,-2.693,-2.7113,-2.7204,-2.7189,-2.7176,-2.6668,-2.5509,-2.5457,-2.5501,-2.5563,-2.5563,-2.5654,-2.5793,-2.5249,-2.4992,-2.4992,-2.4822,-2.4835,-2.483,0.0,0.0,0.0,0.0,0.0,0.0,0.0,0.0,0.0,0.0,-3.7274,-3.7628,-3.7841,0.0,-3.8183,-3.886,-3.9638,-4.0377,-4.0604,-4.0691,-4.0691,-4.0288,-4.0007,-4.0007,-3.8866,-3.7795,-3.706,-3.6765,-3.6062,-3.4776,-3.496,-3.5033,-3.4914,-3.4197,-3.4178,-3.4959,-3.391,-3.3626,-3.4066,-3.4066,-3.4329,-3.4834,-3.4589,-3.4513,-3.4565,-3.3803,-3.355,-3.3673,-3.3673,-3.3827,-3.412,-3.4506,-3.5028,-3.5568,-3.5938,-3.6261,-3.6492,-3.6492,-3.6492,-3.6338,-3.5429,-3.5106,-3.4982,-3.4289,-3.4337,-3.4768,-3.5322,-3.5799,-3.6153,-3.6415,-3.6492,-3.6492,-3.6492,-3.6492,-3.6492,-3.6492,-3.6492,-3.6492,-3.6492,-3.6492,-3.6492,-3.6492,-3.6492,-3.6429,-3.6241,-3.5958,-3.5078,-3.3247,-3.1958,-3.0516,-2.8692,-2.7934,-2.7377,-2.7024,-2.718,-2.7369,-2.749,-2.749,-2.719,-2.6498,-2.6282,-2.6164,-2.6164,-2.6164,-2.6269,-2.6459,-2.5929,-2.5672,-2.5672,-2.545,-2.5463,-2.5181,0.0,0.0,0.0,0.0,0.0,0.0,0.0,0.0,0.0,0.0,-3.9456,-3.9494,-3.9036,-3.8562,-3.8277,-3.8881,-3.93,-3.9143,-3.9203,-3.9284,-3.9284,-3.9231,-3.9143,-3.9111,-3.8374,-3.7569,-3.6744,-3.6188,-3.5485,-3.4566,-3.4438,-3.425,-3.3923,-3.3705,-3.3554,-3.3406,-3.3271,-3.3237,-3.3305,-3.3305,-3.3391,-3.3535,-3.3803,-3.3896,-3.3809,-3.283,-3.2398,-3.2398,-3.2398,-3.2752,-3.3306,-3.3383,-3.4183,-3.5337,-3.5398,-3.5784,-3.6307,-3.6307,-3.6353,-3.6184,-3.4844,-3.4459,-3.4351,-3.3537,-3.3398,-3.3767,-3.5059,-3.5506,-3.5722,-3.6322,-3.6492,-3.6492,-3.6492,-3.6492,-3.6492,-3.6492,-3.6492,-3.6492,-3.6492,-3.6492,-3.6492,-3.6492,-3.6492,-3.6492,-3.6429,-3.5816,-3.479,-3.3242,-3.2686,-3.1433,-2.8871,-2.8656,-2.8222,-2.7079,-2.7167,-2.7335,-2.7469,-2.749,-2.749,-2.749,-2.7027,-2.6784,-2.6784,-2.6784,-2.7,-2.749,-2.6948,-2.6706,-2.6693,-2.6138,-2.6177,0.0,-2.6512,0.0,0.0,0.0,0.0,0.0,0.0,0.0,-3.7657,-3.7662,-3.7968,-3.9259,-3.8876,-3.8561,-3.9097,-3.8755,-3.8605,-3.9175,-3.9284,-3.9284,-3.9284,-3.8743,-3.8128,-3.7532,-3.6872,-3.589,-3.4516,-3.4871,-3.4518,-3.3139,-3.3477,-3.3559,-3.3241,-3.2481,-3.2485,-3.3389,-3.2256,-3.1952,-3.2547,-3.2625,-3.2525,-3.223,-3.2849,-3.2985,-3.2722,-3.2492,-3.2398,-3.2398,-3.2398,-3.2475,-3.2659,-3.3198,-3.3583,-3.3921,-3.452,-3.4813,-3.4936,-3.4936,-3.5275,-3.5476,-3.4091,-3.4014,-3.4274,-3.2982,-3.3383,-3.4335,-3.4643,-3.5491,-3.6307,-3.6445,-3.6492,-3.6492,-3.6492,-3.6492,-3.6492,-3.6492,-3.6492,-3.6492,-3.6492,-3.6492,-3.6492,-3.6492,-3.6492,-3.632,-3.5705,-3.5267,-3.4607,-3.3536,-3.2413,-3.1101,-2.9471,-2.8523,-2.7676,-2.6829,-2.71,-2.7302,-2.7335,-2.7436,-2.749,-2.749,-2.7372,-2.734,-2.734,-2.734,-2.7372,-2.749,-2.6948,-2.6706,-2.6706,-2.6588,-2.6588,0.0,0.0,0.0,0.0,0.0,0.0,0.0,0.0,0.0,-3.5901,-3.7058,-3.8172,-3.8402,-3.8104,-3.7733,-3.7437,-3.6974,-3.6916,-3.7629,-3.7714,-3.7835,-3.8146,-3.7554,-3.6941,-3.6556,-3.5874,-3.4994,-3.3829,-3.4163,-3.3897,-3.2677,-3.286,-3.2844,-3.2482,-3.1916,-3.1839,-3.2341,-3.1579,-3.1376,-3.1769,-3.1842,-3.1728,-3.1429,-3.194,-3.2086,-3.1905,-3.1905,-3.1736,-3.1505,-3.2136,-3.2198,-3.1982,-3.2659,-3.3121,-3.3444,-3.3814,-3.4212,-3.4505,-3.4505,-3.4736,-3.4905,-3.4181,-3.4197,-3.4366,-3.3642,-3.3935,-3.4566,-3.489,-3.546,-3.6091,-3.6415,-3.6492,-3.6492,-3.6492,-3.6492,-3.646,-3.6304,-3.6398,-3.6383,-3.6038,-3.6116,-3.6103,-3.5611,-3.5534,-3.5499,-3.5419,-3.5103,-3.4515,-3.3399,-3.2493,-3.1385,-2.9817,-2.8741,-2.7901,-2.7384,-2.6963,-2.6904,-2.7289,-2.7176,-2.7249,-2.749,-2.749,-2.749,-2.749,-2.7262,-2.7249,-2.749,-2.6948,-2.685,-2.7079,-2.7079,-2.7079,0.0,0.0,0.0,0.0,0.0,0.0,0.0,0.0,0.0,-3.467,-3.6744,-3.8229,-3.7099,-3.6908,-3.652,-3.5297,-3.5083,-3.5244,-3.5735,-3.5805,-3.6014,-3.6573,-3.6155,-3.5769,-3.5628,-3.5066,-3.4429,-3.3685,-3.3699,-3.3414,-3.2674,-3.2574,-3.2353,-3.1912,-3.1747,-3.1521,-3.121,-3.119,-3.119,-3.119,-3.1092,-3.0979,-3.0885,-3.095,-3.108,-3.1266,-3.1266,-3.0946,-3.0479,-3.1613,-3.1797,-3.147,-3.1997,-3.2628,-3.3229,-3.3229,-3.3598,-3.415,-3.415,-3.4305,-3.4459,-3.4227,-3.4382,-3.4628,-3.4397,-3.4489,-3.4797,-3.5322,-3.5568,-3.5784,-3.6353,-3.6492,-3.6492,-3.6492,-3.646,-3.6336,-3.6068,-3.6163,-3.6148,-3.5529,-3.5688,-3.5633,-3.4821,-3.47,-3.4848,-3.5307,-3.5151,-3.4493,-3.3267,-3.2747,-3.1795,-2.9935,-2.899,-2.8298,-2.7769,-2.6835,-2.648,-2.7067,-2.6928,-2.6987,-2.7333,-2.7438,-2.749,-2.749,-2.7066,-2.7053,-2.749,-2.7053,-2.7066,-2.749,-2.749,-2.749,0.0,0.0,0.0,0.0,0.0,0.0,0.0,0.0,-3.3862,0.0,-3.5169,-3.5508,-3.5332,-3.535,-3.5332,-3.5137,-3.5013,-3.4942,-3.503,-3.5048,-3.5084,-3.5154,-3.5101,-3.4801,-3.4164,-3.4074,-3.3717,-3.3004,-3.2996,-3.2959,-3.2773,-3.2756,-3.2489,-3.1912,-3.1876,-3.1654,-3.121,-3.119,-3.119,-3.119,-3.0609,-3.038,-3.0446,-2.9603,-2.9772,-3.0717,-3.0717,-3.0593,-3.0402,-3.0586,-3.0966,-3.1424,-3.1516,-3.1921,-3.2521,-3.2521,-3.2598,-3.2675,-3.2675,-3.3488,-3.4305,-3.3075,-3.3891,-3.5152,-3.3921,-3.4398,-3.5398,-3.5491,-3.5937,-3.6384,-3.6476,-3.6492,-3.6492,-3.6492,-3.6273,-3.6068,-3.6005,-3.5752,-3.5529,-3.5432,-3.5432,-3.5482,-3.5535,-3.552,-3.5469,-3.5249,-3.518,-3.475,-3.3591,-3.2893,-3.1729,-2.9737,-2.8915,-2.8019,-2.6816,-2.6799,-2.6683,-2.6281,-2.6985,-2.7236,-2.6837,-2.7262,-2.749,-2.749,-2.7425,-2.7425,-2.749,-2.7425,-2.7425,-2.749,-2.749,-2.749,0.0,0.0,0.0,0.0,0.0,0.0,0.0,0.0,-3.2441,-3.3248,-3.3547,-3.3775,-3.42,-3.4358,-3.4284,-3.3875,-3.3667,-3.3688,-3.4058,-3.4003,-3.4088,-3.4619,-3.4339,-3.4058,-3.3879,-3.3504,-3.3161,-3.2872,-3.2787,-3.2755,-3.2807,-3.2623,-3.2335,-3.1912,-3.1785,-3.156,-3.121,-3.119,-3.1055,-3.0801,-3.013,-2.9832,-2.9879,-2.9294,-2.9437,-3.0161,-3.0161,-2.9853,-2.9435,-3.0191,-3.0418,-3.0351,-3.1105,-3.1593,-3.1874,-3.2259,-3.2398,-3.2398,-3.2398,-3.2798,-3.3275,-3.3029,-3.3583,-3.4275,-3.406,-3.4691,-3.5506,-3.5506,-3.5968,-3.6492,-3.6492,-3.6492,-3.6492,-3.6492,-3.6226,-3.5941,-3.572,-3.5512,-3.5335,-3.5169,-3.4774,-3.4576,-3.5073,-3.4919,-3.48,-3.5023,-3.5034,-3.4681,-3.3725,-3.2984,-3.2127,-3.0984,-2.936,-2.8278,-2.7988,-2.7072,-2.6422,-2.6264,-2.6447,-2.6595,-2.6706,-2.6922,-2.7196,-2.749,-2.721,-2.721,-2.749,-2.721,-2.721,-2.749,-2.749,-2.749,0.0,0.0,0.0,0.0,0.0,0.0,0.0,0.0,-3.1142,0.0,-3.2349,-3.2717,-3.3283,-3.3509,-3.3414,-3.2812,-3.2574,-3.2615,-3.3073,-3.2944,-3.3079,-3.3784,-3.3421,-3.3231,-3.3525,-3.3028,-3.2722,-3.2852,-3.2705,-3.2606,-3.2658,-3.2404,-3.2144,-3.1802,-3.1635,-3.1445,-3.119,-3.1075,-3.072,-3.0145,-2.9677,-2.9403,-2.9305,-2.9121,-2.9258,-2.9616,-2.9592,-2.9223,-2.8738,-2.9723,-2.9855,-2.9554,-3.0541,-3.1142,-3.147,-3.1951,-3.2244,-3.2398,-3.2398,-3.2505,-3.2705,-3.3044,-3.326,-3.3475,-3.3858,-3.4582,-3.5213,-3.4999,-3.5707,-3.6445,-3.6276,-3.6368,-3.6492,-3.6492,-3.6226,-3.5863,-3.5382,-3.5219,-3.5055,-3.482,-3.4339,-3.4113,-3.4677,-3.4519,-3.4375,-3.4581,-3.4606,-3.4239,-3.3187,-3.2619,-3.2027,-3.1343,-2.9517,-2.8484,-2.8764,-2.7265,-2.6339,-2.6407,-2.6154,-2.6164,-2.6452,-2.6627,-2.6883,-2.7301,-2.704,-2.7105,-2.749,-2.7105,-2.7105,-2.749,-2.749,-2.749,0.0,0.0,0.0,0.0,0.0,0.0,0.0,0.0,0.0,-3.1107,-3.1878,-3.244,-3.2543,-3.2711,-3.2777,-3.2558,-3.2387,-3.2266,-3.2091,-3.2073,-3.209,-3.2107,-3.2108,-3.2197,-3.2543,-3.2422,-3.2455,-3.2773,-3.269,-3.2489,-3.2232,-3.2214,-3.1983,-3.1536,-3.1517,-3.1421,-3.119,-3.076,-3.0081,-2.9166,-2.9266,-2.9137,-2.8842,-2.8889,-2.8982,-2.9138,-2.899,-2.8873,-2.881,-2.8872,-2.9166,-2.9596,-2.9673,-3.0402,-3.1409,-3.1455,-3.1844,-3.2398,-3.2398,-3.2813,-3.3244,-3.2644,-3.2875,-3.329,-3.269,-3.3473,-3.4412,-3.3706,-3.4953,-3.6338,-3.5737,-3.6014,-3.6492,-3.6492,-3.6226,-3.5814,-3.5085,-3.4668,-3.4448,-3.4448,-3.4568,-3.4687,-3.4868,-3.5019,-3.4857,-3.4002,-3.3865,-3.321,-3.1449,-3.1367,-3.0961,-2.9658,-2.8963,-2.8407,-2.7983,-2.734,-2.6776,-2.6433,-2.6551,-2.6399,-2.5858,-2.6386,-2.6719,-2.6745,-2.7223,-2.7464,-2.749,-2.7464,-2.7464,-2.749,-2.749,-2.749,0.0,0.0,0.0,0.0,0.0,0.0,0.0,-2.943,-3.0144,-3.0256,-3.1459,-3.2264,-3.1601,-3.2036,-3.2472,-3.2507,-3.2214,-3.1948,-3.1875,-3.1654,-3.1543,-3.173,-3.1748,-3.1876,-3.2144,-3.2109,-3.2162,-3.2455,-3.1473,-3.1267,-3.2144,-3.1133,-3.0835,-3.1483,-3.1366,-3.1114,-3.074,-3.0288,-2.9728,-2.9097,-2.9006,-2.892,-2.8794,-2.8975,-2.9052,-2.9098,-2.9052,-2.8982,-2.8865,-2.8865,-2.8951,-2.9128,-2.9564,-3.0194,-3.0943,-3.1376,-3.1909,-3.2398,-3.2398,-3.2552,-3.2644,-3.1967,-3.1905,-3.1982,-3.1336,-3.2074,-3.3211,-3.3352,-3.4583,-3.5891,-3.6076,-3.6307,-3.6492,-3.6492,-3.6053,-3.5544,-3.5285,-3.4787,-3.4414,-3.4414,-3.4635,-3.4835,-3.4902,-3.518,-3.5067,-3.409,-3.3939,-3.3476,-3.228,-3.1739,-3.1334,-3.1002,-2.9895,-2.9067,-2.8824,-2.8127,-2.7235,-2.6089,-2.6093,-2.5863,-2.5301,-2.5502,-2.5777,-2.6125,-2.6687,-2.6987,-2.6987,-2.732,-2.7307,-2.6987,-2.732,-2.749,0.0,0.0,0.0,0.0,0.0,0.0,-2.7457,0.0,-2.9925,-2.9742,-3.1028,-3.2004,-3.1411,-3.1707,-3.2109,-3.2266,-3.2019,-3.1746,-3.1653,-3.1406,-3.1291,-3.1464,-3.1464,-3.1579,-3.1841,-3.1803,-3.1912,-3.2249,-3.1202,-3.0977,-3.2003,-3.0888,-3.0513,-3.114,-3.1018,-3.074,-3.0267,-2.9793,-2.9416,-2.9159,-2.8881,-2.8755,-2.885,-2.8959,-2.9052,-2.9098,-2.9098,-2.9052,-2.8967,-2.8967,-2.8912,-2.8881,-2.931,-2.9846,-3.0406,-3.1037,-3.1623,-3.216,-3.2348,-3.2244,-3.1982,-3.1536,-3.1116,-3.0643,-3.0186,-3.0859,-3.1828,-3.2275,-3.3619,-3.5064,-3.5523,-3.5875,-3.6148,-3.6148,-3.5688,-3.5219,-3.5219,-3.4787,-3.4414,-3.4414,-3.4635,-3.4835,-3.4835,-3.5162,-3.5067,-3.4075,-3.3739,-3.329,-3.2426,-3.1676,-3.1283,-3.1421,-3.034,-2.9447,-2.9039,-2.8265,-2.7258,-2.5897,-2.5641,-2.5367,-2.5018,-2.4992,-2.5175,-2.5524,-2.6099,-2.6386,-2.6386,-2.7157,-2.734,-2.6974,-2.732,-2.749,0.0,0.0,0.0,0.0,0.0,0.0,-2.6112,0.0,-2.9674,-2.9454,-3.0572,-3.1675,-3.1966,-3.1802,-3.1673,-3.1858,-3.1838,-3.1671,-3.1353,-3.1315,-3.1274,-3.121,-3.121,-3.1291,-3.156,-3.1538,-3.1688,-3.2144,-3.1894,-3.1748,-3.18,-3.1612,-3.1193,-3.0539,-3.0518,-3.0288,-2.9832,-2.9348,-2.9159,-2.9305,-2.8834,-2.87,-2.8904,-2.8904,-2.899,-2.9098,-2.9098,-2.9098,-2.9098,-2.9098,-2.9013,-2.8904,-2.8904,-2.9264,-2.9877,-3.0421,-3.1011,-3.1665,-3.2191,-3.1936,-3.1382,-3.1336,-3.0458,-2.9387,-2.9371,-2.9848,-3.0402,-3.0417,-3.2102,-3.3879,-3.3909,-3.4647,-3.54,-3.54,-3.5121,-3.4872,-3.4902,-3.462,-3.4385,-3.4414,-3.4563,-3.4698,-3.4698,-3.4997,-3.4868,-3.3899,-3.3255,-3.255,-3.1613,-3.0998,-3.0698,-3.0698,-3.0167,-2.9424,-2.8529,-2.7754,-2.6888,-2.5884,-2.5301,-2.4992,-2.4966,-2.4966,-2.4966,-2.4966,-2.5524,-2.578,-2.5767,-2.6915,-2.7477,-2.7477,-2.749,-2.749,-2.3082,0.0,0.0,0.0,0.0,0.0,0.0,0.0,-2.8103,-2.7453,-2.9334,-3.0938,-3.0442,-3.1126,-3.1764,-3.1819,-3.1727,-3.1617,-3.1542,-3.1483,-3.1387,-3.1293,-3.1274,-3.1274,-3.1327,-3.1288,-3.1404,-3.167,-3.0638,-3.0465,-3.1524,-3.1385,-3.121,-3.1015,-3.0679,-3.0435,-3.0309,-2.9489,-2.9159,-2.9305,-2.8905,-2.8787,-2.8904,-2.899,-2.9052,-2.9098,-2.9098,-2.9098,-2.9098,-2.9098,-2.9075,-2.9052,-2.9052,-2.9423,-3.0009,-3.0563,-3.1104,-3.1604,-3.1651,-3.1563,-3.1228,-3.0274,-2.972,-2.9294,-2.8827,-2.9479,-3.0468,-3.0746,-3.1992,-3.341,-3.4165,-3.485,-3.54,-3.54,-3.4812,-3.436,-3.4798,-3.4303,-3.3862,-3.4327,-3.4563,-3.4698,-3.4698,-3.4997,-3.4687,-3.322,-3.2953,-3.2407,-3.1073,-3.0798,-3.0773,-3.0911,-3.0366,-2.992,-2.9644,-2.8278,-2.7157,-2.6491,-2.5541,-2.4809,-2.4374,-2.4347,-2.4347,-2.4347,-2.5284,-2.5615,-2.521,-2.636,-2.6909,-2.6922,-2.734,-2.749,0.0,0.0,0.0,0.0,0.0,0.0,-2.4441,-2.5888,-2.7071,-2.6805,-2.8491,-2.9895,-2.9447,-3.0034,-3.0688,-3.097,-3.0952,-3.0997,-3.1319,-3.1464,-3.1426,-3.114,-3.1274,-3.1349,-3.1252,-3.1252,-3.131,-3.1498,-3.0641,-3.0466,-3.1332,-3.1075,-3.0818,-3.0634,-3.0351,-3.0102,-2.993,-2.9355,-2.9205,-2.938,-2.899,-2.8873,-2.899,-2.9052,-2.9098,-2.9098,-2.9098,-2.9098,-2.9098,-2.9098,-2.9098,-2.9098,-2.9098,-2.9304,-2.9721,-3.0504,-3.0985,-3.1311,-3.1693,-3.1613,-3.1285,-3.0489,-3.0058,-2.974,-2.9341,-2.9771,-3.0514,-3.1014,-3.1951,-3.293,-3.3519,-3.3925,-3.4191,-3.4191,-3.3765,-3.3489,-3.3823,-3.3506,-3.3423,-3.424,-3.4563,-3.4698,-3.4698,-3.4997,-3.4868,-3.3894,-3.3318,-3.2706,-3.1846,-3.0987,-3.0576,-3.096,-3.0477,-2.9905,-2.9444,-2.8477,-2.7432,-2.6386,-2.5502,-2.4848,-2.4491,-2.4243,-2.4083,-2.4083,-2.5001,-2.5419,-2.5328,-2.6478,-2.7027,-2.704,-2.7333,-2.749,0.0,0.0,0.0,0.0,0.0,0.0,-2.4433,-2.5369,-2.6234,-2.6667,-2.7676,-2.8498,-2.8588,-2.8629,-2.8903,-2.9589,-2.9614,-2.9865,-3.0771,-3.1264,-3.1338,-3.0767,-3.1145,-3.1406,-3.1332,-3.1315,-3.1351,-3.1462,-3.1325,-3.1171,-3.1131,-3.072,-3.0309,-2.9881,-2.9772,-2.955,-2.9189,-2.9074,-2.9182,-2.9493,-2.9037,-2.8897,-2.9098,-2.9098,-2.9098,-2.9098,-2.9098,-2.9098,-2.9098,-2.9098,-2.9098,-2.9098,-2.9098,-2.9098,-2.9225,-3.032,-3.075,-3.0933,-3.1875,-3.1855,-3.1393,-3.1305,-3.0889,-3.0402,-3.0402,-3.0448,-3.0632,-3.1225,-3.1896,-3.2436,-3.2409,-3.2423,-3.2481,-3.2481,-3.2423,-3.2394,-3.2466,-3.2535,-3.2922,-3.3997,-3.437,-3.448,-3.4528,-3.4839,-3.5082,-3.5082,-3.3945,-3.308,-3.2975,-3.124,-3.0228,-3.0738,-3.0281,-2.9549,-2.8569,-2.8328,-2.7575,-2.6067,-2.5354,-2.4992,-2.4992,-2.4426,-2.4083,-2.4083,-2.4622,-2.5184,-2.5793,-2.6811,-2.7333,-2.7398,-2.7398,-2.7398,0.0,0.0,0.0,0.0,0.0,0.0,-2.3085,-2.3766,-2.4432,-2.4563,-2.5598,-2.6522,-2.6688,-2.7035,-2.7536,-2.8322,-2.7827,-2.801,-3.001,-3.0809,-3.0922,-3.0159,-3.069,-3.1196,-3.1443,-3.1351,-3.1315,-3.1351,-3.1252,-3.1035,-3.0658,-3.0539,-3.0456,-3.0372,-2.9623,-2.9371,-2.9661,-2.8897,-2.8865,-2.9493,-2.9037,-2.8897,-2.9098,-2.9098,-2.9098,-2.9098,-2.9098,-2.9098,-2.9098,-2.9098,-2.9098,-2.9098,-2.9098,-2.9098,-2.9186,-2.9893,-3.0445,-3.0793,-3.0913,-3.1164,-3.1305,-3.0782,-3.0494,-3.0402,-3.0402,-3.0782,-3.1255,-3.1416,-3.1781,-3.2031,-3.1764,-3.2089,-3.2481,-3.2481,-3.2075,-3.1828,-3.2365,-3.2217,-3.2196,-3.2908,-3.3122,-3.3202,-3.3298,-3.3869,-3.4322,-3.4322,-3.332,-3.2311,-3.1685,-3.033,-2.9483,-2.9637,-2.9078,-2.883,-2.9114,-2.7844,-2.7053,-2.715,-2.5798,-2.4992,-2.4992,-2.4426,-2.4083,-2.4083,-2.423,-2.4792,-2.5793,-2.6015,-2.6386,-2.6844,-2.6844,-2.6844,0.0,0.0,0.0,-2.247,0.0,0.0,0.0,-2.2803,-2.3242,-2.3801,-2.4278,-2.4689,-2.4938,-2.5074,-2.5388,-2.6265,-2.5876,-2.599,-2.7498,-2.8818,-2.9758,-3.0046,-3.0372,-3.0707,-3.1117,-3.11,-3.1024,-3.0965,-3.0922,-3.0781,-3.0518,-3.0059,-2.9908,-3.014,-2.9483,-2.909,-2.9106,-2.8873,-2.8889,-2.916,-2.8897,-2.8897,-2.9098,-2.9098,-2.9098,-2.9098,-2.9098,-2.9098,-2.9098,-2.9098,-2.9098,-2.9098,-2.9098,-2.9098,-2.917,-2.9784,-3.0174,-3.042,-3.0637,-3.0877,-3.1088,-3.1025,-3.0999,-3.1061,-3.1305,-3.1535,-3.168,-3.1533,-3.1485,-3.1425,-3.1138,-3.1293,-3.154,-3.154,-3.1293,-3.1179,-3.1575,-3.1553,-3.1467,-3.1498,-3.1575,-3.1829,-3.2485,-3.272,-3.2787,-3.2787,-3.2013,-3.1275,-3.0862,-2.9648,-2.8983,-2.9284,-2.8773,-2.8503,-2.8839,-2.8067,-2.7523,-2.749,-2.619,-2.5393,-2.5393,-2.457,-2.4243,-2.453,-2.4256,-2.4543,-2.5393,-2.5105,-2.5563,-2.6706,-2.6706,-2.6706,0.0,0.0,0.0,0.0,0.0,-2.2023,0.0,0.0,0.0,-2.3145,-2.3096,-2.2992,-2.3272,0.0,0.0,-2.376,0.0,0.0,0.0,-2.6253,0.0,-2.9171,-2.9251,-2.9416,-2.9951,-3.0261,-3.0426,-3.0402,-3.0543,-3.0522,-3.0288,-2.955,-2.9296,-2.9639,-2.9205,-2.8779,-2.8396,-2.8795,-2.8912,-2.8794,-2.8794,-2.8897,-2.9098,-2.9098,-2.9098,-2.9098,-2.9098,-2.9098,-2.9098,-2.9098,-2.9098,-2.9098,-2.9098,-2.9098,-2.9154,-2.9667,-2.9902,-3.0057,-3.0498,-3.0703,-3.0871,-3.1435,-3.1599,-3.1665,-3.2125,-3.2075,-3.187,-3.158,-3.1219,-3.0837,-3.0493,-3.0312,-3.019,-3.019,-3.019,-3.0282,-3.0538,-3.0762,-3.0821,-3.0538,-3.033,-3.057,-3.1693,-3.1551,-3.1354,-3.1486,-3.079,-3.0249,-3.0249,-2.9071,-2.8399,-2.8895,-2.8503,-2.8216,-2.8216,-2.8216,-2.802,-2.7529,-2.6524,-2.591,-2.5793,-2.4831,-2.4452,-2.4822,-2.457,-2.4622,-2.4992,-2.4609,-2.5105,-2.6379,-2.6379,-2.6379,0.0,0.0,0.0,0.0,-2.2802,0.0,0.0,0.0,-2.1437,-2.155,0.0,-2.1537,0.0,0.0,0.0,0.0,-2.1367,-2.2035,-2.2959,-2.3571,-2.4421,-2.5713,-2.5967,-2.6307,-2.7078,-2.8347,-2.9262,-2.9603,-3.0335,-3.0377,-2.9493,-2.935,-2.9243,-2.9166,-2.8724,-2.8444,-2.8411,-2.8444,-2.8589,-2.8794,-2.8794,-2.8897,-2.9098,-2.9098,-2.9098,-2.9098,-2.9098,-2.9098,-2.9098,-2.9098,-2.9098,-2.9098,-2.9098,-2.9098,-2.9114,-2.917,-2.9525,-3.0019,-3.0073,-3.0398,-3.0871,-3.1435,-3.1599,-3.1615,-3.1665,-3.167,-3.1616,-3.153,-3.1043,-3.0421,-2.9856,-2.9219,-2.8748,-2.8748,-2.8748,-2.8953,-2.9732,-3.0009,-3.0343,-3.1058,-3.0326,-2.9845,-3.0591,-3.0613,-3.0752,-3.1387,-3.043,-2.959,-2.959,-2.8425,-2.762,-2.7686,-2.7633,-2.7594,-2.7594,-2.7594,-2.7555,-2.749,-2.6935,-2.6347,-2.5806,-2.521,-2.4661,-2.4217,-2.5145,-2.5419,-2.4992,-2.5419,-2.5471,-2.5188,-2.5188,-2.5188,0.0,0.0,0.0,0.0,0.0,0.0,-2.3154,0.0,-2.2126,0.0,0.0,0.0,0.0,0.0,0.0,0.0,-2.0702,-2.1037,-2.1823,0.0,-2.2623,-2.5217,-2.5436,-2.5918,-2.7278,-2.7493,-2.7781,-2.8307,-2.8862,-2.8899,-2.8217,-2.8633,-2.8982,-2.922,-2.8692,-2.8444,-2.8517,-2.8517,-2.8621,-2.8858,-2.8858,-2.8936,-2.9098,-2.9098,-2.9098,-2.9098,-2.9098,-2.9098,-2.9098,-2.9098,-2.9098,-2.9098,-2.9098,-2.9098,-2.9098,-2.9098,-2.9264,-2.9486,-2.9486,-2.9627,-2.9916,-3.0482,-3.0711,-3.0801,-3.0801,-3.0892,-3.0958,-3.0766,-3.047,-3.0133,-2.9701,-2.9062,-2.8492,-2.8492,-2.8492,-2.8652,-2.9205,-2.9393,-2.969,-3.0644,-3.0103,-2.9588,-2.9873,-2.9266,-2.8826,-2.9126,-2.8692,-2.8332,-2.8332,-2.7834,-2.749,-2.749,-2.749,-2.749,-2.749,-2.749,-2.749,-2.749,-2.6674,-2.5916,-2.5354,-2.5123,-2.5044,-2.5075,-2.5545,-2.5707,-2.5471,-2.6033,-2.619,-2.5986,-2.5986,-2.5986,-2.6602,0.0,0.0,0.0,0.0,0.0,0.0,0.0,0.0,0.0,0.0,0.0,0.0,0.0,0.0,0.0,0.0,-2.0437,0.0,-2.059,0.0,-2.4182,-2.4567,-2.5115,-2.6296,-2.6307,-2.6392,-2.672,-2.7454,-2.7697,-2.729,-2.8159,-2.8834,-2.9144,-2.8755,-2.8541,-2.866,-2.866,-2.874,-2.8904,-2.8904,-2.8967,-2.9098,-2.9098,-2.9098,-2.9098,-2.9098,-2.9098,-2.9098,-2.9098,-2.9098,-2.9098,-2.9098,-2.9098,-2.9098,-2.9098,-2.9098,-2.9098,-2.9098,-2.9217,-2.9399,-2.9658,-2.9866,-3.0022,-3.0179,-3.0285,-3.0342,-3.0347,-3.0042,-2.9673,-2.9376,-2.8634,-2.7953,-2.7953,-2.7986,-2.8149,-2.862,-2.8762,-2.9111,-3.0042,-2.9673,-2.9237,-2.9237,-2.8436,-2.7723,-2.7523,-2.749,-2.749,-2.749,-2.749,-2.749,-2.749,-2.749,-2.749,-2.749,-2.749,-2.7425,-2.7301,-2.6216,-2.5471,-2.524,-2.5227,-2.5471,-2.6046,-2.6184,-2.6263,-2.6263,-2.687,-2.7099,-2.6909,-2.6909,-2.6909,0.0,-2.8199,0.0,-2.544,0.0,0.0,0.0,0.0,-2.2324,0.0,0.0,0.0,0.0,0.0,0.0,0.0,0.0,0.0,0.0,0.0,-2.1308,-2.1421,-2.2351,-2.2907,-2.2689,-2.4277,-2.5211,-2.4918,-2.6574,-2.7416,-2.6938,-2.8166,-2.8865,-2.8818,-2.8794,-2.8794,-2.8794,-2.8794,-2.8834,-2.8904,-2.8904,-2.8967,-2.9098,-2.9098,-2.9098,-2.9098,-2.9098,-2.9098,-2.9098,-2.9098,-2.9098,-2.9098,-2.9098,-2.9098,-2.9098,-2.9098,-2.9098,-2.9098,-2.9098,-2.9486,-2.9886,-2.9304,-2.9255,-2.9545,-3.0114,-3.0027,-2.9913,-3.0746,-3.0027,-2.8971,-2.862,-2.7537,-2.6555,-2.6555,-2.6658,-2.7007,-2.7855,-2.8176,-2.8565,-2.938,-2.8998,-2.8532,-2.8532,-2.8514,-2.8254,-2.759,-2.749,-2.749,-2.749,-2.749,-2.749,-2.749,-2.749,-2.749,-2.749,-2.749,-2.7288,-2.6771,-2.5659,-2.5267,-2.5741,-2.5767,-2.6059,-2.6667,-2.7196,-2.7438,-2.7438,-2.8046,-2.8046,-2.7464,-2.7464,-2.7464,-2.9037,-2.9246,-2.9168,-2.7753,-2.7102,-2.6494,-2.5226,0.0,0.0,0.0,0.0,0.0,0.0,0.0,0.0,0.0,0.0,0.0,0.0,-2.0214,-2.0646,-2.0646,-2.1139,0.0,-2.2749,-2.2598,-2.2743,-2.3418,-2.4319,-2.4647,-2.4283,-2.6372,-2.7563,-2.7534,-2.8357,-2.8826,-2.8865,-2.8865,-2.8936,-2.9029,-2.9029,-2.9052,-2.9098,-2.9098,-2.9098,-2.9098,-2.9098,-2.9098,-2.9098,-2.9098,-2.9098,-2.9098,-2.9098,-2.9098,-2.9098,-2.9098,-2.9098,-2.9098,-2.9098,-2.9233,-2.9383,-2.9154,-2.8777,-2.8458,-2.8646,-2.8985,-2.9324,-2.9431,-2.9247,-2.8907,-2.8588,-2.7517,-2.6499,-2.6499,-2.6521,-2.6726,-2.7222,-2.739,-2.7723,-2.8661,-2.8661,-2.8514,-2.8514,-2.8514,-2.8254,-2.759,-2.749,-2.749,-2.749,-2.749,-2.749,-2.749,-2.749,-2.749,-2.749,-2.749,-2.7288,-2.6745,-2.634,-2.6222,-2.6386,-2.6386,-2.6661,-2.7236,-2.7398,-2.749,-2.749,-2.8111,-2.849,-2.8699,-2.9043,-2.8863,-2.9786,-3.0016,-2.9949,-2.879,-2.8322,-2.7835,-2.6588,-2.5772,-2.516,0.0,0.0,0.0,0.0,0.0,0.0,0.0,0.0,0.0,0.0,-2.0304,-2.0304,-2.0304,-2.0912,0.0,0.0,-2.1708,-2.1627,-2.2014,-2.2718,-2.306,-2.2898,-2.5489,-2.6975,-2.6975,-2.8222,-2.8928,-2.8967,-2.8967,-2.9013,-2.9098,-2.9098,-2.9098,-2.9098,-2.9098,-2.9098,-2.9098,-2.9098,-2.9098,-2.9098,-2.9098,-2.9098,-2.9098,-2.9098,-2.9098,-2.9098,-2.9098,-2.9098,-2.9098,-2.9098,-2.9098,-2.9075,-2.892,-2.8439,-2.7919,-2.8012,-2.8467,-2.8962,-2.9013,-2.8911,-2.878,-2.8556,-2.7517,-2.6499,-2.6499,-2.6602,-2.6739,-2.6956,-2.7079,-2.7369,-2.8039,-2.8124,-2.8124,-2.8124,-2.8124,-2.8006,-2.7556,-2.749,-2.749,-2.749,-2.749,-2.749,-2.749,-2.749,-2.749,-2.749,-2.734,-2.7066,-2.6732,-2.6491,-2.6556,-2.6961,-2.6974,-2.7445,-2.8404,-2.8221,-2.8221,-2.8417,-2.8817,-2.9196,-2.9601,-3.0176,-2.9921]},{"header":{"parameterUnit":"m.s-1","parameterCategory":1,"la1":30.6,"la2":29.2853,"lo1":-89.7004,"lo2":-87.6739,"dy":0.0162,"dx":0.0183,"nx":112,"ny":82,"refTime":"2023-05-04T00:00:00:Z","depth":0,"parameterNumber":3,"parameterNumberName":"V-component_of_WINDS"},"data":[0.0,0.0,0.0,0.0,0.0,0.0,0.0,0.0,0.0,0.0,0.0,0.0,0.0,0.0,0.0,0.0,0.0,0.0,0.0,0.0,0.0,0.0,0.0,0.0,0.0,0.0,0.0,0.0,0.0,0.0,0.0,0.0,0.0,0.0,0.0,0.0,0.0,0.0,0.0,0.0,0.0,0.0,0.0,0.0,0.0,0.0,0.0,0.0,0.0,0.0,0.0,0.0,0.0,0.0,0.0,0.0,0.0,0.0,0.0,0.0,0.0,0.0,0.0,0.0,0.0,0.0,0.0,0.0,0.0,0.0,0.0,0.0,0.0,0.0,0.0,0.0,0.0,0.0,0.0,0.0,0.0,0.0,0.0,0.0,0.0,0.0,0.0,0.0,0.0,0.0,1.3785,1.5978,1.8568,2.0118,2.0032,2.1246,2.0696,1.763,0.0,0.0,0.0,0.0,0.0,0.0,0.0,0.0,0.0,0.0,0.0,0.0,0.0,0.0,0.0,0.0,0.0,0.0,0.0,0.0,0.0,0.0,0.0,0.0,0.0,0.0,0.0,0.0,0.0,0.0,0.0,0.0,0.0,0.0,0.0,0.0,0.0,0.0,0.0,0.0,0.0,0.0,0.0,0.0,0.0,0.0,0.0,0.0,0.0,0.0,0.0,0.0,0.0,0.0,0.0,0.0,0.0,0.0,0.0,0.0,0.0,0.0,0.0,0.0,0.0,0.0,0.0,0.0,0.0,0.0,0.0,0.0,0.0,0.0,0.0,0.0,0.0,0.0,0.0,0.0,0.0,0.0,0.0,0.0,0.0,0.0,0.0,0.0,0.0,0.0,0.0,0.0,0.0,0.0,0.0,0.0,0.0,0.0,0.0,0.0,0.0,0.0,0.0,0.0,1.4902,1.6884,1.8281,1.9239,1.9706,2.0332,1.9808,1.7767,0.0,0.0,0.0,0.0,0.0,0.0,0.0,0.0,0.0,0.0,0.0,0.0,0.0,0.0,0.0,0.0,0.0,0.0,0.0,0.0,0.0,0.0,0.0,0.0,0.0,0.0,0.0,0.0,0.0,0.0,0.0,0.0,0.0,0.0,0.0,0.0,0.0,0.0,0.0,0.0,0.0,0.0,0.0,0.0,0.0,0.0,0.0,0.0,0.0,0.0,0.0,0.0,0.0,0.0,0.0,0.0,0.0,0.0,0.0,0.0,0.0,0.0,0.0,0.0,0.0,0.0,0.0,0.0,0.0,0.0,0.0,0.0,0.0,0.0,0.0,0.0,0.0,0.0,0.0,0.0,0.0,0.0,0.0,0.0,0.0,0.0,0.0,0.0,0.0,0.0,0.0,0.0,0.0,0.0,0.0,0.0,0.0,0.0,0.0,0.0,0.0,0.0,0.0,1.5742,1.6812,1.8291,1.9183,1.9669,1.9704,2.0188,1.9697,1.7817,1.6787,0.0,0.0,0.0,0.0,0.0,0.0,0.0,0.0,0.0,0.0,0.0,0.0,0.0,0.0,0.0,0.0,0.0,0.0,0.0,0.0,0.0,0.0,0.0,0.0,0.0,0.0,0.0,0.0,0.0,0.0,0.0,0.0,0.0,0.0,0.0,0.0,0.0,0.0,0.0,0.0,0.0,0.0,0.0,0.0,0.0,0.0,0.0,0.0,0.0,0.0,0.0,0.0,0.0,0.0,0.0,0.0,0.0,0.0,0.0,0.0,0.0,0.0,0.0,0.0,0.0,0.0,0.0,0.0,0.0,0.0,0.0,0.0,0.0,0.0,0.0,0.0,0.0,0.0,0.0,0.0,0.0,0.0,0.0,0.0,0.0,0.0,0.0,0.0,0.0,0.0,0.0,0.0,0.0,0.0,0.0,0.0,0.0,0.0,0.0,0.0,0.0,0.0,1.6894,1.7868,1.8793,1.9517,1.9834,1.956,2.0065,1.9567,1.7658,1.6623,0.0,0.0,0.0,0.0,0.0,0.0,0.0,0.0,0.0,0.0,0.0,0.0,0.0,0.0,0.0,0.0,0.0,0.0,0.0,0.0,0.0,0.0,0.0,0.0,0.0,0.0,0.0,0.0,0.0,0.0,0.0,0.0,0.0,0.0,0.0,0.0,0.0,0.0,0.0,0.0,0.0,0.0,0.0,0.0,0.0,0.0,0.0,0.0,0.0,0.0,0.0,0.0,0.0,0.0,0.0,0.0,0.0,0.0,0.0,0.0,0.0,0.0,0.0,0.0,0.0,0.0,0.0,0.0,0.0,0.0,0.0,0.0,0.0,0.0,0.0,0.0,0.0,0.0,0.0,0.0,0.0,0.0,0.0,0.0,0.0,0.0,0.0,0.0,0.0,0.0,0.0,0.0,0.0,0.0,0.0,0.0,0.0,0.0,0.0,0.0,0.0,0.0,1.602,1.6858,1.7307,1.8129,1.8741,1.9033,1.949,1.8998,1.7167,1.6969,0.0,0.0,0.0,0.0,0.0,0.0,0.0,0.0,0.0,0.0,0.0,0.0,0.0,0.0,0.0,0.0,0.0,0.0,0.0,0.0,0.0,0.0,0.0,0.0,0.0,0.0,0.0,0.0,0.0,0.0,0.0,0.0,0.0,0.0,0.0,0.0,0.0,0.0,0.0,0.0,0.0,0.0,0.0,0.0,0.0,0.0,0.0,0.0,0.0,0.0,0.0,0.0,0.0,0.0,0.0,0.0,0.0,0.0,0.0,0.0,0.0,0.0,0.0,0.0,0.0,0.0,0.0,0.0,0.0,0.0,0.0,0.0,0.0,0.0,0.0,0.0,0.0,0.0,0.0,0.0,0.0,0.0,0.0,0.0,0.0,0.0,0.0,0.0,0.0,0.0,0.0,0.0,0.0,0.0,0.0,0.0,0.0,0.0,0.0,0.0,0.0,0.0,1.6922,1.7598,0.0,1.894,1.935,1.9606,1.9889,1.9209,1.7197,0.0,0.0,0.0,0.0,0.0,0.0,0.0,0.0,0.0,0.0,0.0,0.0,0.0,0.0,0.0,0.0,0.0,0.0,0.0,0.0,0.0,0.0,0.0,0.0,0.0,0.0,0.0,0.0,0.0,0.0,0.0,0.0,0.0,0.0,0.0,0.0,0.0,0.0,0.0,0.0,0.0,0.0,0.0,0.0,0.0,0.0,0.0,0.0,0.0,0.0,0.0,0.0,0.0,0.0,0.0,0.0,0.0,0.0,0.0,0.0,0.0,0.0,0.0,0.0,0.0,0.0,0.0,0.0,0.0,0.0,0.0,0.0,0.0,0.0,0.0,0.0,0.0,0.0,0.0,0.0,0.0,0.0,0.0,0.0,0.0,0.0,0.0,0.0,0.0,0.0,0.0,0.0,0.0,0.0,0.0,0.0,0.0,0.0,0.0,0.0,0.0,0.0,1.6795,1.7458,1.8108,0.0,1.9068,1.9439,1.9866,2.0025,1.9243,1.7197,0.0,0.0,0.0,0.0,0.0,0.0,0.0,0.0,0.0,0.0,0.0,0.0,0.0,0.0,0.0,0.0,0.0,0.0,0.0,0.0,0.0,0.0,0.0,0.0,0.0,0.0,0.0,0.0,0.0,0.0,0.0,0.0,0.0,0.0,0.0,0.0,0.0,0.0,0.0,0.0,0.0,0.0,0.0,0.0,0.0,0.0,0.0,0.0,0.0,0.0,0.0,0.0,0.0,0.0,0.0,0.0,0.0,0.0,0.0,0.0,0.0,0.0,0.0,0.0,0.0,0.0,0.0,0.0,0.0,0.0,0.0,0.0,0.0,0.0,0.0,0.0,0.0,0.0,0.0,0.0,0.0,0.0,0.0,0.0,0.0,0.0,0.0,0.0,0.0,0.0,0.0,0.0,0.0,0.0,0.0,0.0,0.0,0.0,0.0,0.0,0.0,0.0,1.5973,1.7298,1.8147,1.776,1.8068,1.8693,1.9636,1.9708,1.8923,0.0,0.0,0.0,0.0,0.0,0.0,0.0,0.0,0.0,0.0,0.0,0.0,0.0,0.0,0.0,0.0,0.0,0.0,0.0,0.0,0.0,0.0,0.0,0.0,0.0,0.0,0.0,0.0,0.0,0.0,0.0,0.0,0.0,0.0,0.0,0.0,0.0,0.0,0.0,0.0,0.0,0.0,0.0,0.0,0.0,0.0,0.0,0.0,0.0,0.0,0.0,0.0,0.0,0.0,0.0,0.0,0.0,0.0,0.0,0.0,0.0,0.0,0.0,0.0,0.0,0.0,0.0,0.0,0.0,0.0,0.0,0.0,0.0,0.0,0.0,0.0,0.0,0.0,0.0,0.0,0.0,0.0,0.0,0.0,0.0,0.0,0.0,0.0,0.0,0.0,0.0,0.0,0.0,0.0,0.0,0.0,0.0,0.0,0.0,0.0,0.0,0.0,0.0,1.6137,1.7385,1.8378,1.86,1.8893,1.9228,1.9596,1.9723,1.8778,1.6438,0.0,0.0,0.0,0.0,0.0,0.0,0.0,0.0,0.0,0.0,0.0,0.0,0.0,0.0,0.0,0.0,0.0,0.0,0.0,0.0,0.0,0.0,0.0,0.0,0.0,0.0,0.0,0.0,0.0,0.0,0.0,0.0,0.0,0.0,0.0,0.0,0.0,0.0,0.0,0.0,0.0,0.0,0.0,0.0,0.0,0.0,0.0,0.0,0.0,0.0,0.0,0.0,0.0,0.0,0.0,0.0,0.0,0.0,0.0,0.0,0.0,0.0,0.0,0.0,0.0,0.0,0.0,0.0,0.0,0.0,0.0,0.0,0.0,0.0,0.0,0.0,0.0,0.0,0.0,0.0,0.0,0.0,0.0,0.0,0.0,0.0,0.0,0.0,0.0,0.0,0.0,0.0,0.0,0.0,0.0,0.0,0.0,0.0,0.0,0.0,0.0,0.0,1.6002,1.7002,1.7894,1.8397,1.8635,1.8997,1.9632,1.9795,1.912,1.7349,0.0,0.0,0.0,0.0,0.0,0.0,0.0,0.0,0.0,0.0,0.0,0.0,0.0,0.0,0.0,0.0,0.0,0.0,0.0,0.0,0.0,0.0,0.0,0.0,0.0,0.0,0.0,0.0,0.0,0.0,0.0,0.0,0.0,0.0,0.0,0.0,0.0,0.0,0.0,0.0,0.0,0.0,0.0,0.0,0.0,0.0,0.0,0.0,0.0,0.0,0.0,0.0,0.0,0.0,0.0,0.0,0.0,0.0,0.0,0.0,0.0,0.0,0.0,0.0,0.0,0.0,0.0,0.0,0.0,0.0,0.0,0.0,0.0,0.0,0.0,0.0,0.0,0.0,0.0,0.0,0.0,0.0,0.0,0.0,0.0,0.0,0.0,0.0,0.0,0.0,0.0,0.0,0.0,0.0,0.0,0.0,0.0,0.0,0.0,0.0,0.0,0.0,1.572,1.6474,1.7201,1.7686,1.7847,1.8419,1.969,1.9884,1.9687,1.9044,0.0,0.0,0.0,0.0,0.0,0.0,0.0,0.0,0.0,0.0,0.0,0.0,0.0,0.0,0.0,0.0,0.0,0.0,0.0,0.0,0.0,0.0,0.0,0.0,0.0,0.0,0.0,0.0,0.0,0.0,0.0,0.0,0.0,0.0,0.0,0.0,0.0,0.0,0.0,0.0,0.0,0.0,0.0,0.0,0.0,0.0,0.0,0.0,0.0,0.0,0.0,0.0,0.0,0.0,0.0,0.0,0.0,0.0,0.0,0.0,1.0921,1.0171,0.0,0.0,0.0,0.0,0.0,0.0,0.0,0.0,0.0,0.0,0.0,0.0,0.0,0.0,0.0,0.0,0.0,0.0,0.0,0.0,0.0,0.0,0.0,0.0,0.0,0.0,0.0,0.0,0.0,0.0,0.0,0.0,0.0,0.0,0.0,0.0,0.0,0.0,0.0,0.0,1.6008,1.7499,1.8655,1.8769,1.8808,1.9049,1.9611,1.9665,1.9281,1.8308,1.8509,0.0,0.0,0.0,0.0,0.0,0.0,0.0,0.0,0.0,0.0,0.0,0.0,0.0,0.0,0.0,0.0,0.0,0.0,0.0,0.0,0.0,0.0,0.0,0.0,0.0,0.0,0.0,0.0,0.0,0.0,0.0,0.0,0.0,0.0,0.0,0.0,0.0,0.0,0.0,0.0,0.0,0.0,0.0,0.0,0.0,0.0,0.0,0.0,0.0,0.0,0.0,0.0,0.0,0.0,0.0,0.0,0.0,0.0,0.0,1.0962,1.06,0.0,0.0,0.0,0.0,0.0,0.0,0.0,0.0,0.0,0.0,0.0,0.0,0.0,0.0,0.0,0.0,0.0,0.0,0.0,0.0,0.0,0.0,0.0,0.0,0.0,0.0,0.0,0.0,0.0,0.0,0.0,0.0,0.0,0.0,0.0,0.0,0.0,0.0,0.0,0.0,1.5408,1.6809,1.7974,1.8428,1.8505,1.8831,1.9632,1.9756,1.9597,1.9123,1.8817,0.0,0.0,0.0,0.0,0.0,0.0,0.0,0.0,0.0,0.0,0.0,0.0,0.0,0.0,0.0,0.0,0.0,0.0,0.0,0.0,0.0,0.0,0.0,0.0,0.0,0.0,0.0,0.0,0.0,0.0,0.0,0.0,0.0,0.0,0.0,0.0,0.0,0.0,0.0,0.0,0.0,0.0,0.0,0.0,0.0,0.0,0.0,0.0,0.0,0.0,0.0,0.0,0.0,1.1135,1.1172,1.1375,1.1549,1.1441,1.1153,1.1346,1.1453,1.1444,1.1023,0.0,0.0,0.0,0.0,0.0,0.0,0.0,0.0,0.0,0.0,0.0,0.0,0.0,0.0,0.0,0.0,0.0,0.0,0.0,0.0,0.0,0.0,1.2577,1.4152,1.381,1.3393,1.4285,0.0,0.0,0.0,0.0,0.0,0.0,0.0,0.0,0.0,0.0,0.0,1.4739,1.5938,1.7055,1.7827,1.8027,1.8549,1.9636,1.9866,2.0025,2.0235,1.9189,1.8713,0.0,0.0,0.0,0.0,0.0,0.0,0.0,0.0,0.0,0.0,0.0,0.0,0.0,0.0,0.0,0.0,0.0,0.0,0.0,0.0,0.0,0.0,0.0,0.0,0.0,0.0,0.0,0.0,0.0,0.0,0.0,0.0,0.9031,0.9549,0.0,0.0,0.0,0.0,0.0,0.0,0.0,0.0,0.0,0.0,0.0,0.0,0.0,1.047,1.0992,1.1345,1.1737,1.2118,1.2449,1.2681,1.2815,1.2842,1.2887,1.2929,1.2207,0.0,1.1429,1.1759,0.0,0.0,0.0,0.0,0.0,0.0,0.0,0.0,0.0,0.0,0.0,0.0,0.0,0.0,0.0,0.0,0.0,0.0,0.0,0.0,0.0,0.0,1.5861,1.6042,1.5334,1.4867,1.5733,1.4174,1.2848,1.3777,1.3351,1.295,0.0,0.0,0.0,0.0,0.0,0.0,1.5027,1.6917,1.8266,1.8403,1.8745,1.9082,1.9431,1.9617,1.983,2.0041,2.003,1.9498,1.8311,1.9389,0.0,0.0,0.0,0.0,0.0,0.0,0.0,0.0,0.0,0.0,0.0,0.0,0.0,0.0,0.0,0.0,0.0,0.0,0.0,0.0,0.0,0.0,0.0,0.0,0.0,0.0,0.0,0.0,0.0,0.8471,0.8896,0.9887,1.0073,1.0091,0.0,0.0,0.0,0.0,0.0,0.0,0.0,0.0,0.0,1.0409,1.1065,1.1456,1.1525,1.2472,1.3014,1.3186,1.3612,1.3831,1.3897,1.4125,1.4255,1.4286,1.3909,1.3497,1.3067,1.211,1.1989,1.2377,0.0,0.0,0.0,0.0,1.185,1.2404,1.1861,1.2507,1.355,1.3468,0.0,0.0,0.0,0.0,0.0,0.0,0.0,1.4089,1.4833,1.5517,1.6136,1.6704,1.6501,1.6181,1.6207,1.4918,1.3972,1.4663,1.4533,1.406,1.3228,1.3582,0.0,0.0,0.0,1.5272,1.5178,1.6448,1.7482,1.7747,1.8127,1.8572,1.9026,1.9343,1.9669,1.9988,2.0008,1.9804,1.9357,1.9878,1.957,0.0,0.0,0.0,0.0,0.0,0.0,0.0,0.0,0.0,0.0,0.0,0.0,0.0,0.0,0.0,0.0,0.0,0.0,0.0,0.0,0.0,0.0,0.0,0.0,0.0,0.0,0.0,0.0,0.8573,0.8934,1.0132,1.0379,1.0394,0.0,0.0,0.0,0.0,0.0,0.0,1.0769,1.0969,1.1087,1.1101,1.2067,1.2538,1.2446,1.3568,1.4211,1.435,1.4662,1.4808,1.4827,1.512,1.5249,1.5249,1.5249,1.4974,1.4387,1.2728,1.2267,1.2556,1.233,1.246,1.2672,1.2228,1.2536,1.3101,1.2647,1.3351,1.4443,1.4398,1.4481,1.4585,1.4451,0.0,0.0,0.0,0.0,1.4695,1.5948,1.6262,1.6461,1.7262,1.7449,1.7304,1.6781,1.6074,1.5562,1.5594,1.5426,1.4935,1.3742,1.4155,0.0,1.3116,0.0,1.5302,1.5133,1.6117,1.6976,1.7323,1.7808,1.8324,1.8822,1.9195,1.9541,1.9881,1.9848,1.9937,2.02,2.0133,1.9905,1.9499,0.0,0.0,0.0,0.0,0.0,0.0,0.0,0.0,0.0,0.0,0.0,0.0,0.0,0.0,0.0,0.0,0.0,0.0,0.0,0.0,0.0,0.0,0.0,0.0,0.0,0.0,0.0,0.0,0.0,1.01,1.1361,0.0,0.0,0.0,0.0,1.0939,1.0954,1.1288,1.2052,1.2114,1.2308,1.2679,1.3122,1.3607,1.4171,1.4556,1.5056,1.5597,1.5615,1.5634,1.5634,1.5652,1.5661,1.5661,1.5661,1.5221,1.4478,1.3965,1.3829,1.3816,1.298,1.295,1.319,1.1934,1.1905,1.2521,1.2434,1.2671,1.325,1.4678,1.5268,1.5383,1.5062,1.4846,0.0,0.0,1.5394,1.6341,1.6218,1.7117,1.8091,1.8154,1.8154,1.8106,1.7938,1.7876,1.7506,1.637,1.5389,1.4849,1.5213,0.0,1.4356,1.3908,1.4355,1.4798,1.4896,1.6566,1.7747,1.7767,1.8519,1.9045,1.9082,1.9284,1.9465,1.9611,1.9741,1.9851,2.0005,2.0063,2.0085,2.0054,1.9544,0.0,0.0,0.0,0.0,0.0,0.0,0.0,0.0,0.0,0.0,0.0,0.0,0.0,0.0,0.0,0.0,0.0,0.0,0.0,0.0,0.0,0.0,0.0,0.0,0.0,0.0,0.0,0.0,1.1224,1.1231,0.0,1.1631,1.2122,1.2228,1.1798,1.2408,1.3004,1.3532,1.3462,1.3595,1.3953,1.4224,1.4465,1.4669,1.5136,1.5492,1.5701,1.597,1.6095,1.6095,1.6095,1.6095,1.6095,1.6095,1.5791,1.528,1.5273,1.4579,1.3557,1.3637,1.4053,1.4633,1.4769,1.549,1.6467,1.6649,1.6528,1.6214,1.5486,1.5459,1.5581,1.5029,1.5392,1.6035,1.644,1.7063,1.7831,1.8834,1.9158,1.9321,1.9723,1.951,1.9108,1.8721,1.831,1.7865,1.7433,1.6777,1.6099,1.5463,1.5591,1.5496,1.4675,1.5294,1.6007,1.6455,1.7106,1.7674,1.8026,1.857,1.9053,1.9391,1.9371,1.9599,2.0206,1.9801,1.9705,2.0045,1.9957,1.994,2.0025,2.0314,1.9584,0.0,0.0,0.0,0.0,0.0,0.0,0.0,0.0,0.0,0.0,0.0,0.0,0.0,0.0,0.0,0.0,0.0,0.0,0.0,0.0,0.0,0.0,0.0,0.0,0.0,0.0,0.9848,1.1706,1.1967,1.209,1.2348,1.3058,1.3281,1.2693,1.3545,1.4267,1.4686,1.4617,1.4672,1.4903,1.513,1.5268,1.5202,1.568,1.59,1.5909,1.6183,1.6307,1.6307,1.6307,1.6165,1.5935,1.6192,1.5926,1.5366,1.5742,1.5106,1.3958,1.4506,1.5013,1.5517,1.613,1.6898,1.7641,1.7898,1.8078,1.7957,1.6286,1.6386,1.705,1.6349,1.6948,1.7996,1.8534,1.8917,1.9432,2.0571,2.0625,2.0464,2.088,2.0541,1.9999,1.966,1.8721,1.8053,1.8461,1.7917,1.6979,1.5606,1.5968,1.5977,1.4654,1.5287,1.6011,1.6312,1.6892,1.739,1.7771,1.8698,1.9373,1.9561,1.9336,1.9569,2.0479,1.9847,1.9771,2.0536,1.9863,1.9589,1.9851,1.9925,1.9343,1.809,0.0,0.0,0.0,0.0,0.0,0.0,0.0,0.0,0.0,0.0,0.0,0.0,0.0,0.0,0.0,0.0,0.0,0.0,0.0,0.0,0.0,0.0,0.0,0.7957,1.003,1.1583,1.1538,1.364,1.456,1.3102,1.4188,1.4594,1.3675,1.4334,1.4984,1.5513,1.5504,1.5495,1.5495,1.5818,1.5925,1.579,1.6121,1.6289,1.6289,1.6281,1.6272,1.6272,1.6272,1.59,1.526,1.5979,1.5661,1.4693,1.5413,1.5477,1.5183,1.5569,1.5739,1.5758,1.579,1.5831,1.5831,1.5781,1.6886,1.8107,1.6951,1.8048,1.9677,1.8914,1.9449,2.0326,2.05,2.0775,2.1059,2.1197,2.135,2.149,2.1531,2.1117,2.0742,2.0717,1.9207,1.8216,1.9354,1.8647,1.7355,1.5863,1.6012,1.5759,1.3996,1.4346,0.0,1.447,1.5968,1.7062,1.7075,1.8962,2.0041,1.9593,1.9206,1.94,2.0373,1.9875,2.0123,2.1421,1.9806,1.9141,1.9692,1.8427,1.8728,2.0635,0.0,0.0,0.0,0.0,0.0,0.0,0.0,0.0,0.0,0.0,0.0,0.0,0.0,0.0,0.0,0.0,0.0,0.0,0.0,0.0,0.0,0.0,1.1106,1.1289,1.1601,1.2457,1.4098,1.4892,1.5104,1.4568,1.5817,1.6424,1.5847,1.6267,1.6529,1.651,1.568,1.5236,1.5278,1.5453,1.5486,1.5384,1.6042,1.638,1.6371,1.6067,1.5938,1.5938,1.5938,1.5826,1.5644,1.5843,1.5756,1.5514,1.5852,1.6079,1.6184,1.6043,1.6454,1.7226,1.7754,1.8397,1.8836,1.7543,1.7687,1.8227,1.6821,1.695,1.7518,1.6777,1.7276,1.8262,1.9118,1.943,1.9894,2.1632,2.1708,2.1513,2.2226,2.1922,2.1375,2.1008,2.0104,1.9385,1.9314,1.8967,1.848,1.7848,1.7633,1.7357,1.6866,1.6882,1.7094,1.7512,1.7916,1.8299,1.8697,1.8575,1.905,2.0457,1.938,1.9447,2.1363,2.0841,2.0674,2.1187,2.0828,2.102,2.1914,2.0539,2.0269,0.0,0.0,0.0,0.0,0.0,0.0,0.0,0.0,0.0,0.0,0.0,0.0,0.0,0.0,0.0,0.0,0.0,0.0,0.0,0.0,0.0,0.0,1.0747,1.2483,1.3346,1.334,1.3661,1.4651,1.5506,1.5662,1.4854,1.6181,1.6703,1.576,1.6512,1.6959,1.6721,1.643,1.5962,1.5374,1.5965,1.5947,1.523,1.6235,1.6696,1.6622,1.648,1.6404,1.6404,1.6486,1.6384,1.6087,1.6427,1.6312,1.5955,1.6374,1.6644,1.6729,0.0,0.0,0.0,0.0,1.8754,1.9103,1.796,1.7985,1.8393,1.7669,1.8066,1.8748,1.8236,1.8491,1.8988,1.9352,1.9152,1.9293,2.1134,2.1331,2.1342,2.2433,2.2247,2.1714,2.1407,2.0461,1.9706,1.9921,1.9473,0.0,1.9472,1.8596,1.7577,1.682,1.6895,1.7128,1.7374,1.7861,1.8314,1.862,1.8734,1.9232,2.0244,1.9307,0.0,0.0,0.0,2.0562,2.0717,2.1035,0.0,0.0,0.0,2.0493,2.1425,2.1139,0.0,0.0,2.0673,2.0497,0.0,0.0,0.0,0.0,0.0,0.0,0.0,0.0,0.0,0.0,0.0,0.0,0.0,0.0,0.0,0.0,1.1386,1.3279,1.435,1.4996,1.4987,1.4182,1.5663,1.6171,1.4594,1.5854,1.6146,1.4738,1.599,1.6754,1.6628,1.7265,0.0,0.0,0.0,1.6774,1.5432,1.6613,1.7121,1.6978,1.7116,1.7165,1.7165,1.7455,1.7177,1.6528,1.7265,1.7103,1.6315,1.6961,1.7162,1.7066,1.7239,1.7494,1.7791,1.7821,1.7904,1.7969,1.7598,0.0,0.0,1.892,2.0119,2.1407,2.1329,2.1245,2.107,2.054,1.973,1.9274,2.0425,2.0791,2.1129,2.2353,2.2236,2.1827,2.1766,2.0527,1.9743,2.0746,2.0077,1.9655,2.0601,1.922,1.7412,1.5808,1.6063,1.6328,1.6041,1.7027,1.7776,1.7776,1.9046,0.0,1.946,1.906,1.9449,2.0913,2.0585,2.0408,2.0528,2.1053,2.0551,1.8834,1.9442,2.0381,2.1548,2.1621,2.228,2.3465,2.1839,2.1744,0.0,0.0,0.0,0.0,0.0,0.0,0.0,0.0,0.0,0.0,0.0,0.0,0.0,0.0,0.0,1.1632,1.3461,1.477,1.4528,1.5433,1.5821,1.5174,1.6056,1.6338,1.5286,1.5965,1.6493,1.6558,1.6667,1.6901,1.7304,1.6837,1.6422,1.6026,1.6461,1.6525,1.6197,1.7016,1.7433,1.7394,1.7093,0.0,1.6956,1.7174,1.7199,1.7059,1.7431,1.7496,1.7326,1.7477,1.7678,1.7858,1.7894,1.7882,1.7802,1.7863,1.8452,1.907,1.7779,1.8117,1.9165,1.9212,1.9492,1.9894,2.0477,2.0575,0.0,2.1386,2.093,2.0562,2.1933,2.1894,2.1651,2.2168,2.2206,2.2,2.1578,2.1222,2.0904,2.0704,2.0499,2.0398,2.0595,2.0391,2.007,1.9712,1.932,1.9076,1.9115,1.8909,1.8726,1.8726,1.8273,1.8425,1.9633,1.8855,1.9085,2.0888,2.1511,2.2081,2.2679,2.2811,2.2758,2.2548,2.2688,2.2876,2.3073,2.315,2.3284,2.3494,2.3022,2.3041,0.0,0.0,0.0,0.0,0.0,0.0,0.0,0.0,0.0,0.0,0.0,1.1051,0.0,0.0,1.2321,1.2698,1.4085,1.5019,1.4788,1.5126,1.5271,1.5007,1.5712,1.5856,1.4838,1.5835,1.6456,1.625,1.6517,1.6924,1.7427,1.706,1.6647,1.617,1.6855,1.6928,1.63,1.7255,1.7749,1.7749,1.7687,1.7631,1.7679,1.7873,1.7942,1.7951,1.8076,1.8163,1.8163,1.8163,1.8191,1.8272,1.8351,1.836,1.8263,1.8303,1.8649,1.9022,1.8139,1.835,1.9079,1.9478,1.9732,2.0086,2.118,2.0977,2.0538,2.1196,2.0533,1.9929,2.1152,2.1305,2.1273,2.1694,2.1938,2.1953,2.1621,2.1563,2.1522,2.1422,2.1404,2.1404,2.138,2.1451,2.133,2.0769,2.0398,2.023,2.0298,1.976,1.9492,1.9768,1.8843,1.8621,1.9713,1.9307,1.9457,2.0521,2.1468,2.2263,2.2867,2.315,2.3392,2.361,2.3595,2.3573,2.356,2.3573,2.3767,2.4045,2.3978,2.3829,0.0,0.0,0.0,0.0,0.0,0.0,0.0,0.0,1.1201,1.1391,1.1804,1.2072,1.1854,1.2558,1.3287,1.3581,1.4407,1.5035,1.512,1.4877,1.4625,1.4522,1.5095,1.5092,1.4193,1.5311,1.5876,1.5401,1.5925,1.6617,1.7359,1.7359,1.7143,1.6641,1.7516,1.7542,1.6555,1.7601,1.8102,1.8102,1.8345,1.8426,1.8418,1.8567,1.8652,1.8652,1.87,1.87,1.87,1.8652,1.8571,1.8482,1.8571,1.866,1.87,1.87,1.8851,1.9002,1.8643,1.8763,1.9161,1.9795,2.0362,2.0968,2.2233,2.196,2.1291,2.1642,2.0743,1.9872,2.0839,2.106,2.1154,2.1594,2.1816,2.1878,2.1835,2.1753,2.1812,2.2255,2.2342,2.2378,2.2486,2.2498,2.2137,2.1079,2.081,2.0767,2.0767,2.0286,2.0117,2.0562,1.9829,1.9447,1.9784,1.9855,2.0027,2.0334,2.1251,2.2025,2.2626,2.3222,2.3644,2.3804,2.3924,2.3984,2.3984,2.3984,2.4283,2.4799,2.4776,2.4403,1.0235,0.8789,0.7972,0.807,0.9019,1.0191,0.0,0.0,1.3905,1.4051,1.463,1.5018,1.4688,1.4939,1.5177,1.5179,1.5437,1.5712,1.5718,1.5484,1.5106,1.4661,1.4399,1.4249,1.413,1.4075,1.4321,1.5082,1.4992,1.5636,1.7318,1.7245,1.7464,1.8112,1.8029,1.7957,1.7791,1.8273,1.8528,1.8528,1.8561,1.8561,1.8552,1.847,1.8442,1.8442,1.8612,1.87,1.87,1.8523,1.8531,1.866,1.8482,1.8523,1.87,1.87,1.939,2.0157,1.9231,1.9539,2.0304,2.0382,2.0991,2.1821,2.2702,2.3326,2.3908,2.4542,2.3965,2.3317,2.4015,2.3432,2.2658,2.2725,2.2303,2.197,2.2259,2.198,2.193,2.2767,2.2927,2.3071,2.3541,2.3625,2.3264,2.2173,2.162,2.132,2.132,2.0851,2.0538,2.0603,2.0494,2.0254,1.9844,2.0034,2.0365,2.0871,2.1414,2.217,2.3172,2.4015,2.4477,2.4485,2.5068,2.539,2.539,2.539,2.542,2.5495,2.5378,2.502,1.0919,1.06,1.0581,0.0,1.2276,1.3029,1.36,1.4376,1.5057,1.5236,1.5591,1.5764,1.5367,1.5239,1.5315,0.0,1.5464,1.5444,1.5785,1.5431,1.4985,1.4604,1.3951,1.3533,1.3411,1.3944,1.4365,1.4545,1.5256,1.6206,1.7359,1.7524,1.7895,1.8652,1.8704,1.8699,1.8699,1.8853,1.893,1.893,1.893,1.8853,1.8579,1.8681,1.8693,1.8693,1.8897,1.8857,1.8652,1.8807,1.8725,1.8531,1.8571,1.8744,1.8993,1.8892,1.9337,1.9922,1.9498,1.9846,2.0451,2.0086,2.0282,2.08,2.1389,2.2258,2.321,2.3928,2.4131,2.4182,2.4502,2.4129,2.3572,2.3208,2.3025,2.2946,2.2889,2.2709,2.2758,2.3355,2.3469,2.3541,2.3758,2.3806,2.3649,2.3216,2.2654,2.2209,2.1909,2.1404,2.0947,2.0622,2.0875,2.0735,1.988,2.0193,2.0603,2.1017,2.1831,2.2788,2.3884,2.459,2.501,2.5173,2.5457,2.5615,2.5615,2.5615,2.5809,2.6183,2.612,2.5986,1.099,0.0,0.0,1.3642,1.4568,1.5201,1.5372,1.5561,1.5771,1.5968,1.5965,1.5808,1.5449,1.5157,1.5169,1.5625,1.5357,1.5257,1.5711,1.5257,1.473,1.4349,1.3498,1.2837,1.2433,1.3494,1.4145,1.4083,1.5238,1.6286,1.7122,1.7597,1.8213,1.9044,1.9152,1.9213,1.9213,1.9281,1.9333,1.9333,1.9333,1.9187,1.8905,1.897,1.8969,1.8969,1.9211,1.9118,1.8868,1.916,1.9085,1.8798,1.8889,1.9097,1.9342,1.9272,1.9466,1.9751,1.9751,2.0107,2.0424,2.0007,2.0113,2.0467,2.0748,2.1738,2.2932,2.3727,2.442,2.4948,2.4964,2.4804,2.4431,2.378,2.363,2.3595,2.3463,2.3309,2.3351,2.3874,2.3977,2.4107,2.4396,2.4324,2.4227,2.4227,2.3749,2.3159,2.2498,2.1945,2.1476,2.1091,2.1392,2.1247,2.031,2.0598,2.0929,2.1161,2.214,2.3159,2.422,2.5043,2.5597,2.5884,2.6063,2.6153,2.6153,2.6153,2.6393,2.6881,2.6847,2.6847,0.0,0.0,1.1276,1.2598,1.4129,1.5411,1.5866,1.6147,1.6342,1.6546,1.5937,1.543,1.5391,1.5157,1.5109,1.5357,1.5398,1.5484,1.5738,1.5077,1.4336,1.3783,1.2954,1.2102,0.0,1.2244,1.3178,1.3672,1.4349,1.5316,1.6576,1.7231,1.817,1.9426,1.929,1.9213,1.9213,1.9538,1.9683,1.9683,1.9683,1.9674,1.9648,1.9324,1.9196,1.9196,1.9401,1.9478,1.9478,1.9478,1.9605,1.9733,1.9554,1.9605,1.9793,1.9784,1.9963,2.0174,2.0174,2.031,2.0521,2.0461,2.1019,2.1644,2.1675,2.2858,2.4375,2.5125,2.5768,2.6233,2.6259,2.5908,2.5366,2.4644,2.3965,2.3595,2.392,2.3555,2.3445,2.4296,2.446,2.4819,2.5841,2.56,2.5264,2.5264,2.4819,2.4109,2.3087,2.2498,2.2161,2.2149,2.2161,2.1945,2.1404,2.1368,2.1362,2.14,2.2214,2.3068,2.3879,2.5365,2.6303,2.6557,2.721,2.754,2.754,2.754,2.754,2.757,2.7433,2.7458,1.0343,0.0,1.3096,1.4577,1.5721,1.6505,1.6809,1.6663,1.6465,1.632,1.5147,1.4077,1.3842,1.3331,1.3192,1.403,1.3844,1.4051,1.5345,1.419,1.3365,1.3895,1.3002,0.0,0.0,0.0,0.0,1.257,1.3899,1.5259,1.6549,1.7668,1.8783,1.9844,1.9919,1.9915,1.9915,2.0043,2.0103,2.0103,1.9811,1.9788,1.9947,1.9549,1.9557,1.9809,1.9852,1.9809,1.9634,1.9634,1.9609,1.9632,1.9674,1.9841,2.0026,2.0364,2.049,2.0545,2.0584,2.0708,2.0826,2.0748,2.0863,2.1141,2.147,2.2726,2.4161,2.4862,2.5614,2.6106,2.5877,2.5937,2.585,2.5026,2.5135,2.5302,2.4944,2.4729,2.4692,2.4976,2.5035,2.5155,2.5516,2.5432,2.5312,2.5312,2.4578,2.3893,2.3577,2.3071,2.2746,2.2746,2.2402,2.1981,2.1452,2.1728,2.1952,2.1992,2.2982,2.3967,2.4857,2.5933,2.6674,2.6994,2.7379,2.76,2.76,2.76,2.76,2.76,2.7549,2.7549,1.1125,1.2655,1.4268,1.586,1.6697,1.7085,1.7051,1.6725,1.6255,1.561,1.4437,1.3359,1.2694,1.21,1.1964,1.2876,1.2641,1.2994,1.4812,1.3745,1.3088,1.3995,1.3227,1.2739,0.0,0.0,0.0,1.2323,1.3695,1.5151,1.6472,1.7652,1.8875,2.0146,2.0262,2.0292,2.0292,2.0292,2.0292,2.0292,2.0052,1.9985,2.0155,1.9895,1.9817,1.9861,2.0175,2.0096,1.973,1.9962,2.0016,1.9905,1.9966,2.0114,2.0332,2.0642,2.0757,2.0709,2.0811,2.1139,2.148,2.1401,2.1581,2.1915,2.2217,2.3294,2.4461,2.5042,2.5872,2.6548,2.6212,2.6472,2.6593,2.5752,2.6068,2.6408,2.5744,2.5588,2.554,2.5348,2.5312,2.5372,2.5564,2.5757,2.5757,2.5372,2.4903,2.4432,2.3878,2.3336,2.2939,2.2714,2.2402,2.2053,2.1716,2.1993,2.2213,2.2256,2.3153,2.4095,2.505,2.5837,2.6537,2.7181,2.7372,2.7499,2.76,2.76,2.76,2.76,2.76,2.76,1.2185,1.3589,1.4733,1.6334,1.7006,1.7138,1.6662,1.6262,1.5669,1.4475,1.3748,1.3028,1.1848,1.1348,1.1324,1.1919,1.1808,1.2322,1.4186,1.37,1.342,0.0,0.0,0.0,0.0,0.0,0.0,1.3001,0.0,1.4981,1.6413,1.731,1.8559,2.0257,2.0292,2.0292,2.0292,2.0292,2.0292,2.0292,2.0292,2.0292,2.0292,2.0292,1.9995,1.9488,2.034,2.0324,1.9883,2.0447,2.0699,2.0654,2.0428,2.0473,2.0699,2.0744,2.0744,2.0826,2.1033,2.165,2.235,2.2438,2.3052,2.38,2.3844,2.4498,2.5274,2.5704,2.6629,2.7406,2.7128,2.7364,2.7505,2.6752,2.6759,2.6777,2.6226,2.6093,2.5937,2.5408,2.5312,2.5468,2.5973,2.6502,2.6465,2.5504,2.5769,2.5552,2.4071,2.3421,2.2859,2.233,2.2246,2.2221,2.2197,2.2197,2.2197,2.2197,2.2781,2.3522,2.4469,2.505,2.5945,2.7181,2.7178,2.7291,2.76,2.76,2.76,2.76,2.76,2.76,1.2655,1.446,1.6127,1.609,1.6425,1.6572,1.5884,1.5201,1.4412,1.3259,1.1712,1.0257,0.9373,0.8849,0.9099,1.0789,1.1009,0.0,1.3566,1.3352,0.0,1.3673,0.0,1.3699,1.4013,1.4229,0.0,0.0,1.4872,1.6162,1.7507,1.839,1.9376,2.0555,2.0382,2.0292,2.0292,2.0292,2.0292,2.0292,2.0292,2.0292,2.0292,2.0292,2.0234,2.0063,2.0305,2.0316,2.0197,2.035,2.0518,2.0699,2.0609,2.0654,2.0744,2.1069,2.1526,2.2003,2.2576,2.2375,2.205,2.2931,2.3367,2.3714,2.436,2.484,2.5369,2.6166,2.6633,2.6767,2.6508,2.6978,2.7343,2.6556,2.6957,2.7222,2.6298,2.6093,2.5937,2.5408,2.5312,2.5348,2.5492,2.5624,2.5757,2.5877,2.6009,2.5805,2.5023,2.4458,2.3929,2.3457,2.3047,2.2618,2.2221,2.2197,2.2197,2.2197,2.2781,2.3522,2.4469,2.4655,2.5507,2.7167,2.6705,2.6842,2.76,2.76,2.76,2.76,2.76,2.76,1.3964,1.5318,1.6473,1.6122,1.6116,1.5972,1.497,1.4134,1.3133,1.1695,1.0334,0.0,0.8178,0.7826,0.8265,0.0,0.0,0.0,1.2883,1.3055,1.3193,0.0,1.3792,0.0,1.4819,1.4936,1.4969,0.0,1.5571,1.6543,1.7723,1.8633,1.9603,2.069,2.0564,2.0428,2.0292,2.0292,2.0292,2.0292,2.0292,2.0292,2.0292,2.0292,2.0157,1.9909,2.0191,2.0148,1.9918,2.02,2.0382,2.0518,2.0736,2.0916,2.1069,2.1517,2.1935,2.2385,2.3587,2.3544,2.312,2.4276,2.484,2.52,2.5463,2.581,2.6155,2.6592,2.6839,2.6976,2.6944,2.7353,2.7693,2.7234,2.7603,2.7837,2.6995,2.6803,2.6586,2.5805,2.5468,2.5312,2.5312,2.5504,2.5673,2.5745,2.6154,2.6178,2.5408,2.5047,2.4494,2.3565,2.3192,2.2763,2.2246,2.2197,2.2197,2.2197,2.2531,2.313,2.4079,2.436,2.5229,2.6774,2.6696,2.6975,2.76,2.76,2.76,2.76,2.76,2.76,1.5438,1.6079,1.6319,1.6335,1.6019,1.5378,1.42,1.3101,1.1879,1.018,0.0,0.8728,0.7745,0.7709,0.8237,0.9547,0.0,1.0775,1.2094,1.2883,1.3365,1.3629,1.3892,1.4397,1.5259,1.533,1.5461,1.573,1.6133,1.6743,1.7619,1.8719,1.973,2.0673,2.0654,2.0518,2.0292,2.0292,2.0292,2.0292,2.0292,2.0292,2.0292,2.0292,2.003,1.9531,2.0054,2.0013,1.9549,2.0063,2.0292,2.0337,2.0727,2.1105,2.1392,2.1785,2.2097,2.2564,2.4307,2.4851,2.4999,2.5953,2.6689,2.7133,2.6734,2.6899,2.7185,2.7003,2.7237,2.7563,2.7869,2.807,2.8219,2.8219,2.8379,2.8366,2.7837,2.763,2.7306,2.6394,2.5781,2.5408,2.5408,2.5733,2.5865,2.548,2.6214,2.6441,2.554,2.5408,2.4843,2.334,2.3123,2.2903,2.2342,2.2234,2.2197,2.2197,2.2278,2.2763,2.3712,2.4231,2.5121,2.6443,2.6857,2.7232,2.76,2.76,2.76,2.76,2.76,2.76,1.5711,1.6219,1.6573,1.6382,1.5777,1.4996,1.4252,1.2486,0.0,0.0,0.8425,0.753,0.7455,0.7629,0.8279,0.9798,0.0,0.0,0.0,0.0,1.3555,0.0,0.0,0.0,0.0,0.0,0.0,0.0,1.7289,1.8405,1.8559,2.0123,2.0882,2.0699,2.0473,2.0337,2.0292,2.0292,2.0292,2.0292,2.0292,2.0292,2.0292,2.0292,2.0223,2.0148,2.0232,2.026,2.0157,2.0286,2.0292,2.0292,2.0382,2.069,2.1096,2.1177,2.2183,2.3661,2.4893,2.5922,2.6753,2.6958,2.7092,2.7185,2.7103,2.7144,2.7226,2.736,2.7441,2.7603,2.8059,2.8179,2.8259,2.8431,2.8471,2.8366,2.7837,2.7342,2.697,2.6789,2.6334,2.5961,2.5961,2.5673,2.5564,2.5913,2.6117,2.6178,2.5985,2.5961,2.5528,2.4374,2.3881,2.3457,2.2927,2.2438,2.2197,2.2197,2.2671,2.3463,2.4627,2.4573,2.5424,2.7342,2.6722,2.6782,2.76,2.76,2.76,2.76,2.76,2.76,1.5872,1.6259,1.6673,1.6533,1.5689,1.451,1.3081,0.0,0.0,0.0,0.7339,0.6816,0.6877,0.0,0.0,0.0,0.0,0.0,0.0,0.0,0.0,0.0,0.0,0.0,0.0,0.0,1.4611,1.5035,1.7078,1.8451,1.8772,2.0464,2.1248,2.0871,2.0654,2.0428,2.0292,2.0292,2.0292,2.0292,2.0292,2.0292,2.0292,2.0292,2.0292,2.0292,2.0292,2.0114,1.9876,2.0174,2.0105,1.9876,2.0444,2.0817,2.1042,2.1275,2.2113,2.328,2.4734,2.5797,2.6629,2.7551,2.7886,2.7846,2.7615,2.7696,2.7846,2.7736,2.7857,2.8059,2.8299,2.8351,2.8379,2.8471,2.851,2.8438,2.8186,2.7678,2.7222,2.6946,2.6478,2.6009,2.5733,2.548,2.5396,2.5648,2.5925,2.5997,2.5721,2.5925,2.5697,2.4592,2.4073,2.3589,2.3059,2.2498,2.2328,2.2641,2.295,2.3581,2.4654,2.5012,2.5742,2.689,2.6944,2.7145,2.76,2.76,2.76,2.76,2.76,2.76,1.6012,1.6353,1.6693,1.6627,1.5543,1.4011,1.2083,1.0435,0.0,0.0,0.6635,0.6447,0.6584,0.0,0.0,0.0,0.0,0.0,0.0,0.0,0.0,0.0,0.0,0.0,0.0,0.0,0.0,1.504,1.7174,1.8705,1.9405,2.069,2.1293,2.1096,2.0826,2.0609,2.0382,2.0337,2.0292,2.0292,2.0292,2.0292,2.0292,2.0292,2.0292,2.0292,2.0292,1.9952,1.9402,2.0162,2.0068,1.9634,2.074,2.1221,2.1356,2.1811,2.2344,2.3071,2.4798,2.5724,2.637,2.7966,2.851,2.8431,2.8122,2.8243,2.8431,2.8122,2.8283,2.851,2.851,2.851,2.851,2.851,2.851,2.851,2.851,2.8186,2.7726,2.7318,2.6731,2.6142,2.5733,2.5468,2.5312,2.5312,2.5661,2.5781,2.536,2.5673,2.5612,2.4748,2.423,2.3746,2.3228,2.2666,2.2573,2.307,2.3225,2.3699,2.4652,2.5481,2.6094,2.6484,2.7178,2.7549,2.76,2.76,2.76,2.76,2.76,2.76,1.6346,1.6667,1.664,1.638,1.5153,1.3645,1.2354,0.0,0.0,0.7536,0.6853,0.6584,0.7194,0.7348,0.7885,0.0,0.0,0.9898,0.0,0.0,0.0,0.0,0.0,0.0,0.0,0.0,0.0,1.6234,1.8669,2.0459,2.1365,2.1428,2.1392,2.1347,2.0934,2.0699,2.0654,2.0428,2.0292,2.0292,2.0292,2.0292,2.0292,2.0292,2.0292,2.0292,2.0292,1.9908,1.9316,2.0456,2.0492,1.9958,2.1146,2.1909,2.2344,2.2799,2.3541,2.4488,2.5902,2.6659,2.7214,2.8179,2.851,2.8471,2.8471,2.8471,2.8471,2.8471,2.8471,2.851,2.851,2.851,2.851,2.851,2.851,2.851,2.851,2.8474,2.8426,2.8378,2.751,2.6801,2.6753,2.5973,2.5312,2.5312,2.5348,2.536,2.5312,2.5348,2.5348,2.5252,2.4771,2.4242,2.3782,2.324,2.2994,2.3095,2.361,2.4339,2.5287,2.5919,2.6537,2.7115,2.7207,2.7346,2.76,2.76,2.76,2.76,2.76,2.76,1.5003,1.5772,1.6373,1.6079,1.472,1.3031,1.1576,0.0,0.8154,0.7022,0.6584,0.6526,0.6965,0.7033,0.7444,0.0,0.0,0.0,0.0,0.0,0.0,0.0,0.0,0.0,0.0,0.0,1.5165,1.6786,1.8011,1.9512,2.1401,2.1562,2.1526,2.1392,2.1212,2.0979,2.0699,2.0609,2.0473,2.0292,2.0292,2.0292,2.0292,2.0292,2.0464,2.0736,2.0736,2.0123,1.92,2.0754,2.0616,1.9556,2.172,2.2677,2.2931,2.3621,2.4308,2.501,2.6099,2.6823,2.7348,2.8219,2.851,2.851,2.851,2.851,2.851,2.851,2.851,2.851,2.851,2.851,2.851,2.851,2.851,2.851,2.851,2.851,2.8414,2.8102,2.7654,2.7162,2.6538,2.6069,2.5673,2.536,2.5312,2.5312,2.5312,2.5312,2.5312,2.5312,2.4831,2.4434,2.4242,2.346,2.3334,2.4077,2.404,2.4511,2.5646,2.6109,2.6484,2.6893,2.7089,2.7321,2.76,2.76,2.76,2.76,2.76,2.76,1.3861,1.4963,1.5965,1.5752,1.4333,1.2595,0.0,0.0,0.785,0.6649,0.6455,0.6564,0.6775,0.6872,0.7249,0.0,0.0,0.9301,0.0,0.0,0.0,0.0,0.0,0.0,0.0,1.5053,1.618,1.7747,1.841,1.9533,2.132,2.1607,2.1651,2.1482,2.1437,2.1203,2.0781,2.0744,2.0564,2.0292,2.0292,2.0172,1.9966,2.0324,2.0568,2.0704,2.1034,2.0546,1.9607,2.125,2.1053,1.9937,2.2487,2.3531,2.3651,2.4798,2.5441,2.585,2.6771,2.7296,2.7684,2.8299,2.851,2.851,2.851,2.851,2.851,2.851,2.851,2.851,2.851,2.851,2.851,2.851,2.851,2.851,2.851,2.851,2.8402,2.8029,2.7798,2.7428,2.6502,2.6202,2.5913,2.5384,2.5312,2.5312,2.5312,2.5312,2.5312,2.5312,2.4975,2.4652,2.4496,2.3857,2.3752,2.4471,2.4355,2.4654,2.5591,2.5988,2.6351,2.6709,2.6919,2.7244,2.76,2.76,2.76,2.76,2.76,2.76,1.3287,1.4509,1.5404,1.5398,1.4031,1.2344,0.0,0.0,0.7608,0.6613,0.6623,0.6805,0.6805,0.7024,0.7511,0.8435,0.8994,0.0,0.0,0.0,0.0,0.0,0.0,0.0,1.4581,1.6457,1.8157,1.9384,2.0637,2.1383,2.1392,2.1607,2.1696,2.1696,2.1482,2.1293,2.0997,2.0781,2.0564,2.0292,2.0292,1.9906,1.9256,2.043,2.0615,1.9983,2.1163,2.1264,2.0675,2.1907,2.1949,2.1476,2.3639,2.4498,2.4701,2.6505,2.7185,2.7307,2.8179,2.8471,2.8471,2.851,2.851,2.851,2.851,2.851,2.851,2.851,2.851,2.851,2.851,2.851,2.851,2.851,2.851,2.851,2.851,2.851,2.851,2.8498,2.8077,2.751,2.6982,2.6466,2.5913,2.5384,2.5312,2.5312,2.5312,2.5312,2.5312,2.5312,2.53,2.5083,2.4532,2.4472,2.4305,2.3948,2.4445,2.4873,2.5004,2.5591,2.615,2.6709,2.6709,2.6997,2.76,2.76,2.76,2.76,2.76,2.76,1.0989,1.1879,1.2532,1.2296,1.1527,1.0484,0.9332,0.0,0.7503,0.6807,0.675,0.6921,0.7279,0.7267,0.7572,0.8682,0.8963,0.0,0.0,0.0,0.0,0.0,0.0,0.0,0.0,0.0,1.6821,1.9115,1.9343,1.9868,2.1069,2.1186,2.1365,2.1687,2.1482,2.1293,2.0997,2.0781,2.0564,2.0292,2.0645,2.0244,1.9239,2.0793,2.1063,2.0464,2.1636,2.1751,2.1174,2.2395,2.2617,2.2399,2.4535,2.5788,2.6505,2.7684,2.8099,2.8139,2.8391,2.851,2.851,2.851,2.851,2.851,2.851,2.851,2.851,2.851,2.851,2.851,2.851,2.851,2.851,2.851,2.851,2.851,2.851,2.851,2.851,2.851,2.8378,2.8089,2.7522,2.6982,2.6441,2.5925,2.554,2.5312,2.5312,2.5312,2.5312,2.5312,2.5535,2.5533,2.5071,2.4568,2.4598,2.5286,2.5028,2.5269,2.6123,2.6163,2.6351,2.6709,2.6709,2.6919,2.7321,2.7524,2.76,2.76,2.76,2.76,0.0,1.0451,1.1128,1.0949,1.0321,0.0,0.0,0.0,0.7224,0.6872,0.6963,0.7206,0.7534,0.76,0.7838,0.8493,0.9019,0.0,0.0,0.0,0.0,0.0,0.0,0.0,0.0,1.6651,1.741,1.9716,1.9518,1.9778,2.0926,2.1096,2.1239,2.1419,2.1329,2.115,2.0907,2.0736,2.0564,2.0292,2.0781,2.0457,1.9539,2.1189,2.1544,2.0936,2.2159,2.2399,0.0,2.3169,2.3531,2.3525,2.5548,2.667,2.7307,2.8179,2.851,2.851,2.851,2.851,2.851,2.851,2.851,2.851,2.851,2.851,2.851,2.851,2.851,2.851,2.851,2.851,2.851,2.851,2.851,2.851,2.851,2.851,2.851,2.851,2.851,2.8342,2.7774,2.7246,2.6705,2.6178,2.5648,2.5312,2.5312,2.5312,2.5312,2.5312,2.5641,2.5793,2.5535,2.5053,2.5048,2.5826,2.5456,2.5535,2.6336,2.6416,2.659,2.6867,2.6893,2.7037,2.7346,2.7524,2.76,2.76,2.76,2.76,0.0,0.0,0.0,0.0,0.0,0.0,0.0,0.0,0.0,0.0,0.7297,0.7656,0.7706,0.8069,0.8319,0.8082,0.0,0.0,0.0,0.0,0.0,0.0,0.0,0.0,1.7408,1.8338,1.9392,2.0853,2.0781,2.0736,2.0952,2.1203,2.1203,2.0952,2.0952,2.0862,2.0699,2.0699,2.0538,2.0215,2.0791,2.0607,1.9867,2.1634,2.203,2.1374,2.2601,2.3091,2.3178,2.4112,2.4541,2.4787,2.6505,2.7226,2.7389,2.8179,2.851,2.851,2.851,2.851,2.851,2.851,2.851,2.851,2.851,2.851,2.851,2.851,2.851,2.851,2.851,2.851,2.851,2.851,2.851,2.851,2.851,2.851,2.851,2.851,2.851,2.8342,2.7774,2.7282,2.6741,2.619,2.5685,2.5348,2.5312,2.5312,2.5312,2.5312,2.5676,2.5945,2.5945,2.5747,2.5668,2.579,2.5775,2.5821,2.5932,2.6443,2.6867,2.7181,2.7207,2.7321,2.76,2.76,2.76,2.76,2.76,2.76,0.7769,0.0,0.8475,0.8475,0.8417,0.0,0.0,0.0,0.0,0.0,0.0,0.0,0.0,0.0,0.0,0.0,0.0,0.0,0.0,0.0,0.0,0.0,1.497,1.6288,1.7201,1.8196,1.9347,2.069,2.0518,2.051,2.0736,2.0654,2.0518,2.0473,2.0464,2.0555,2.0699,2.0518,2.0099,1.9488,2.0864,2.0678,1.9164,2.176,2.2332,2.1374,2.2601,2.3091,2.3178,2.4112,2.4872,2.5621,2.6753,2.7603,2.8219,2.8431,2.851,2.851,2.851,2.851,2.851,2.851,2.851,2.851,2.851,2.851,2.851,2.851,2.851,2.851,2.851,2.851,2.851,2.851,2.851,2.851,2.851,2.851,2.851,2.851,2.851,2.8342,2.7774,2.7582,2.7212,2.6238,2.5997,2.5769,2.536,2.5312,2.5312,2.5312,2.5908,2.6289,2.6289,2.6093,2.6194,2.6654,2.6555,2.6691,2.7152,2.7126,2.7115,2.7207,2.7207,2.7321,2.76,2.76,2.76,2.76,2.76,2.76,0.7748,0.7706,0.7863,0.8133,0.807,0.7944,0.0,0.0,0.0,0.0,0.0,0.0,0.0,0.0,0.0,0.0,0.0,0.0,0.0,0.0,0.0,0.0,1.4931,1.6315,0.0,1.8473,1.9766,2.0464,2.0382,2.0382,2.0518,2.0518,2.0428,2.0292,2.0428,2.0473,2.0518,2.0382,1.9915,1.9222,2.0907,2.095,1.9693,2.2059,2.2751,2.2154,2.2444,2.2988,2.379,2.4294,2.5272,2.6547,2.7429,2.8099,2.851,2.851,2.851,2.851,2.851,2.851,2.851,2.851,2.851,2.851,2.851,2.851,2.851,2.851,2.851,2.851,2.851,2.851,2.851,2.851,2.851,2.851,2.851,2.851,2.851,2.851,2.8318,2.8026,2.7726,2.7486,2.7126,2.6562,2.6262,2.6081,2.6021,2.5612,2.5396,2.5648,2.6114,2.638,2.638,2.6624,2.6886,2.7248,2.6916,2.698,2.7579,2.7473,2.7372,2.7372,2.7372,2.7448,2.76,2.76,2.76,2.76,2.76,2.76,0.8166,0.8027,0.82,0.8725,0.8438,0.8105,0.0,0.0,0.0,0.0,0.0,0.0,0.0,0.0,0.0,0.0,0.0,0.0,0.0,0.0,0.0,0.0,1.4814,0.0,1.6748,1.8893,2.0292,2.0292,2.0292,2.0292,2.0292,2.0518,2.0518,2.0292,2.0518,2.0518,2.0292,2.0292,1.9915,1.9222,2.0819,2.1257,2.0656,2.226,2.3047,2.3062,2.2552,2.3146,2.4522,2.4794,2.5835,2.7307,2.8179,2.851,2.851,2.851,2.851,2.851,2.851,2.851,2.851,2.851,2.851,2.851,2.851,2.851,2.851,2.851,2.851,2.851,2.851,2.851,2.851,2.851,2.851,2.851,2.851,2.851,2.851,2.851,2.815,2.7813,2.7702,2.7378,2.709,2.6922,2.6561,2.6454,2.6729,2.5997,2.5564,2.5937,2.6179,2.638,2.6539,2.7162,2.7629,2.7731,2.7171,2.7081,2.7579,2.76,2.76,2.76,2.76,2.76,2.76,2.76,2.76,2.7575,2.76,2.76,0.8218,0.841,0.8874,0.9097,0.8898,0.8679,0.0,0.0,0.0,0.0,0.0,0.0,0.0,0.0,0.0,0.0,0.0,0.0,0.0,0.0,1.3678,1.4136,0.0,1.7327,1.7949,1.9393,2.0292,2.0292,2.0292,2.0292,2.0292,2.0337,2.0337,2.0292,2.0337,2.0337,2.0292,2.0292,1.9915,1.9222,2.0501,2.0932,2.0647,2.1923,2.274,2.3135,2.3808,2.4246,2.4616,2.6132,2.6955,2.7307,2.8179,2.851,2.851,2.851,2.851,2.851,2.851,2.851,2.851,2.851,2.851,2.851,2.851,2.851,2.851,2.851,2.851,2.851,2.851,2.851,2.851,2.851,2.851,2.851,2.851,2.851,2.851,2.851,2.845,2.8246,2.7762,2.8029,2.7969,2.703,2.721,2.7176,2.6334,2.6081,2.5829,2.5468,2.576,2.6324,2.7178,2.7657,2.8053,2.8412,2.7824,2.7497,2.7594,2.76,2.76,2.76,2.76,2.76,2.76,2.76,2.7524,2.7412,2.7549,2.7524,0.8678,0.8712,0.8975,0.9744,0.9628,0.9394,0.0,0.0,0.0,0.0,0.0,0.0,0.0,0.0,0.0,0.0,0.0,1.3048,1.3138,1.3959,1.4549,0.0,0.0,1.7935,1.8107,1.9438,2.0292,2.0292,2.0292,2.0292,2.0292,2.0292,2.0292,2.0292,2.0095,2.0095,2.0292,2.0355,1.9974,1.9222,2.0678,2.1116,2.0656,2.2087,2.2882,2.3115,2.3603,2.4326,2.5284,2.6136,2.7062,2.7926,2.8339,2.851,2.851,2.851,2.851,2.851,2.851,2.851,2.851,2.851,2.851,2.851,2.851,2.851,2.851,2.851,2.851,2.851,2.851,2.851,2.851,2.851,2.851,2.851,2.851,2.851,2.851,2.851,2.8282,2.8005,2.7726,2.7882,2.7921,2.739,2.7522,2.7498,2.7043,2.6466,2.6009,2.5757,2.6335,2.6888,2.7365,2.8285,2.877,2.861,2.7984,2.7598,2.759,2.7524,2.7488,2.7488,2.7423,2.7372,2.7372,2.7372,2.7361,2.7284,2.7361,2.7386,0.929,0.9227,0.9302,1.0326,0.0,0.0,0.0,0.0,0.0,0.0,0.0,0.0,0.0,0.0,0.0,0.0,1.3601,1.4306,1.4106,1.5063,1.5712,1.5526,1.7234,1.8457,1.8545,1.9592,2.0292,2.0292,2.0215,2.0198,2.0283,2.0129,2.0069,2.0163,1.9804,1.9788,2.0161,2.0228,2.0061,1.9653,2.0942,2.1353,2.1061,2.2251,2.3047,2.3434,2.3722,2.4703,2.6149,2.6386,2.7297,2.851,2.851,2.851,2.851,2.851,2.851,2.851,2.851,2.851,2.851,2.851,2.851,2.851,2.851,2.851,2.851,2.851,2.851,2.851,2.851,2.851,2.851,2.851,2.851,2.851,2.851,2.851,2.851,2.851,2.8186,2.7909,2.7909,2.7909,2.7909,2.7909,2.7909,2.7822,2.7702,2.6887,2.6286,2.6227,2.6876,2.7485,2.7965,2.907,2.9474,2.8808,2.8017,2.76,2.7549,2.7437,2.7401,2.735,2.7258,2.7207,2.7207,2.7207,2.7181,2.7155,2.7181,2.7233,1.0038,1.0144,1.0387,1.0485,0.9598,0.0,0.0,0.0,0.0,0.0,0.0,0.0,0.0,0.0,0.0,0.0,1.4413,1.5426,1.626,0.0,1.7773,1.8408,1.8639,1.9136,2.007,2.0212,2.0292,2.0292,1.993,1.9888,2.0275,1.9632,1.9418,1.9725,1.941,1.9445,1.9814,1.983,2.02,2.0864,2.1047,2.1546,2.2249,2.2015,2.2797,2.4445,2.5251,2.6179,2.7174,2.7976,2.8398,2.851,2.851,2.851,2.851,2.851,2.851,2.851,2.851,2.851,2.851,2.851,2.851,2.851,2.851,2.851,2.851,2.851,2.851,2.851,2.851,2.851,2.851,2.851,2.851,2.851,2.851,2.851,2.851,2.851,2.8474,2.845,2.845,2.845,2.845,2.845,2.845,2.827,2.775,2.7186,2.6794,2.6662,2.6807,2.7723,2.9648,3.0178,3.0086,2.9305,2.8215,2.7549,2.7427,2.7401,2.735,2.7233,2.7207,2.7207,2.7207,2.7207,2.7144,2.7029,2.713,2.713,1.0438,1.0093,0.9999,1.1243,0.0,0.0,0.0,0.0,1.1223,1.2873,1.2435,0.0,0.0,0.0,0.0,1.4574,1.5868,1.684,1.7394,1.8149,1.8665,1.8796,1.9355,1.9866,2.0246,2.0086,1.9905,1.9905,1.9598,1.9453,1.9633,1.9333,1.9239,1.9384,1.9262,1.9386,1.9811,2.0149,2.0588,2.1133,2.1146,2.1325,2.1655,2.1809,2.2671,2.4106,2.5022,2.6103,2.7267,2.8139,2.851,2.851,2.851,2.851,2.851,2.851,2.851,2.851,2.851,2.851,2.851,2.851,2.851,2.851,2.851,2.851,2.851,2.851,2.851,2.851,2.851,2.851,2.851,2.851,2.851,2.851,2.851,2.851,2.851,2.851,2.851,2.851,2.851,2.851,2.851,2.851,2.851,2.8397,2.8086,2.7589,2.736,2.7656,2.8365,2.9355,3.0689,3.0539,3.0193,2.9816,2.875,2.7843,2.7299,2.7196,2.7119,2.7081,2.6989,2.6963,2.6963,2.6963,2.6937,2.6873,2.6937,2.6963,1.0956,1.0549,1.0328,0.0,0.0,0.0,0.0,0.0,0.0,1.4138,1.4035,0.0,0.0,0.0,0.0,0.0,1.6942,1.7913,1.8395,1.908,1.9463,1.9309,1.9866,2.0292,2.0292,1.9958,1.97,1.97,1.9273,1.9084,1.9213,1.8948,1.8955,1.9194,1.9112,1.9288,1.9814,2.0195,2.059,2.0988,2.0988,2.1132,2.1441,2.1852,2.2737,2.4039,2.4931,2.5984,2.7154,2.777,2.8114,2.8258,2.8258,2.8366,2.851,2.851,2.851,2.851,2.851,2.851,2.8486,2.8318,2.8258,2.8258,2.8258,2.8258,2.8294,2.8462,2.851,2.851,2.851,2.851,2.851,2.851,2.851,2.851,2.851,2.851,2.851,2.851,2.851,2.851,2.851,2.851,2.851,2.851,2.863,2.8655,2.8549,2.8038,2.7891,2.8471,2.9287,3.0194,3.1219,3.0848,3.0407,3.0072,2.9287,2.8444,2.7453,2.7334,2.727,2.7231,2.7137,2.7186,2.7416,2.7186,2.7084,2.7084,2.6881,2.6948,1.1712,1.1703,1.1737,0.0,0.0,0.0,0.0,0.0,0.0,1.7131,0.0,1.5533,1.5087,0.0,0.0,1.6269,1.7522,1.8589,1.9385,1.9957,2.0292,2.0292,2.0292,2.0283,2.0283,1.9949,1.9683,1.9683,1.9016,1.8793,1.917,1.8442,1.8365,1.9141,1.8878,1.9082,1.9902,1.9893,2.0128,2.0595,2.0595,2.1055,2.1897,2.224,2.3132,2.4449,2.5233,2.6103,2.6898,2.6898,2.7198,2.7678,2.7678,2.8002,2.8498,2.851,2.851,2.851,2.851,2.851,2.8426,2.7858,2.7678,2.7678,2.7678,2.7717,2.7798,2.8354,2.851,2.851,2.851,2.851,2.851,2.851,2.851,2.851,2.851,2.851,2.851,2.851,2.851,2.851,2.851,2.851,2.851,2.851,2.8855,2.9091,2.9118,2.8524,2.8357,2.8935,2.9188,2.987,3.119,3.1161,3.0749,2.9958,2.9914,2.9328,2.7969,2.7925,2.7844,2.771,2.771,2.8057,2.8709,2.8042,2.7695,2.7695,2.7084,2.7128,1.251,1.1861,0.0,0.0,0.0,0.0,0.0,0.0,0.0,0.0,0.0,1.524,1.5582,0.0,0.0,1.7548,1.8371,1.9253,2.0217,2.0337,2.0292,2.0292,2.0061,1.9862,1.9862,1.9316,1.8819,1.8521,1.829,1.7983,1.7612,1.7848,1.8114,1.8434,1.861,1.9097,1.9893,1.963,1.9702,2.0107,2.0107,2.041,2.0997,2.1649,2.2713,2.4002,2.4767,2.5791,2.6898,2.6898,2.6994,2.7162,2.7534,2.7813,2.7993,2.8378,2.851,2.851,2.851,2.851,2.8426,2.7858,2.7678,2.7618,2.7246,2.739,2.7714,2.787,2.8222,2.851,2.851,2.851,2.851,2.851,2.851,2.851,2.851,2.851,2.851,2.851,2.851,2.851,2.851,2.851,2.859,2.8895,2.9013,2.9003,2.8773,2.9689,3.009,2.9411,3.0147,3.0822,3.1117,3.0984,3.0748,3.0395,3.0381,2.9813,2.8518,2.8459,2.8446,2.839,2.839,2.8492,2.8709,2.8042,2.7695,2.7695,2.7507,2.7521,1.2788,0.0,0.0,0.0,0.0,0.0,0.0,0.0,0.0,0.0,0.0,1.6401,1.695,1.7096,0.0,1.8213,1.8744,1.9333,2.0131,2.0024,1.9847,1.9847,1.965,1.9513,1.9513,1.8956,1.8434,1.8025,1.7783,1.7443,1.6915,1.7383,1.7802,1.8078,1.8471,1.8994,1.9678,1.943,1.9414,1.9668,1.9668,2.007,2.0827,2.1824,2.2735,2.3534,2.4616,2.5512,2.6249,2.6249,2.6369,2.6597,2.6959,2.7306,2.7726,2.8077,2.833,2.851,2.851,2.851,2.839,2.7618,2.7366,2.727,2.6729,2.6827,2.7164,2.7596,2.7906,2.8246,2.845,2.851,2.851,2.851,2.851,2.851,2.851,2.851,2.851,2.851,2.851,2.851,2.851,2.851,2.859,2.8828,2.9118,2.9174,2.8647,2.9736,3.0251,2.9582,3.0086,3.0673,3.1087,3.0925,3.0732,3.0598,3.0598,3.0263,2.9493,2.9189,2.9058,2.9058,2.9058,2.9174,2.945,2.8797,2.8449,2.8449,2.8203,2.8217,1.2831,0.0,0.0,0.0,0.0,0.0,0.0,0.0,0.0,0.0,0.0,1.8399,1.8732,1.8099,1.7726,1.8514,1.8701,1.8956,1.941,1.9333,1.9213,1.9213,1.9187,1.9144,1.9076,1.8716,1.8273,1.7871,1.7406,1.702,1.6766,1.6983,1.7404,1.799,1.8396,1.8791,1.9287,1.9209,1.9189,1.9228,1.9228,1.9816,2.1006,2.2321,2.3025,2.329,2.4683,2.5312,2.5312,2.5312,2.5588,2.6021,2.6081,2.6707,2.7546,2.7594,2.7957,2.8366,2.8366,2.8402,2.827,2.7162,2.6861,2.6777,2.6202,2.6093,2.6382,2.733,2.7678,2.7909,2.8378,2.851,2.851,2.851,2.851,2.851,2.851,2.851,2.851,2.851,2.851,2.851,2.851,2.851,2.851,2.859,2.9263,2.9517,2.8833,2.911,2.944,2.9572,2.9481,2.987,3.1014,3.091,3.0762,3.0642,3.0598,3.0598,3.0598,3.0016,2.9682,2.9682,2.9682,2.9987,3.0598,2.9929,2.9595,2.9581,2.9029,2.9073,0.0,1.3618,0.0,0.0,0.0,0.0,0.0,0.0,0.0,1.8316,1.8216,1.8211,1.8726,1.8439,1.8238,1.8701,1.8693,1.8777,1.9213,1.9213,1.9213,1.9213,1.8896,1.8596,1.8305,1.7785,1.7215,1.6556,1.6493,1.6234,1.5585,1.6147,1.6778,1.7442,1.7498,1.81,1.9277,1.8623,1.8447,1.8744,1.8647,1.9016,1.9848,2.1639,2.3311,2.4826,2.5158,2.5312,2.5312,2.5312,2.5372,2.5516,2.5937,2.6238,2.6502,2.691,2.7138,2.7234,2.7234,2.7498,2.7717,2.6635,2.6574,2.6717,2.5769,2.6081,2.6765,2.7006,2.7666,2.8366,2.8474,2.851,2.851,2.851,2.851,2.851,2.851,2.851,2.851,2.851,2.851,2.851,2.851,2.851,2.8697,2.9367,2.9922,3.015,2.98,2.9963,3.01,3.0187,3.0123,3.0403,3.1205,3.0969,3.0791,3.0762,3.0672,3.0598,3.0598,3.0467,3.0364,3.0364,3.0364,3.0467,3.0598,2.9929,2.9595,2.9595,2.9465,2.9465,0.0,0.0,0.0,0.0,0.0,0.0,0.0,0.0,0.0,1.7461,1.8074,1.8463,1.8163,1.7971,1.7796,1.7507,1.7389,1.7559,1.815,1.8242,1.8351,1.8605,1.8215,1.7868,1.7632,1.7111,1.6551,1.6,1.5931,1.5716,1.5237,1.5673,1.6242,1.6954,1.7105,1.7694,1.8672,1.8232,1.8115,1.8295,1.8245,1.8829,2.0023,2.1594,2.3258,2.4927,2.4927,2.4795,2.4614,2.5107,2.5155,2.4987,2.5516,2.5877,2.6129,2.6418,2.6669,2.6898,2.6898,2.7078,2.721,2.6645,2.6657,2.6789,2.6225,2.6453,2.6946,2.7198,2.7705,2.8198,2.845,2.851,2.851,2.851,2.851,2.855,2.8749,2.863,2.8618,2.8988,2.8922,2.8782,2.8709,2.8711,2.894,2.9589,3.0114,3.0136,2.9484,2.9645,2.9718,2.9429,2.9698,3.0117,3.0614,3.0543,3.0544,3.0777,3.0381,3.0263,3.0598,3.0598,3.0598,3.0598,3.0277,3.0263,3.0598,2.9929,2.9755,3.0074,3.0074,3.0074,0.0,0.0,0.0,0.0,0.0,0.0,0.0,0.0,0.0,1.691,1.7871,1.8388,1.7398,1.7162,1.6884,1.6132,1.6035,1.6294,1.6949,1.703,1.7226,1.7641,1.7293,1.7013,1.6946,1.6491,1.6009,1.5663,1.5446,1.5272,1.515,1.5319,1.578,1.6568,1.6925,1.7382,1.7974,1.8008,1.8008,1.8008,1.8178,1.9124,2.0783,2.1722,2.2946,2.4318,2.4318,2.4124,2.3866,2.4699,2.4843,2.4532,2.4999,2.5492,2.5961,2.5961,2.625,2.6621,2.6621,2.6741,2.6861,2.6681,2.6801,2.6994,2.6813,2.6885,2.7126,2.7596,2.7789,2.7957,2.8402,2.851,2.851,2.851,2.855,2.8709,2.9013,2.8895,2.8882,2.9549,2.9419,2.9178,2.9025,2.8988,2.9176,2.9692,3.0088,2.9984,2.8982,2.91,2.9135,2.872,2.918,2.969,3.0238,3.0265,3.0395,3.0661,3.0104,2.9972,3.0423,3.0539,3.0598,3.0598,3.006,3.0045,3.0598,3.0045,3.006,3.0598,3.0598,3.0598,0.0,0.0,0.0,0.0,0.0,0.0,0.0,0.0,1.6561,0.0,1.6775,1.6652,1.6475,1.6297,1.6148,1.6013,1.6141,1.6294,1.6428,1.6436,1.6453,1.6533,1.6461,1.632,1.6022,1.5753,1.5454,1.5041,1.482,1.4761,1.4935,1.4971,1.5497,1.6568,1.6638,1.7097,1.7974,1.8008,1.8008,1.8008,1.8942,2.0061,2.1319,2.1459,2.2283,2.3623,2.3623,2.3687,2.3806,2.395,2.4194,2.4496,2.4568,2.4939,2.5408,2.5408,2.5468,2.5528,2.5528,2.6105,2.6741,2.5841,2.6478,2.7402,2.6502,2.6875,2.7594,2.7666,2.8014,2.8426,2.8498,2.851,2.851,2.851,2.8788,2.9013,2.9091,2.9341,2.9549,2.9665,2.9665,2.9575,2.9358,2.9346,2.9499,2.9973,3.0113,3.0075,2.9915,2.9552,2.9523,3.0063,2.9747,2.9981,3.119,3.1102,3.0763,3.0233,3.0367,3.0248,2.974,3.0277,3.0598,3.0598,3.0525,3.0525,3.0598,3.0525,3.0525,3.0598,3.0598,3.0598,0.0,0.0,0.0,0.0,0.0,0.0,0.0,0.0,1.5822,1.6216,1.5956,1.5794,1.613,1.593,1.5669,1.5438,1.5655,1.5978,1.6245,1.6584,1.681,1.6791,1.6517,1.6108,1.5663,1.5357,1.5025,1.4764,1.4856,1.4927,1.4908,1.5213,1.5771,1.6568,1.6811,1.727,1.7974,1.8008,1.8202,1.8553,1.966,2.0455,2.097,2.1186,2.1882,2.2935,2.2935,2.2855,2.2791,2.3377,2.3658,2.3713,2.4302,2.4628,2.4903,2.5204,2.5312,2.5312,2.5312,2.5624,2.5997,2.5805,2.6238,2.6779,2.661,2.7103,2.7678,2.7678,2.8102,2.851,2.851,2.851,2.851,2.851,2.8816,2.917,2.938,2.96,2.9781,3.0037,2.9897,2.9858,3.0088,2.9758,2.9656,3.0177,3.0254,3.0214,2.9969,3.0092,3.0156,3.0052,3.0403,3.0725,3.1016,3.0734,3.0395,3.0014,2.9696,2.9537,2.9595,2.99,3.0205,3.0598,3.0219,3.0219,3.0598,3.0219,3.0219,3.0598,3.0598,3.0598,0.0,0.0,0.0,0.0,0.0,0.0,0.0,0.0,1.5189,0.0,1.5473,1.5474,1.5875,1.5625,1.5272,1.5083,1.5363,1.5732,1.622,1.6696,1.6991,1.6982,1.6572,1.6073,1.5544,1.527,1.4999,1.4713,1.4991,1.5204,1.5185,1.563,1.6158,1.6821,1.7132,1.752,1.8008,1.8168,1.8687,1.9529,2.0302,2.0732,2.0903,2.1158,2.16,2.2166,2.2198,2.2071,2.1902,2.2704,2.3013,2.2987,2.3754,2.4222,2.4532,2.4963,2.5192,2.5312,2.5312,2.5396,2.5552,2.5817,2.5985,2.6154,2.6393,2.6958,2.745,2.7344,2.7897,2.8474,2.8342,2.8414,2.851,2.851,2.8816,2.9236,2.9755,2.9947,3.0139,3.047,3.0248,3.018,3.0545,3.0073,2.9881,3.0594,3.0684,3.0626,3.0477,3.0887,3.0996,3.0467,3.1037,3.1358,3.1048,3.0615,3.0233,2.9914,2.9303,2.9058,2.9377,2.9508,2.9856,3.0321,3.0031,3.0103,3.0598,3.0103,3.0103,3.0598,3.0598,3.0598,0.0,0.0,0.0,0.0,0.0,0.0,0.0,0.0,0.0,1.5172,1.5505,1.5735,1.5566,1.521,1.5067,1.5399,1.5665,1.5912,1.6263,1.6342,1.6351,1.636,1.6316,1.6096,1.5566,1.5638,1.5524,1.4935,1.507,1.5453,1.6026,1.6061,1.6517,1.7436,1.747,1.7642,1.8008,1.862,1.9628,2.0996,2.0924,2.1169,2.1635,2.1474,2.1348,2.1267,2.1403,2.1561,2.171,2.1757,2.2178,2.271,2.2769,2.3487,2.4484,2.452,2.4879,2.5312,2.5312,2.5636,2.5973,2.5504,2.5685,2.6009,2.554,2.6093,2.6825,2.6334,2.7308,2.839,2.7858,2.8138,2.851,2.851,2.8816,2.9326,3.0165,3.0672,3.0949,3.0949,3.0785,3.0621,3.0444,3.0241,3.0368,3.1294,3.1442,3.1653,3.2213,3.2129,3.2061,3.2084,3.1608,3.148,3.1909,3.1382,3.0734,2.9943,2.9682,2.9319,2.8781,2.9305,2.961,2.9639,3.0234,3.0569,3.0598,3.0569,3.0569,3.0598,3.0598,3.0598,0.0,0.0,0.0,0.0,0.0,0.0,0.0,1.4553,1.4784,1.5085,1.5386,1.5606,1.5627,1.5539,1.5488,1.5505,1.6061,1.6542,1.6682,1.7097,1.726,1.6915,1.6881,1.6638,1.607,1.6184,1.6079,1.5524,1.5223,1.5377,1.607,1.5906,1.6309,1.7451,1.7701,1.81,1.8654,1.9342,2.0193,2.1092,2.1316,2.1498,2.1698,2.1391,2.1253,2.119,2.1253,2.1348,2.1506,2.1506,2.1717,2.2099,2.243,2.3117,2.3905,2.4239,2.4763,2.5312,2.5312,2.5432,2.5504,2.4975,2.4927,2.4987,2.4482,2.5059,2.5889,2.6057,2.7019,2.8041,2.8186,2.8366,2.851,2.851,2.9,2.9561,2.9871,3.0508,3.0986,3.0986,3.071,3.0482,3.0406,3.0113,3.0216,3.1169,3.1304,3.1629,3.2492,3.2939,3.3164,3.31,3.3057,3.2855,3.2365,3.1861,3.0851,2.923,2.9043,2.8724,2.81,2.8261,2.8565,2.9015,2.9639,2.9972,2.9972,3.0409,3.0394,2.9972,3.0409,3.0598,0.0,0.0,0.0,0.0,0.0,0.0,1.3914,0.0,1.4961,1.5236,1.5724,1.6044,1.5919,1.6112,1.6184,1.5912,1.6447,1.6968,1.7141,1.7588,1.7794,1.7486,1.7486,1.7235,1.6664,1.6777,1.6612,1.5947,1.5727,1.5869,1.635,1.6294,1.6783,1.7978,1.8226,1.8654,1.9375,2.0096,2.0645,2.104,2.1517,2.1718,2.1592,2.138,2.1253,2.119,2.119,2.1253,2.1336,2.1336,2.1443,2.1616,2.1987,2.2542,2.3226,2.3815,2.443,2.5013,2.5216,2.5192,2.4987,2.4638,2.4256,2.3941,2.3637,2.4109,2.4867,2.5216,2.6444,2.7704,2.8067,2.8536,2.8882,2.8882,2.9419,2.9947,2.9947,3.0508,3.0986,3.0986,3.071,3.0482,3.0482,3.0164,3.0216,3.1156,3.1462,3.1938,3.2925,3.3673,3.4065,3.3991,3.3918,3.3431,3.2251,3.1738,3.0674,2.8825,2.8477,2.8173,2.7724,2.7695,2.7898,2.8347,2.8985,2.9305,2.9305,3.0161,3.0364,2.9958,3.0409,3.0598,0.0,0.0,0.0,0.0,0.0,0.0,1.3197,0.0,1.5242,1.562,1.647,1.6975,1.6464,1.6821,1.7063,1.6673,1.6795,1.7107,1.7604,1.7672,1.7784,1.7974,1.7974,1.7794,1.727,1.7392,1.7116,1.6202,1.6603,1.6881,1.6908,1.7298,1.7964,1.8944,1.8977,1.9342,2.0074,2.0741,2.104,2.0903,2.158,2.1726,2.1388,2.1388,2.1305,2.119,2.119,2.119,2.119,2.119,2.1273,2.1388,2.1388,2.1853,2.2565,2.3238,2.3849,2.4408,2.5037,2.4951,2.4518,2.4482,2.3797,2.3011,2.2999,2.3372,2.3806,2.3818,2.5592,2.7496,2.7521,2.8624,2.9704,2.9704,3.0063,3.0381,3.0406,3.0697,3.096,3.0986,3.0849,3.0698,3.0698,3.0356,3.0444,3.1405,3.1974,3.2692,3.3679,3.4351,3.4698,3.4698,3.4098,3.3112,3.1685,3.1095,3.0192,2.8811,2.81,2.7695,2.7666,2.7666,2.7666,2.7666,2.8347,2.8694,2.868,2.9958,3.0583,3.0583,3.0598,3.0598,1.1352,0.0,0.0,0.0,0.0,0.0,0.0,0.0,1.4281,1.5414,1.5927,1.645,1.7311,1.7209,1.6934,1.683,1.7003,1.7166,1.7304,1.7451,1.7623,1.775,1.7784,1.7784,1.7769,1.7837,1.7632,1.7151,1.6635,1.6627,1.7295,1.7666,1.7974,1.8269,1.8754,1.911,1.9309,2.0505,2.104,2.0903,2.1486,2.1643,2.1388,2.1305,2.1253,2.119,2.119,2.119,2.119,2.119,2.1221,2.1253,2.1253,2.1672,2.2358,2.3083,2.3759,2.436,2.4618,2.4604,2.4398,2.3652,2.322,2.2939,2.2522,2.3083,2.3911,2.4566,2.5791,2.7175,2.8226,2.9113,2.9704,2.9704,2.9732,2.9869,3.0317,3.0348,3.049,3.0908,3.0849,3.0698,3.0698,3.0356,3.0621,3.2151,3.2313,3.2834,3.4283,3.4582,3.4631,3.4481,3.3947,3.3376,3.2995,3.1544,3.0293,2.9421,2.8304,2.7492,2.707,2.7041,2.7041,2.7041,2.8142,2.8448,2.7998,2.9276,2.9885,2.99,3.0364,3.0598,0.0,0.0,0.0,0.0,0.0,0.0,1.252,1.3548,1.4813,1.5987,1.6782,1.7478,1.8222,1.8046,1.7628,1.7167,1.7201,1.7359,1.7584,1.7486,1.7554,1.7978,1.7784,1.7691,1.7862,1.7862,1.7759,1.7505,1.7116,1.7149,1.7681,1.8168,1.8563,1.8865,1.9243,1.9595,1.9857,2.0698,2.0976,2.0764,2.1403,2.1561,2.1305,2.1253,2.119,2.119,2.119,2.119,2.119,2.119,2.119,2.119,2.119,2.1438,2.1892,2.2934,2.3561,2.3971,2.4595,2.4699,2.4388,2.3821,2.3484,2.3288,2.2975,2.3312,2.3948,2.467,2.5873,2.7267,2.8691,2.9296,2.9526,2.9526,2.9481,2.9499,2.9859,2.9775,2.9897,3.083,3.0849,3.0698,3.0698,3.0356,3.0444,3.1468,3.1965,3.2563,3.3485,3.3965,3.4257,3.4385,3.3848,3.3285,3.2701,3.1627,3.0466,2.9305,2.8261,2.7536,2.72,2.6924,2.6806,2.6806,2.7766,2.8231,2.8129,2.9406,3.0016,3.0031,3.0423,3.0598,0.0,0.0,0.0,0.0,0.0,0.0,1.337,1.4536,1.5724,1.6663,1.7844,1.8729,1.8699,1.8636,1.8281,1.7342,1.7184,1.7373,1.799,1.7643,1.755,1.8305,1.7891,1.7588,1.7681,1.7672,1.7647,1.7529,1.7813,1.8042,1.811,1.8687,1.9309,1.9966,2.0128,2.0452,2.0965,2.1123,2.1008,2.0603,2.134,2.1529,2.119,2.119,2.119,2.119,2.119,2.119,2.119,2.119,2.119,2.119,2.119,2.119,2.138,2.2692,2.3225,2.3469,2.468,2.4832,2.4472,2.4458,2.4133,2.3806,2.3806,2.3842,2.3986,2.456,2.6002,2.7642,2.8863,2.9258,2.931,2.931,2.9258,2.9231,2.9297,2.9103,2.9256,3.0544,3.0743,3.0707,3.0683,3.0419,3.0228,3.0228,3.1241,3.2015,3.2123,3.2849,3.3572,3.4138,3.363,3.2817,3.1729,3.1393,3.0626,2.9014,2.8158,2.7695,2.7695,2.7128,2.6806,2.6806,2.7345,2.7969,2.8709,2.9842,3.0423,3.0496,3.0496,3.0496,0.0,0.0,0.0,0.0,0.0,0.0,1.2372,1.2837,1.3613,1.4978,1.5267,1.5584,1.6555,1.6325,1.5938,1.5861,1.5824,1.6172,1.7239,1.7653,1.7808,1.7721,1.7898,1.792,1.7564,1.7647,1.7672,1.7647,1.7862,1.8236,1.8787,1.8944,1.9077,1.921,2.0312,2.0709,2.0291,2.1431,2.1506,2.0603,2.134,2.1529,2.119,2.119,2.119,2.119,2.119,2.119,2.119,2.119,2.119,2.119,2.119,2.119,2.1302,2.212,2.2786,2.3362,2.372,2.413,2.4458,2.4049,2.3878,2.3806,2.3806,2.4049,2.4585,2.5726,2.6845,2.7844,2.8413,2.8957,2.931,2.931,2.8943,2.8721,2.9205,2.8755,2.8485,2.9243,3.0086,3.0692,3.0646,3.0832,3.0972,3.0972,3.1139,3.1545,3.2173,3.2525,3.2745,3.2843,3.2295,3.2019,3.2263,3.0857,3.0045,3.022,2.8652,2.7695,2.7695,2.7128,2.6806,2.6806,2.691,2.7534,2.8709,2.8956,2.9305,2.9813,2.9813,2.9813,0.0,0.0,0.0,1.252,0.0,0.0,0.0,1.3199,1.4069,1.4837,1.5653,1.638,1.6781,1.6754,1.6526,1.5938,1.6012,1.6162,1.6198,1.7188,1.8013,1.8367,1.8657,1.8633,1.8056,1.8046,1.8138,1.824,1.8351,1.8586,1.8977,1.9661,1.989,1.9573,2.0549,2.1135,2.1146,2.1463,2.1474,2.1138,2.1529,2.1529,2.119,2.119,2.119,2.119,2.119,2.119,2.119,2.119,2.119,2.119,2.119,2.119,2.129,2.1939,2.243,2.2819,2.3244,2.3639,2.3909,2.4022,2.4056,2.4104,2.4458,2.486,2.5369,2.6168,2.6891,2.7499,2.7853,2.8177,2.8399,2.8399,2.8177,2.8012,2.8243,2.7915,2.7717,2.8299,2.9316,3.0073,3.0029,3.0379,3.0708,3.0708,3.0982,3.1343,3.175,3.1933,3.2118,3.2452,3.1886,3.1656,3.1959,3.1103,3.0568,3.0598,2.9087,2.8202,2.8202,2.7287,2.6924,2.7244,2.6939,2.7258,2.8202,2.7882,2.839,2.9595,2.9595,2.9595,0.0,0.0,0.0,0.0,0.0,1.3628,0.0,0.0,0.0,1.5031,1.6322,1.7326,1.6947,0.0,0.0,1.5838,0.0,0.0,0.0,1.6405,0.0,1.8405,1.886,1.8785,1.7996,1.8048,1.8418,1.909,1.89,1.8934,1.9342,2.0452,2.0848,2.0323,2.0976,2.1588,2.2185,2.16,2.1443,2.1698,2.1698,2.1529,2.119,2.119,2.119,2.119,2.119,2.119,2.119,2.119,2.119,2.119,2.119,2.119,2.1279,2.1802,2.2076,2.2292,2.2878,2.3189,2.3421,2.4066,2.4302,2.4408,2.493,2.5343,2.5693,2.6264,2.6722,2.7162,2.7577,2.7776,2.7908,2.7908,2.7908,2.7809,2.7556,2.7335,2.7268,2.7556,2.8531,2.9328,2.9361,2.9941,3.0344,3.0207,3.0723,3.1119,3.1119,3.1243,3.154,3.2092,3.1656,3.1337,3.1337,3.1337,3.1119,3.0641,2.9522,2.884,2.8709,2.7578,2.7157,2.7507,2.7287,2.7345,2.7695,2.7331,2.7882,2.9233,2.9233,2.9233,0.0,0.0,0.0,0.0,1.4076,0.0,0.0,0.0,1.4392,1.4399,0.0,1.4733,0.0,0.0,0.0,0.0,1.4109,1.4481,1.4416,1.5344,1.5935,1.568,1.6782,1.7084,1.5871,1.6449,1.7888,2.0203,1.9233,1.9166,2.0603,2.0839,2.0955,2.0996,2.1694,2.2123,2.2197,2.2123,2.1937,2.1698,2.1698,2.1529,2.119,2.119,2.119,2.119,2.119,2.119,2.119,2.119,2.119,2.119,2.119,2.119,2.1201,2.129,2.1698,2.2213,2.2304,2.2751,2.3421,2.4066,2.4302,2.4314,2.4408,2.4466,2.4757,2.6049,2.6867,2.7511,2.8208,2.8839,2.9254,2.9254,2.9254,2.9079,2.8338,2.8045,2.7683,2.6939,2.7789,2.8758,2.9221,3.0347,3.0954,3.031,3.0364,3.0507,3.0507,3.0616,3.0743,3.0816,3.0757,3.0714,3.0714,3.0714,3.067,3.0598,2.9914,2.9261,2.8723,2.7998,2.7389,2.6895,2.7926,2.8231,2.7695,2.8231,2.8289,2.7913,2.7913,2.7913,0.0,0.0,0.0,0.0,0.0,0.0,1.5654,0.0,1.5529,0.0,0.0,0.0,0.0,0.0,0.0,0.0,1.4801,1.4937,1.4376,0.0,1.5841,1.6143,1.6915,1.7318,1.7087,1.6397,1.6941,1.9364,1.8743,1.8722,1.9803,2.0899,2.1348,2.0987,2.1769,2.2123,2.203,2.203,2.1862,2.1549,2.1549,2.1411,2.119,2.119,2.119,2.119,2.119,2.119,2.119,2.119,2.119,2.119,2.119,2.119,2.119,2.119,2.136,2.162,2.162,2.1823,2.2187,2.2866,2.3566,2.4119,2.4119,2.4572,2.5237,2.5988,2.6958,2.7855,2.8371,2.8998,2.9504,2.9504,2.9504,2.9348,2.8826,2.8634,2.8298,2.7351,2.7887,2.8573,2.8785,2.9977,3.0777,3.0492,3.05,3.0516,3.0516,3.0576,3.0598,3.0598,3.0598,3.0598,3.0598,3.0598,3.0598,3.0598,2.9624,2.8782,2.8158,2.784,2.7753,2.791,2.8433,2.855,2.8289,2.8913,2.9087,2.8797,2.8797,2.8797,1.6583,0.0,0.0,0.0,0.0,0.0,0.0,0.0,0.0,0.0,0.0,0.0,0.0,0.0,0.0,0.0,0.0,1.5296,0.0,1.4857,0.0,1.612,1.6806,1.7423,1.7946,1.6759,1.6733,1.8536,1.8431,1.8594,1.9287,2.0884,2.158,2.1126,2.1718,2.1999,2.1843,2.1843,2.1706,2.1388,2.1388,2.1336,2.119,2.119,2.119,2.119,2.119,2.119,2.119,2.119,2.119,2.119,2.119,2.119,2.119,2.119,2.119,2.119,2.119,2.1325,2.1507,2.1846,2.271,2.372,2.3899,2.4579,2.546,2.6149,2.7289,2.8344,2.868,2.9393,3.0042,3.0042,3.0011,2.9858,2.938,2.9268,2.8921,2.7953,2.8344,2.8794,2.8794,2.9639,3.0387,3.0568,3.0598,3.0598,3.0598,3.0598,3.0598,3.0598,3.0598,3.0598,3.0598,3.0598,3.0525,3.0321,2.9116,2.8289,2.7971,2.7956,2.8289,2.8927,2.9145,2.9232,2.9232,2.9842,3.003,2.9885,2.9885,2.9885,0.0,1.7749,0.0,1.7979,0.0,0.0,0.0,0.0,1.7363,0.0,0.0,0.0,0.0,0.0,0.0,0.0,0.0,0.0,0.0,0.0,1.4339,1.4381,1.565,1.6719,1.7175,1.7357,1.7694,1.8271,1.8608,1.9108,1.9842,2.0842,2.1506,2.1667,2.1698,2.1698,2.1698,2.1698,2.158,2.1388,2.1388,2.1336,2.119,2.119,2.119,2.119,2.119,2.119,2.119,2.119,2.119,2.119,2.119,2.119,2.119,2.119,2.119,2.119,2.119,2.162,2.2064,2.1438,2.1995,2.3031,2.3634,2.4153,2.4878,2.6493,2.794,2.9034,2.938,3.045,3.1438,3.1438,3.1351,3.0999,3.0133,2.9886,2.9515,2.862,2.9062,2.9546,2.9546,2.9591,2.9839,3.0507,3.0598,3.0598,3.0598,3.0598,3.0598,3.0598,3.0598,3.0598,3.0598,3.0598,3.0306,2.9668,2.8435,2.8,2.8651,2.868,2.8942,2.9552,3.0205,3.0539,3.0539,3.1148,3.1148,3.0569,3.0569,3.0569,1.7881,1.7878,1.7743,1.872,1.867,1.8552,1.9357,0.0,0.0,0.0,0.0,0.0,0.0,0.0,0.0,0.0,0.0,0.0,0.0,1.5267,1.5277,1.5277,1.5464,0.0,1.6604,1.6045,1.611,1.721,1.7028,1.7138,1.7683,1.9425,2.0442,2.0514,2.1272,2.1624,2.1506,2.1506,2.1411,2.1285,2.1285,2.1253,2.119,2.119,2.119,2.119,2.119,2.119,2.119,2.119,2.119,2.119,2.119,2.119,2.119,2.119,2.119,2.119,2.119,2.1337,2.1495,2.1279,2.1883,2.2738,2.294,2.3947,2.5211,2.5981,2.7573,2.9097,2.9411,3.0494,3.1511,3.1511,3.1467,3.1292,3.0836,3.0687,3.0387,2.9421,2.9421,2.9591,2.9591,2.9591,2.9839,3.0507,3.0598,3.0598,3.0598,3.0598,3.0598,3.0598,3.0598,3.0598,3.0598,3.0598,3.0306,2.9639,2.9189,2.9058,2.9305,2.9305,2.961,3.0248,3.0496,3.0598,3.0598,3.1221,3.1642,3.1874,3.2326,3.2409,1.8342,1.8304,1.8263,1.9419,1.9239,1.9086,2.0309,1.9865,1.9089,0.0,0.0,0.0,0.0,0.0,0.0,0.0,0.0,0.0,0.0,1.5792,1.5792,1.5792,1.5866,0.0,0.0,1.5844,1.5822,1.6252,1.628,1.6373,1.6598,1.8647,1.9824,1.9824,2.0931,2.1454,2.1336,2.1336,2.1273,2.119,2.119,2.119,2.119,2.119,2.119,2.119,2.119,2.119,2.119,2.119,2.119,2.119,2.119,2.119,2.119,2.119,2.119,2.119,2.119,2.119,2.1221,2.14,2.197,2.2659,2.304,2.426,2.5567,2.6009,2.7615,2.9223,2.9442,3.0494,3.1511,3.1511,3.1424,3.1307,3.1146,3.1014,3.0732,3.0068,2.9962,2.9962,2.9962,2.9962,3.0099,3.0538,3.0598,3.0598,3.0598,3.0598,3.0598,3.0598,3.0598,3.0598,3.0598,3.0364,3.006,2.9624,2.9421,2.9493,2.9943,2.9958,3.048,3.1615,3.1411,3.1411,3.1629,3.2004,3.2425,3.2875,3.3514,3.382]}]]